[[{"header":{"parameterUnit":"m.s-1","parameterCategory":1,"la1":31.0,"la2":29.5877,"lo1":-88.7671,"lo2":-86.6584,"dy":0.0162,"dx":0.0185,"nx":115,"ny":88,"refTime":"2024-06-27T18:00:00:Z","depth":0,"parameterNumber":2,"parameterNumberName":"U-component_of_WINDS"},"data":[0.0,0.0,0.0,0.0,0.0,0.0,0.0,0.0,0.0,0.0,0.0,0.0,0.0,0.0,0.0,0.0,0.0,0.0,0.0,0.0,0.0,0.0,0.0,0.0,0.0,0.0,0.0,0.0,0.0,0.0,0.0,0.0,0.0,0.0,0.0,0.0,0.0,0.0,0.0,0.0,0.0,0.0,0.0,0.0,0.0,0.0,0.0,0.0,0.0,0.0,0.0,0.0,0.0,0.0,0.0,0.0,0.0,0.0,0.0,0.0,0.0,0.0,0.0,0.0,0.0,0.0,0.0,0.0,0.0,0.0,0.0,0.0,0.0,0.0,0.0,0.0,0.0,0.0,0.0,0.0,0.0,0.0,0.0,0.0,0.0,0.0,0.0,0.0,0.0,0.0,0.0,0.0,0.0,0.0,0.0,0.0,0.0,0.0,0.0,0.0,0.0,0.0,0.0,0.0,0.0,0.0,0.0,0.0,0.0,0.0,0.0,0.0,0.0,0.0,0.0,0.0,0.0,0.0,0.0,0.0,0.0,0.0,0.0,0.0,0.0,0.0,0.0,0.0,0.0,0.0,0.0,0.0,0.0,0.0,0.0,0.0,0.0,0.0,0.0,0.0,0.0,0.0,0.0,0.0,0.0,0.0,0.0,0.0,0.0,0.0,0.0,0.0,0.0,0.0,0.0,0.0,0.0,0.0,0.0,0.0,0.0,0.0,0.0,0.0,0.0,0.0,0.0,0.0,0.0,0.0,0.0,0.0,0.0,0.0,0.0,0.0,0.0,0.0,0.0,0.0,0.0,0.0,0.0,0.0,0.0,0.0,0.0,0.0,0.0,0.0,0.0,0.0,0.0,0.0,0.0,0.0,0.0,0.0,0.0,0.0,0.0,0.0,0.0,0.0,0.0,0.0,0.0,0.0,0.0,0.0,0.0,0.0,0.0,0.0,0.0,0.0,0.0,0.0,0.0,0.0,0.0,0.0,0.0,0.0,0.0,0.0,0.0,0.0,0.0,0.0,0.0,0.0,0.0,0.0,0.0,0.0,0.0,0.0,0.0,0.0,0.0,0.0,0.0,0.0,0.0,0.0,0.0,0.0,0.0,0.0,0.0,0.0,0.0,0.0,0.0,0.0,0.0,0.0,0.0,0.0,0.0,0.0,0.0,0.0,0.0,0.0,0.0,0.0,0.0,0.0,0.0,0.0,0.0,0.0,0.0,0.0,0.0,0.0,0.0,0.0,0.0,0.0,0.0,0.0,0.0,0.0,0.0,0.0,0.0,0.0,0.0,0.0,0.0,0.0,0.0,0.0,0.0,0.0,0.0,0.0,0.0,0.0,0.0,0.0,0.0,0.0,0.0,0.0,0.0,0.0,0.0,0.0,0.0,0.0,0.0,0.0,0.0,0.0,0.0,0.0,0.0,0.0,0.0,0.0,0.0,0.0,0.0,0.0,0.0,0.0,0.0,0.0,0.0,0.0,0.0,0.0,0.0,0.0,0.0,0.0,0.0,0.0,0.0,0.0,0.0,0.0,0.0,0.0,0.0,0.0,0.0,0.0,0.0,0.0,0.0,0.0,0.0,0.0,0.0,0.0,0.0,0.0,0.0,0.0,0.0,0.0,0.0,0.0,0.0,0.0,0.0,0.0,0.0,0.0,0.0,0.0,0.0,0.0,0.0,0.0,0.0,0.0,0.0,0.0,0.0,0.0,0.0,0.0,0.0,0.0,0.0,0.0,0.0,0.0,0.0,0.0,0.0,0.0,0.0,0.0,0.0,0.0,0.0,0.0,0.0,0.0,0.0,0.0,0.0,0.0,0.0,0.0,0.0,0.0,0.0,0.0,0.0,0.0,0.0,0.0,0.0,0.0,0.0,0.0,0.0,0.0,0.0,0.0,0.0,0.0,0.0,0.0,0.0,0.0,0.0,0.0,0.0,0.0,0.0,0.0,0.0,0.0,0.0,0.0,0.0,0.0,0.0,0.0,0.0,0.0,0.0,0.0,0.0,0.0,0.0,0.0,0.0,0.0,0.0,0.0,0.0,0.0,0.0,0.0,0.0,0.0,0.0,0.0,0.0,0.0,0.0,0.0,0.0,0.0,0.0,0.0,0.0,0.0,0.0,0.0,0.0,0.0,0.0,0.0,0.0,0.0,0.0,0.0,0.0,0.0,0.0,0.0,0.0,0.0,0.0,0.0,0.0,0.0,0.0,0.0,0.0,0.0,0.0,0.0,0.0,0.0,0.0,0.0,0.0,0.0,0.0,0.0,0.0,0.0,0.0,0.0,0.0,0.0,0.0,0.0,0.0,0.0,0.0,0.0,0.0,0.0,0.0,0.0,0.0,0.0,0.0,0.0,0.0,0.0,0.0,0.0,0.0,0.0,0.0,0.0,0.0,0.0,0.0,0.0,0.0,0.0,0.0,0.0,0.0,0.0,0.0,0.0,0.0,0.0,0.0,0.0,0.0,0.0,0.0,0.0,0.0,0.0,0.0,0.0,0.0,0.0,0.0,0.0,0.0,0.0,0.0,0.0,0.0,0.0,0.0,0.0,0.0,0.0,0.0,0.0,0.0,0.0,0.0,0.0,0.0,0.0,0.0,0.0,0.0,0.0,0.0,0.0,0.0,0.0,0.0,0.0,0.0,0.0,0.0,0.0,0.0,0.0,0.0,0.0,0.0,0.0,0.0,0.0,0.0,0.0,0.0,0.0,0.0,0.0,0.0,0.0,0.0,0.0,0.0,0.0,0.0,0.0,0.0,0.0,0.0,0.0,0.0,0.0,0.0,0.0,0.0,0.0,0.0,0.0,0.0,0.0,0.0,0.0,0.0,0.0,0.0,0.0,0.0,0.0,0.0,0.0,0.0,0.0,0.0,0.0,0.0,0.0,0.0,0.0,0.0,0.0,0.0,0.0,0.0,0.0,0.0,0.0,0.0,0.0,0.0,0.0,0.0,0.0,0.0,0.0,0.0,0.0,0.0,0.0,0.0,0.0,0.0,0.0,0.0,0.0,0.0,0.0,0.0,0.0,0.0,0.0,0.0,0.0,0.0,0.0,0.0,0.0,0.0,0.0,0.0,0.0,0.0,0.0,0.0,0.0,0.0,0.0,0.0,0.0,0.0,0.0,0.0,0.0,0.0,0.0,0.0,0.0,0.0,0.0,0.0,0.0,0.0,0.0,0.0,0.0,0.0,0.0,0.0,0.0,0.0,0.0,0.0,0.0,0.0,0.0,0.0,0.0,0.0,0.0,0.0,0.0,0.0,0.0,0.0,0.0,0.0,0.0,0.0,0.0,0.0,0.0,0.0,0.0,0.0,0.0,0.0,0.0,0.0,0.0,0.0,0.0,0.0,0.0,0.0,0.0,0.0,0.0,0.0,0.0,0.0,0.0,0.0,0.0,0.0,0.0,0.0,0.0,0.0,0.0,0.0,0.0,0.0,0.0,0.0,0.0,0.0,0.0,0.0,0.0,0.0,0.0,0.0,0.0,0.0,0.0,0.0,0.0,0.0,0.0,0.0,0.0,0.0,0.0,0.0,0.0,0.0,0.0,0.0,0.0,0.0,0.0,0.0,0.0,0.0,0.0,0.0,0.0,0.0,0.0,0.0,0.0,0.0,0.0,0.0,0.0,0.0,0.0,0.0,0.0,0.0,0.0,0.0,0.0,0.0,0.0,0.0,0.0,0.0,0.0,0.0,0.0,0.0,0.0,0.0,0.0,0.0,0.0,0.0,0.0,0.0,0.0,0.0,0.0,0.0,0.0,0.0,0.0,0.0,0.0,0.0,0.0,0.0,0.0,0.0,0.0,0.0,0.0,0.0,0.0,0.0,0.0,0.0,0.0,0.0,0.0,0.0,0.0,0.0,0.0,0.0,0.0,0.0,0.0,0.0,0.0,0.0,0.0,0.0,0.0,0.0,0.0,0.0,0.0,0.0,0.0,0.0,0.0,0.0,0.0,0.0,0.0,0.0,0.0,0.0,0.0,0.0,0.0,0.0,0.0,0.0,0.0,0.0,0.0,0.0,0.0,0.0,0.0,0.0,0.0,0.0,0.0,0.0,0.0,0.0,0.0,0.0,0.0,0.0,0.0,0.0,0.0,0.0,0.0,0.0,0.0,0.0,0.0,0.0,0.0,0.0,0.0,0.0,0.0,0.0,0.0,0.0,0.0,0.0,0.0,0.0,0.0,0.0,0.0,0.0,0.0,0.0,0.0,0.0,0.0,0.0,0.0,0.0,0.0,0.0,0.0,0.0,0.0,0.0,0.0,0.0,0.0,-1.3039,0.0,0.0,0.0,0.0,0.0,0.0,0.0,0.0,0.0,0.0,0.0,0.0,0.0,0.0,0.0,0.0,0.0,0.0,0.0,0.0,0.0,0.0,0.0,0.0,0.0,0.0,0.0,0.0,0.0,0.0,0.0,0.0,0.0,0.0,0.0,0.0,0.0,0.0,0.0,0.0,0.0,0.0,0.0,0.0,0.0,0.0,0.0,0.0,0.0,0.0,0.0,0.0,0.0,0.0,0.0,0.0,0.0,0.0,0.0,0.0,0.0,0.0,0.0,0.0,0.0,0.0,0.0,0.0,0.0,0.0,0.0,0.0,0.0,0.0,0.0,0.0,0.0,0.0,0.0,0.0,0.0,0.0,0.0,0.0,0.0,0.0,0.0,0.0,0.0,0.0,0.0,0.0,0.0,0.0,0.0,0.0,0.0,0.0,0.0,0.0,0.0,0.0,0.0,0.0,0.0,0.0,0.0,0.0,0.0,0.0,-1.5898,-1.4692,-1.6684,-1.6399,-1.3524,0.0,0.0,0.0,0.0,0.0,0.0,0.0,0.0,0.0,0.0,0.0,0.0,0.0,0.0,0.0,0.0,0.0,0.0,0.0,0.0,0.0,0.0,0.0,0.0,0.0,0.0,0.0,0.0,0.0,0.0,0.0,0.0,0.0,0.0,0.0,0.0,0.0,0.0,0.0,0.0,0.0,0.0,0.0,0.0,0.0,0.0,0.0,0.0,0.0,0.0,0.0,0.0,0.0,0.0,0.0,0.0,0.0,0.0,0.0,0.0,0.0,0.0,0.0,0.0,0.0,0.0,0.0,0.0,0.0,0.0,0.0,0.0,0.0,0.0,0.0,0.0,0.0,0.0,0.0,0.0,0.0,0.0,0.0,0.0,0.0,0.0,0.0,0.0,0.0,0.0,0.0,0.0,0.0,0.0,0.0,0.0,0.0,0.0,0.0,0.0,0.0,0.0,0.0,0.0,0.0,0.0,0.0,0.0,0.0,0.0,0.0,0.0,-1.7376,-1.7166,-1.5207,0.0,0.0,0.0,0.0,0.0,0.0,0.0,0.0,0.0,0.0,0.0,0.0,0.0,0.0,0.0,0.0,0.0,0.0,0.0,0.0,0.0,0.0,0.0,0.0,0.0,0.0,0.0,0.0,0.0,0.0,0.0,0.0,0.0,0.0,0.0,0.0,0.0,0.0,0.0,0.0,0.0,0.0,0.0,0.0,0.0,0.0,0.0,0.0,0.0,0.0,0.0,0.0,0.0,0.0,0.0,0.0,0.0,0.0,0.0,0.0,0.0,0.0,0.0,0.0,0.0,0.0,0.0,0.0,0.0,0.0,0.0,0.0,0.0,0.0,0.0,0.0,0.0,0.0,0.0,0.0,0.0,0.0,0.0,0.0,0.0,0.0,0.0,0.0,0.0,0.0,0.0,0.0,0.0,0.0,0.0,0.0,0.0,0.0,0.0,0.0,0.0,0.0,0.0,0.0,0.0,0.0,0.0,0.0,0.0,0.0,-1.6397,-1.8672,-1.8891,0.0,-1.8562,0.0,0.0,0.0,0.0,0.0,0.0,0.0,0.0,0.0,0.0,0.0,0.0,0.0,0.0,0.0,0.0,0.0,0.0,0.0,0.0,0.0,0.0,0.0,0.0,0.0,0.0,0.0,0.0,0.0,0.0,0.0,0.0,0.0,0.0,0.0,0.0,0.0,0.0,0.0,0.0,0.0,0.0,0.0,0.0,0.0,0.0,0.0,0.0,0.0,0.0,0.0,0.0,0.0,0.0,0.0,0.0,0.0,0.0,0.0,0.0,0.0,0.0,0.0,0.0,0.0,0.0,0.0,0.0,0.0,0.0,0.0,0.0,0.0,0.0,0.0,0.0,0.0,0.0,0.0,0.0,0.0,0.0,0.0,0.0,0.0,0.0,0.0,0.0,0.0,0.0,0.0,0.0,0.0,0.0,0.0,0.0,0.0,0.0,0.0,0.0,0.0,0.0,0.0,0.0,0.0,0.0,0.0,0.0,0.0,0.0,0.0,-1.9141,-1.9122,-1.8609,0.0,0.0,0.0,0.0,0.0,0.0,0.0,0.0,0.0,0.0,0.0,0.0,0.0,0.0,0.0,0.0,0.0,0.0,0.0,0.0,0.0,0.0,0.0,0.0,0.0,0.0,0.0,0.0,0.0,0.0,0.0,0.0,0.0,0.0,0.0,0.0,0.0,0.0,0.0,0.0,0.0,0.0,0.0,0.0,0.0,0.0,0.0,0.0,0.0,0.0,0.0,0.0,0.0,0.0,0.0,0.0,0.0,0.0,0.0,0.0,0.0,0.0,0.0,0.0,0.0,0.0,0.0,0.0,0.0,0.0,0.0,0.0,0.0,0.0,0.0,0.0,0.0,0.0,0.0,0.0,0.0,0.0,0.0,0.0,0.0,0.0,0.0,0.0,0.0,0.0,0.0,0.0,0.0,0.0,0.0,0.0,0.0,0.0,0.0,0.0,0.0,0.0,0.0,0.0,0.0,0.0,0.0,0.0,0.0,0.0,-1.8588,0.0,-2.0207,-1.9728,-1.8636,-1.6929,0.0,0.0,0.0,0.0,0.0,0.0,0.0,0.0,0.0,0.0,0.0,0.0,0.0,0.0,0.0,0.0,0.0,0.0,0.0,0.0,0.0,0.0,0.0,0.0,0.0,0.0,0.0,0.0,0.0,0.0,0.0,0.0,0.0,0.0,0.0,0.0,0.0,0.0,0.0,0.0,0.0,0.0,0.0,0.0,0.0,0.0,0.0,0.0,0.0,0.0,0.0,0.0,0.0,0.0,0.0,0.0,0.0,0.0,0.0,0.0,0.0,0.0,0.0,0.0,0.0,0.0,0.0,0.0,0.0,0.0,0.0,0.0,0.0,0.0,0.0,0.0,0.0,0.0,0.0,0.0,0.0,0.0,0.0,0.0,0.0,0.0,0.0,0.0,0.0,0.0,0.0,0.0,0.0,0.0,0.0,0.0,0.0,0.0,0.0,0.0,0.0,0.0,0.0,0.0,0.0,0.0,0.0,0.0,0.0,-2.0395,-2.0389,-2.2794,-2.1262,-1.9541,0.0,0.0,0.0,0.0,0.0,0.0,0.0,0.0,0.0,0.0,0.0,0.0,0.0,0.0,0.0,0.0,0.0,0.0,0.0,0.0,0.0,0.0,0.0,0.0,0.0,0.0,0.0,0.0,0.0,0.0,0.0,0.0,0.0,0.0,0.0,0.0,0.0,0.0,0.0,0.0,0.0,0.0,0.0,0.0,0.0,0.0,0.0,0.0,0.0,0.0,0.0,0.0,0.0,0.0,0.0,0.0,0.0,0.0,0.0,0.0,0.0,0.0,0.0,0.0,0.0,0.0,0.0,0.0,0.0,0.0,0.0,0.0,0.0,0.0,0.0,0.0,0.0,0.0,0.0,0.0,0.0,0.0,0.0,0.0,0.0,0.0,0.0,0.0,0.0,0.0,0.0,0.0,0.0,0.0,0.0,0.0,0.0,0.0,0.0,0.0,0.0,0.0,0.0,0.0,0.0,0.0,0.0,0.0,0.0,-1.8124,-1.9918,-2.2095,0.0,-2.1963,-1.9912,0.0,0.0,0.0,0.0,0.0,0.0,0.0,0.0,0.0,0.0,0.0,0.0,0.0,0.0,0.0,0.0,0.0,0.0,0.0,0.0,0.0,0.0,0.0,0.0,0.0,0.0,0.0,0.0,0.0,0.0,0.0,0.0,0.0,0.0,0.0,0.0,0.0,0.0,0.0,0.0,0.0,0.0,0.0,0.0,0.0,0.0,0.0,0.0,0.0,0.0,0.0,0.0,0.0,0.0,0.0,0.0,0.0,0.0,0.0,0.0,0.0,0.0,0.0,0.0,0.0,0.0,0.0,0.0,0.0,0.0,0.0,0.0,0.0,0.0,0.0,0.0,0.0,0.0,0.0,0.0,0.0,0.0,0.0,0.0,0.0,0.0,0.0,0.0,0.0,0.0,0.0,0.0,0.0,0.0,0.0,0.0,0.0,0.0,0.0,0.0,0.0,0.0,0.0,0.0,0.0,0.0,0.0,0.0,0.0,-1.7929,0.0,-2.4471,0.0,-2.2582,-1.9985,0.0,0.0,0.0,0.0,0.0,0.0,0.0,0.0,0.0,0.0,0.0,0.0,0.0,0.0,0.0,0.0,0.0,0.0,0.0,0.0,0.0,0.0,0.0,0.0,0.0,0.0,0.0,0.0,0.0,0.0,0.0,0.0,0.0,0.0,0.0,0.0,0.0,0.0,0.0,0.0,0.0,0.0,0.0,0.0,0.0,0.0,0.0,0.0,0.0,0.0,0.0,0.0,0.0,0.0,0.0,0.0,0.0,0.0,0.0,0.0,0.0,0.0,0.0,0.0,0.0,0.0,0.0,0.0,0.0,0.0,0.0,0.0,0.0,0.0,0.0,0.0,0.0,0.0,0.0,0.0,0.0,0.0,0.0,0.0,0.0,0.0,0.0,0.0,0.0,0.0,0.0,0.0,0.0,0.0,0.0,0.0,0.0,0.0,0.0,0.0,0.0,0.0,0.0,0.0,0.0,0.0,0.0,0.0,0.0,-2.2866,-2.6357,-2.7351,-2.579,-2.3183,-1.9839,0.0,0.0,0.0,0.0,0.0,0.0,0.0,0.0,0.0,0.0,0.0,0.0,0.0,0.0,0.0,0.0,0.0,0.0,0.0,0.0,0.0,0.0,0.0,0.0,0.0,0.0,0.0,0.0,0.0,0.0,0.0,0.0,0.0,0.0,0.0,0.0,0.0,0.0,0.0,0.0,0.0,0.0,0.0,0.0,0.0,0.0,0.0,0.0,0.0,0.0,0.0,0.0,0.0,0.0,0.0,0.0,0.0,0.0,0.0,0.0,0.0,0.0,0.0,0.0,0.0,0.0,0.0,0.0,0.0,0.0,0.0,0.0,0.0,0.0,0.0,0.0,0.0,0.0,0.0,0.0,0.0,0.0,0.0,0.0,0.0,0.0,0.0,0.0,0.0,0.0,0.0,0.0,0.0,0.0,0.0,0.0,0.0,0.0,0.0,0.0,0.0,0.0,0.0,0.0,0.0,0.0,0.0,0.0,0.0,-2.2277,-2.618,-2.8304,-2.8184,-2.4136,-2.1503,0.0,0.0,0.0,0.0,0.0,0.0,0.0,0.0,0.0,0.0,0.0,0.0,0.0,0.0,0.0,0.0,0.0,0.0,0.0,0.0,0.0,0.0,0.0,0.0,0.0,0.0,0.0,0.0,0.0,0.0,0.0,0.0,0.0,0.0,0.0,0.0,0.0,0.0,0.0,0.0,0.0,0.0,0.0,0.0,0.0,0.0,0.0,0.0,0.0,0.0,0.0,0.0,0.0,0.0,0.0,0.0,0.0,0.0,0.0,0.0,0.0,0.0,0.0,0.0,0.0,0.0,0.0,0.0,0.0,0.0,0.0,0.0,0.0,0.0,0.0,0.0,0.0,0.0,0.0,0.0,0.0,0.0,0.0,0.0,0.0,0.0,0.0,0.0,0.0,0.0,0.0,0.0,0.0,0.0,0.0,0.0,0.0,0.0,0.0,0.0,0.0,0.0,0.0,0.0,0.0,0.0,0.0,0.0,0.0,-2.6252,-2.9104,-3.0761,-3.0968,-2.6003,-2.3097,-2.2528,0.0,0.0,0.0,0.0,0.0,0.0,0.0,0.0,0.0,0.0,0.0,0.0,0.0,0.0,0.0,0.0,0.0,0.0,0.0,0.0,0.0,0.0,0.0,0.0,0.0,0.0,0.0,0.0,0.0,0.0,0.0,0.0,0.0,0.0,0.0,0.0,0.0,0.0,0.0,0.0,0.0,0.0,0.0,0.0,0.0,0.0,0.0,0.0,0.0,0.0,0.0,0.0,0.0,0.0,0.0,0.0,0.0,0.0,0.0,0.0,0.0,0.0,0.0,0.0,0.0,0.0,0.0,0.0,0.0,0.0,0.0,0.0,0.0,0.0,0.0,0.0,0.0,0.0,0.0,0.0,0.0,0.0,0.0,0.0,0.0,0.0,0.0,0.0,0.0,0.0,0.0,0.0,0.0,0.0,0.0,0.0,0.0,0.0,0.0,0.0,0.0,0.0,0.0,0.0,0.0,0.0,0.0,0.0,-3.3479,-3.4426,-3.4467,-3.356,-2.8618,-2.4717,0.0,0.0,0.0,0.0,0.0,0.0,0.0,0.0,0.0,0.0,0.0,0.0,0.0,0.0,0.0,0.0,0.0,0.0,0.0,0.0,0.0,0.0,0.0,0.0,0.0,0.0,0.0,0.0,0.0,0.0,0.0,0.0,0.0,0.0,0.0,0.0,0.0,0.0,0.0,0.0,0.0,0.0,0.0,0.0,0.0,0.0,0.0,0.0,0.0,0.0,0.0,0.0,0.0,0.0,0.0,0.0,0.0,0.0,0.0,0.0,0.0,0.0,0.0,0.0,0.0,0.0,0.0,0.0,0.0,0.0,0.0,0.0,0.0,0.0,0.0,0.0,0.0,0.0,0.0,0.0,0.0,0.0,0.0,0.0,0.0,0.0,0.0,0.0,0.0,0.0,0.0,0.0,0.0,0.0,0.0,0.0,0.0,0.0,0.0,0.0,0.0,0.0,0.0,0.0,0.0,0.0,0.0,0.0,0.0,-3.5129,-3.6747,-3.7115,-3.6196,-3.1273,-2.7648,0.0,0.0,0.0,0.0,0.0,0.0,0.0,0.0,0.0,0.0,0.0,0.0,0.0,0.0,0.0,0.0,0.0,0.0,0.0,0.0,0.0,0.0,0.0,0.0,0.0,0.0,0.0,0.0,0.0,0.0,0.0,0.0,0.0,0.0,0.0,0.0,0.0,0.0,0.0,0.0,0.0,0.0,0.0,0.0,0.0,0.0,0.0,0.0,0.0,0.0,0.0,0.0,0.0,0.0,0.0,0.0,0.0,0.0,0.0,0.0,0.0,0.0,0.0,0.0,0.0,0.0,0.0,0.0,0.0,0.0,0.0,0.0,0.0,0.0,0.0,0.0,0.0,0.0,0.0,0.0,0.0,0.0,0.0,0.0,0.0,0.0,0.0,0.0,0.0,0.0,0.0,0.0,0.0,0.0,0.0,0.0,0.0,0.0,0.0,0.0,0.0,0.0,0.0,0.0,0.0,0.0,0.0,0.0,-3.2942,-3.8044,-3.9817,-4.0112,-3.8928,-3.4259,-3.0419,0.0,0.0,0.0,0.0,0.0,0.0,0.0,0.0,0.0,0.0,0.0,0.0,0.0,0.0,0.0,0.0,0.0,0.0,0.0,0.0,0.0,0.0,0.0,0.0,0.0,0.0,0.0,0.0,0.0,0.0,0.0,0.0,0.0,0.0,0.0,0.0,0.0,0.0,0.0,0.0,0.0,0.0,0.0,0.0,0.0,0.0,0.0,0.0,0.0,0.0,0.0,0.0,0.0,0.0,0.0,0.0,0.0,0.0,0.0,0.0,0.0,0.0,0.0,0.0,0.0,0.0,0.0,0.0,0.0,0.0,0.0,0.0,0.0,0.0,0.0,0.0,0.0,0.0,0.0,0.0,0.0,0.0,0.0,0.0,0.0,0.0,0.0,0.0,0.0,0.0,0.0,0.0,0.0,0.0,0.0,0.0,0.0,0.0,0.0,0.0,0.0,0.0,0.0,0.0,0.0,0.0,0.0,0.0,-3.5894,-4.0953,-4.2774,-4.2883,-4.1183,-3.7162,-3.2952,0.0,0.0,0.0,0.0,0.0,0.0,0.0,0.0,0.0,0.0,0.0,0.0,0.0,0.0,0.0,0.0,0.0,0.0,0.0,0.0,0.0,0.0,0.0,0.0,0.0,0.0,0.0,0.0,0.0,0.0,0.0,0.0,0.0,0.0,0.0,0.0,0.0,0.0,0.0,0.0,0.0,0.0,0.0,0.0,0.0,0.0,0.0,0.0,0.0,0.0,0.0,0.0,0.0,0.0,0.0,0.0,0.0,0.0,0.0,0.0,0.0,0.0,0.0,0.0,0.0,0.0,0.0,0.0,0.0,0.0,0.0,0.0,0.0,0.0,0.0,0.0,0.0,0.0,0.0,0.0,0.0,0.0,0.0,0.0,0.0,0.0,0.0,0.0,0.0,0.0,0.0,0.0,0.0,0.0,0.0,0.0,0.0,0.0,0.0,0.0,0.0,0.0,0.0,0.0,0.0,0.0,0.0,0.0,-3.5735,-4.0813,-4.2594,-4.2996,-4.1997,-3.8582,-3.4725,0.0,0.0,0.0,0.0,0.0,0.0,0.0,0.0,0.0,0.0,0.0,0.0,0.0,0.0,0.0,0.0,0.0,0.0,0.0,0.0,0.0,0.0,0.0,0.0,0.0,0.0,0.0,0.0,0.0,0.0,0.0,0.0,0.0,0.0,0.0,0.0,0.0,0.0,0.0,0.0,0.0,0.0,0.0,0.0,0.0,0.0,0.0,0.0,-1.7283,0.0,0.0,0.0,0.0,0.0,0.0,0.0,0.0,0.0,0.0,0.0,0.0,0.0,0.0,0.0,0.0,0.0,0.0,0.0,0.0,0.0,0.0,0.0,0.0,0.0,0.0,0.0,0.0,0.0,0.0,0.0,0.0,0.0,0.0,0.0,0.0,0.0,0.0,0.0,0.0,0.0,0.0,0.0,0.0,0.0,0.0,0.0,0.0,0.0,0.0,0.0,0.0,0.0,0.0,0.0,0.0,0.0,0.0,0.0,-3.7907,-4.2515,-4.3961,-4.405,-4.2848,-4.0763,-3.7078,0.0,0.0,0.0,0.0,0.0,0.0,0.0,0.0,0.0,0.0,0.0,0.0,0.0,0.0,0.0,0.0,0.0,0.0,0.0,0.0,0.0,0.0,0.0,0.0,0.0,0.0,0.0,0.0,0.0,0.0,0.0,0.0,0.0,0.0,0.0,0.0,0.0,0.0,0.0,0.0,0.0,0.0,0.0,0.0,0.0,0.0,0.0,0.0,0.0,0.0,0.0,0.0,0.0,0.0,0.0,0.0,0.0,0.0,0.0,0.0,0.0,0.0,0.0,0.0,0.0,0.0,0.0,0.0,0.0,0.0,0.0,0.0,0.0,0.0,0.0,0.0,0.0,0.0,0.0,0.0,0.0,0.0,0.0,0.0,0.0,0.0,0.0,0.0,0.0,0.0,0.0,0.0,0.0,0.0,0.0,0.0,0.0,0.0,0.0,0.0,0.0,0.0,0.0,0.0,0.0,0.0,0.0,-3.5519,-3.9985,-4.4469,-4.5516,-4.5193,-4.359,-4.2719,-3.9143,-3.2531,0.0,0.0,0.0,0.0,0.0,0.0,0.0,0.0,0.0,0.0,0.0,0.0,0.0,0.0,0.0,0.0,0.0,0.0,0.0,0.0,0.0,0.0,0.0,0.0,0.0,0.0,0.0,0.0,0.0,0.0,0.0,0.0,0.0,0.0,0.0,0.0,0.0,0.0,-1.4062,-1.7516,0.0,0.0,0.0,0.0,0.0,0.0,0.0,0.0,-2.095,0.0,0.0,0.0,0.0,0.0,0.0,0.0,0.0,0.0,0.0,0.0,0.0,0.0,0.0,0.0,0.0,0.0,0.0,0.0,0.0,0.0,0.0,0.0,0.0,0.0,0.0,0.0,0.0,0.0,0.0,0.0,0.0,0.0,0.0,0.0,0.0,0.0,0.0,0.0,0.0,0.0,0.0,0.0,0.0,0.0,0.0,0.0,0.0,0.0,0.0,0.0,0.0,0.0,0.0,0.0,0.0,-3.374,-3.4641,-3.8135,-4.4348,-4.5324,-4.4979,-4.3402,-4.2565,-3.9285,-3.3373,0.0,0.0,0.0,0.0,0.0,0.0,0.0,0.0,0.0,0.0,0.0,0.0,0.0,0.0,0.0,0.0,0.0,0.0,0.0,0.0,0.0,0.0,0.0,0.0,0.0,0.0,0.0,0.0,0.0,0.0,0.0,0.0,0.0,0.0,0.0,0.0,0.0,0.0,0.0,-2.1571,-2.3097,0.0,0.0,0.0,0.0,0.0,0.0,0.0,0.0,-2.1534,0.0,0.0,0.0,0.0,0.0,0.0,0.0,0.0,0.0,0.0,0.0,0.0,0.0,0.0,0.0,0.0,0.0,0.0,0.0,0.0,0.0,0.0,0.0,0.0,0.0,0.0,0.0,0.0,0.0,0.0,0.0,0.0,0.0,0.0,0.0,0.0,0.0,0.0,0.0,0.0,0.0,0.0,0.0,0.0,0.0,0.0,0.0,0.0,0.0,0.0,0.0,0.0,0.0,0.0,0.0,-3.3468,-3.7138,-4.0938,-4.4986,-4.5951,-4.5391,-4.3357,-4.2098,-3.8646,0.0,0.0,0.0,0.0,0.0,0.0,0.0,0.0,0.0,0.0,0.0,0.0,0.0,0.0,0.0,0.0,0.0,0.0,0.0,0.0,0.0,0.0,0.0,0.0,0.0,0.0,0.0,0.0,0.0,0.0,0.0,0.0,0.0,0.0,0.0,0.0,0.0,0.0,0.0,0.0,-2.3316,-2.49,-2.6148,0.0,0.0,0.0,0.0,0.0,0.0,-2.3545,-2.2453,0.0,0.0,0.0,0.0,0.0,0.0,0.0,0.0,0.0,0.0,0.0,0.0,0.0,0.0,0.0,0.0,0.0,0.0,0.0,0.0,0.0,0.0,0.0,0.0,0.0,0.0,0.0,0.0,0.0,0.0,0.0,0.0,0.0,0.0,0.0,0.0,0.0,0.0,0.0,0.0,0.0,0.0,0.0,0.0,0.0,0.0,0.0,0.0,0.0,0.0,0.0,0.0,0.0,0.0,0.0,-3.3024,-3.9153,-4.342,-4.5577,-4.6527,-4.58,-4.335,-4.1666,-3.8035,0.0,0.0,0.0,0.0,0.0,0.0,0.0,0.0,0.0,0.0,0.0,0.0,0.0,0.0,0.0,0.0,0.0,0.0,0.0,0.0,0.0,0.0,0.0,0.0,0.0,0.0,0.0,0.0,0.0,0.0,0.0,0.0,0.0,0.0,0.0,0.0,0.0,0.0,0.0,0.0,0.0,-2.6625,-2.711,-2.6619,0.0,0.0,0.0,0.0,-2.6707,-2.5963,0.0,0.0,0.0,0.0,0.0,0.0,0.0,0.0,0.0,0.0,0.0,0.0,0.0,0.0,0.0,0.0,0.0,0.0,0.0,0.0,0.0,0.0,0.0,0.0,0.0,0.0,0.0,0.0,0.0,0.0,0.0,0.0,0.0,0.0,0.0,0.0,0.0,0.0,0.0,0.0,0.0,0.0,0.0,0.0,0.0,0.0,0.0,0.0,0.0,0.0,0.0,0.0,0.0,0.0,0.0,0.0,-3.2875,-3.7449,-4.1646,-4.543,-4.6446,-4.5737,-4.3277,-4.1641,-3.803,0.0,0.0,0.0,0.0,0.0,0.0,0.0,0.0,0.0,0.0,0.0,0.0,0.0,0.0,0.0,0.0,0.0,0.0,0.0,0.0,0.0,0.0,0.0,0.0,0.0,0.0,0.0,0.0,0.0,0.0,0.0,0.0,0.0,0.0,0.0,0.0,0.0,0.0,0.0,0.0,0.0,-2.8841,-2.8232,-2.8059,-2.8217,0.0,0.0,-2.9344,-3.1108,-3.1824,0.0,0.0,0.0,0.0,0.0,0.0,0.0,0.0,0.0,0.0,0.0,0.0,0.0,0.0,0.0,0.0,0.0,0.0,0.0,0.0,0.0,0.0,0.0,0.0,0.0,0.0,0.0,0.0,0.0,0.0,0.0,0.0,0.0,0.0,0.0,0.0,0.0,0.0,0.0,0.0,0.0,0.0,0.0,0.0,0.0,0.0,0.0,0.0,0.0,0.0,0.0,0.0,0.0,0.0,0.0,-2.8165,-3.3018,-3.9511,-4.4001,-4.6259,-4.7208,-4.6425,-4.3936,-4.041,-3.6234,0.0,0.0,0.0,0.0,0.0,0.0,0.0,0.0,0.0,0.0,0.0,0.0,0.0,0.0,0.0,0.0,0.0,0.0,0.0,0.0,0.0,0.0,0.0,0.0,0.0,0.0,0.0,0.0,0.0,0.0,0.0,0.0,0.0,0.0,0.0,0.0,0.0,0.0,0.0,0.0,0.0,0.0,-2.89,-2.9766,0.0,0.0,0.0,-3.196,-3.2662,0.0,0.0,0.0,0.0,0.0,0.0,0.0,0.0,0.0,0.0,0.0,0.0,0.0,0.0,0.0,0.0,0.0,0.0,0.0,0.0,0.0,0.0,0.0,0.0,0.0,0.0,0.0,0.0,0.0,0.0,0.0,0.0,0.0,0.0,0.0,0.0,0.0,0.0,0.0,0.0,0.0,0.0,0.0,0.0,0.0,0.0,0.0,0.0,0.0,0.0,0.0,0.0,0.0,0.0,0.0,0.0,0.0,-3.3376,-4.1205,-4.5701,-4.6547,-4.7421,-4.6754,-4.4413,-3.9879,0.0,0.0,0.0,0.0,0.0,0.0,0.0,0.0,0.0,0.0,0.0,0.0,0.0,0.0,0.0,0.0,0.0,0.0,0.0,0.0,0.0,0.0,0.0,0.0,0.0,0.0,0.0,-1.08,0.0,0.0,0.0,0.0,0.0,0.0,0.0,0.0,0.0,0.0,0.0,0.0,0.0,0.0,-2.9227,-2.9645,-3.1536,-3.3239,0.0,0.0,-3.4269,-3.4263,-3.4613,-3.3947,0.0,0.0,0.0,0.0,0.0,0.0,0.0,0.0,0.0,0.0,0.0,0.0,0.0,0.0,0.0,0.0,0.0,0.0,0.0,0.0,0.0,0.0,0.0,0.0,0.0,0.0,0.0,0.0,0.0,0.0,0.0,0.0,0.0,0.0,0.0,0.0,0.0,0.0,0.0,0.0,0.0,0.0,0.0,0.0,0.0,0.0,0.0,0.0,0.0,0.0,0.0,0.0,0.0,0.0,0.0,-3.4269,-4.0916,-4.4844,-4.5691,-4.6528,-4.6161,-4.4413,-4.1047,-3.6878,0.0,0.0,0.0,0.0,0.0,0.0,0.0,0.0,0.0,0.0,0.0,0.0,0.0,0.0,0.0,0.0,0.0,0.0,0.0,0.0,0.0,0.0,0.0,0.0,0.0,0.0,0.0,0.0,0.0,0.0,0.0,0.0,0.0,0.0,0.0,0.0,0.0,0.0,0.0,0.0,0.0,-3.1362,-3.0633,-3.329,-3.5946,0.0,0.0,-3.6711,-3.6825,-3.8143,-3.8069,-3.4789,0.0,0.0,0.0,0.0,0.0,0.0,0.0,0.0,0.0,0.0,0.0,0.0,0.0,0.0,0.0,0.0,0.0,0.0,0.0,0.0,0.0,0.0,0.0,0.0,0.0,0.0,0.0,0.0,0.0,0.0,0.0,0.0,0.0,0.0,0.0,0.0,0.0,0.0,0.0,0.0,0.0,0.0,0.0,0.0,0.0,0.0,0.0,0.0,0.0,0.0,0.0,0.0,0.0,-3.0543,-3.4333,-4.1443,-4.5509,-4.6374,-4.6731,-4.6336,-4.5169,-4.1373,-3.7212,0.0,0.0,0.0,0.0,0.0,0.0,0.0,0.0,0.0,0.0,0.0,0.0,0.0,0.0,0.0,0.0,0.0,0.0,0.0,0.0,0.0,0.0,0.0,0.0,0.0,0.0,0.0,0.0,-1.6027,-1.6612,-1.508,0.0,0.0,0.0,0.0,0.0,0.0,0.0,0.0,0.0,0.0,-3.1603,-3.3299,-3.5589,0.0,0.0,-3.8994,-3.9191,-3.9192,-3.9378,-3.8758,-3.6453,-3.4688,0.0,0.0,0.0,0.0,0.0,0.0,0.0,0.0,0.0,0.0,0.0,0.0,0.0,0.0,0.0,0.0,0.0,0.0,0.0,0.0,0.0,0.0,0.0,0.0,0.0,0.0,0.0,0.0,0.0,0.0,0.0,0.0,0.0,0.0,0.0,0.0,0.0,0.0,0.0,0.0,0.0,0.0,0.0,0.0,0.0,0.0,0.0,0.0,0.0,0.0,0.0,0.0,-3.1135,-3.5046,-4.2021,-4.6144,-4.7231,-4.7019,-4.6614,-4.593,-4.2375,-3.8579,0.0,0.0,0.0,0.0,0.0,0.0,0.0,0.0,0.0,0.0,0.0,0.0,0.0,0.0,0.0,0.0,0.0,0.0,0.0,0.0,0.0,0.0,0.0,0.0,0.0,0.0,0.0,0.0,-1.7294,-1.7665,-1.562,0.0,0.0,0.0,0.0,0.0,0.0,0.0,0.0,0.0,0.0,-3.3115,-3.5443,-3.7435,-3.8973,-3.9753,-4.0219,-4.0514,-4.0503,-4.0094,-3.9204,-3.7594,0.0,0.0,0.0,0.0,0.0,0.0,0.0,0.0,0.0,0.0,0.0,0.0,0.0,0.0,0.0,0.0,0.0,0.0,0.0,0.0,0.0,0.0,0.0,0.0,0.0,0.0,0.0,0.0,0.0,0.0,-1.3026,0.0,0.0,0.0,0.0,0.0,0.0,0.0,0.0,0.0,0.0,0.0,0.0,0.0,0.0,0.0,0.0,0.0,0.0,0.0,0.0,0.0,0.0,0.0,-3.6704,-4.2579,-4.6413,-4.799,-4.7288,-4.6892,-4.6793,-4.4363,-4.1403,-3.793,0.0,0.0,0.0,0.0,0.0,0.0,0.0,0.0,0.0,0.0,0.0,0.0,0.0,0.0,0.0,0.0,0.0,0.0,0.0,0.0,0.0,0.0,0.0,0.0,0.0,0.0,-1.3261,-1.5286,-1.6462,0.0,0.0,0.0,0.0,0.0,0.0,0.0,0.0,0.0,0.0,-3.2857,-3.6479,-3.6627,-3.8687,-4.0563,-4.148,-4.0907,-4.0368,-4.0489,-4.0392,-3.985,0.0,0.0,0.0,0.0,0.0,0.0,0.0,0.0,0.0,0.0,0.0,0.0,0.0,0.0,0.0,0.0,0.0,0.0,0.0,0.0,0.0,0.0,0.0,0.0,0.0,0.0,0.0,-2.0237,-1.9146,0.0,0.0,0.0,0.0,0.0,0.0,0.0,0.0,0.0,0.0,0.0,-3.2773,-3.3562,0.0,0.0,0.0,0.0,0.0,0.0,0.0,0.0,0.0,0.0,0.0,0.0,-3.2831,-3.689,-4.3187,-4.699,-4.8048,-4.7317,-4.6913,-4.6873,-4.493,-4.1281,-3.5718,0.0,0.0,0.0,0.0,0.0,0.0,0.0,0.0,0.0,0.0,0.0,0.0,0.0,0.0,0.0,0.0,0.0,0.0,0.0,0.0,0.0,0.0,0.0,0.0,0.0,-1.5296,0.0,0.0,0.0,0.0,0.0,0.0,0.0,0.0,0.0,0.0,0.0,-3.0284,-3.33,-3.5376,-3.7386,-3.9562,-4.0614,-4.1465,0.0,0.0,0.0,0.0,0.0,0.0,0.0,0.0,0.0,0.0,0.0,0.0,0.0,0.0,-3.4638,-3.0432,-2.8481,-2.7311,-2.6738,0.0,0.0,0.0,0.0,0.0,0.0,0.0,0.0,0.0,0.0,0.0,0.0,0.0,0.0,-2.622,0.0,-2.4482,0.0,0.0,0.0,0.0,0.0,0.0,0.0,0.0,-3.5592,-3.7854,-3.8373,-3.888,-3.8392,0.0,-3.6754,-3.3311,0.0,0.0,0.0,0.0,0.0,0.0,0.0,0.0,-3.3954,-3.7757,-4.4034,-4.7855,-4.8894,-4.7913,-4.7317,-4.7316,-4.54,-4.1998,-3.7096,-3.3106,-2.9442,0.0,0.0,0.0,0.0,0.0,0.0,0.0,0.0,0.0,0.0,0.0,0.0,0.0,0.0,0.0,0.0,0.0,0.0,0.0,0.0,0.0,0.0,0.0,-1.7227,0.0,0.0,0.0,0.0,0.0,0.0,0.0,0.0,0.0,-2.7453,-3.0719,-3.4212,-3.749,-3.8399,-3.9444,-4.1303,0.0,0.0,0.0,0.0,0.0,0.0,0.0,-3.9173,-3.8873,-3.8726,-3.8982,-4.0104,-4.1904,-4.3023,-4.2413,0.0,0.0,-3.5566,-3.3591,-3.2425,-3.1849,-3.242,-3.2811,-3.226,-3.2579,-3.2768,0.0,0.0,0.0,0.0,0.0,0.0,0.0,0.0,-3.3412,-3.3327,0.0,-3.1536,0.0,0.0,0.0,0.0,0.0,-3.2119,0.0,0.0,-4.2853,-4.491,-4.3479,-4.344,-4.2995,-4.2183,-4.1435,-3.9707,-3.7033,-3.3032,0.0,0.0,0.0,0.0,0.0,0.0,-3.5207,-3.9453,-4.5188,-4.8971,-5.0539,-4.8971,-4.8085,-4.8015,-4.5693,-4.3574,-4.184,-3.857,-3.5252,-3.1792,-2.6256,0.0,0.0,0.0,0.0,0.0,0.0,0.0,0.0,0.0,0.0,0.0,0.0,0.0,0.0,0.0,0.0,0.0,0.0,0.0,0.0,-1.8167,0.0,0.0,0.0,0.0,0.0,0.0,0.0,0.0,0.0,0.0,-2.9697,-3.4279,-3.8427,-4.0081,0.0,0.0,0.0,0.0,-4.1508,-4.0771,-4.0579,-4.0886,-4.1738,-4.3015,-4.3637,-4.2862,0.0,0.0,-4.446,-4.4959,-4.5073,-4.3553,-4.3216,-4.2541,-4.0965,-3.8584,-3.6918,-3.6841,-3.6276,-3.5699,-3.5654,-3.5801,-3.5714,-4.2422,0.0,0.0,0.0,0.0,-3.5931,-3.7117,-3.9431,-3.8875,-3.7926,-3.6734,-3.6274,0.0,0.0,0.0,0.0,0.0,0.0,-3.8106,-4.1512,-4.3253,-4.5045,-4.6922,-4.6941,-4.6806,-4.6554,-4.6341,-4.551,-4.4175,-4.2942,-3.7429,-2.7991,0.0,0.0,0.0,0.0,-3.8418,-4.2056,-4.6642,-4.9567,-5.0673,-4.9009,-4.7538,-4.6382,-4.5034,-4.3553,-4.1889,-4.0292,-3.7317,-3.2832,-3.0425,0.0,0.0,0.0,0.0,0.0,0.0,0.0,0.0,0.0,0.0,0.0,0.0,0.0,0.0,0.0,0.0,0.0,0.0,0.0,-1.8074,-2.0372,-2.1336,0.0,0.0,0.0,0.0,0.0,0.0,0.0,0.0,0.0,-3.6986,-3.7556,-3.8265,0.0,0.0,-4.1065,-4.0799,-4.2324,-4.3608,-4.3915,0.0,0.0,0.0,-4.3178,-4.244,-4.2804,-4.4499,-4.564,-4.5262,-4.6386,-4.7203,-4.6723,-4.6138,-4.5515,-4.4939,-4.2848,-4.1217,-4.1029,-4.0848,-4.0677,-4.068,-4.0662,-4.0606,-5.0035,-4.5336,-4.2654,-4.1706,-4.1919,-4.11,-4.2183,-4.4504,-4.4027,-4.3401,-4.2718,-4.2048,-4.023,-3.7593,-3.6245,0.0,0.0,0.0,-4.2067,-4.5838,-4.5819,-4.7115,-4.932,-4.9745,-4.9726,-4.9417,-4.9745,-4.9455,-4.8604,-4.7576,-4.3169,-3.5563,0.0,0.0,-3.3334,-3.7777,-4.1409,-4.41,-4.7576,-4.9817,-5.0673,-4.9009,-4.7471,-4.6163,-4.4951,-4.3682,-4.2374,-4.147,-3.9304,-3.5643,-3.368,-3.0375,0.0,0.0,0.0,0.0,0.0,0.0,0.0,0.0,0.0,0.0,0.0,-1.5825,0.0,0.0,0.0,0.0,-1.8326,-2.0083,-2.2288,-2.3875,0.0,0.0,0.0,0.0,0.0,0.0,0.0,-3.2864,-3.6301,-3.9314,-4.117,-4.0844,-4.1074,-4.2905,-4.3365,-4.3382,-4.3019,0.0,-4.5199,-4.4969,-4.5179,-4.538,-4.5322,-4.4652,-4.4499,-4.5686,-4.6762,-4.7511,-4.7607,-4.8212,-4.8596,-4.8529,-4.7905,-4.73,-4.7252,-4.5985,-4.468,-4.3992,-4.3829,-4.3838,-4.3827,-4.3807,-4.3787,-5.5567,-5.4329,-4.8063,-4.5819,-4.6329,-4.5626,-4.6586,-4.8662,-4.8682,-4.9068,-4.9552,-4.8005,-4.6419,-4.471,-4.1628,0.0,-4.384,-4.4639,-4.6702,-4.9776,-4.9796,-5.019,-5.0917,-5.1699,-5.1718,-5.1014,-5.1815,-5.1834,-5.0995,-4.8759,-4.6767,-4.5109,-4.3441,-4.1545,-3.966,-4.1909,-4.4031,-4.5706,-4.8066,-4.9711,-5.0558,-4.8952,-4.7721,-4.6904,-4.522,-4.3932,-4.3124,-4.2258,-4.1008,-3.9207,-3.6194,-3.3295,-3.0498,0.0,0.0,0.0,0.0,0.0,0.0,0.0,0.0,0.0,0.0,0.0,0.0,0.0,0.0,0.0,-2.4086,0.0,-2.812,-2.8355,0.0,0.0,0.0,-3.0663,-3.3133,-3.5584,-3.7691,-3.9212,0.0,0.0,-4.3302,0.0,-4.5899,-4.9153,-4.8663,-4.7694,-4.6886,-4.6857,-4.6492,-4.5198,-4.5467,-4.5937,-4.6349,-4.7171,-4.8337,-4.9688,-5.0511,-5.0401,-5.0363,-4.9942,-4.9529,-4.9481,-4.8788,-4.8212,-4.8192,-4.801,-4.7578,-4.5899,-4.5524,-4.5465,-4.5417,-4.5281,-4.5125,-5.5877,-5.5509,-5.3304,-5.2124,-5.1641,-5.1467,-5.1331,-5.1293,-5.132,-5.0693,-4.9687,-4.9262,-4.8508,-4.7444,-4.6631,-4.698,-4.8179,-4.8384,-4.9243,-5.0589,-5.0627,-5.0705,-5.0898,-5.1119,-5.1467,-5.1892,-5.2105,-5.2434,-5.284,-5.2279,-5.1103,-4.9467,-4.896,-4.5939,-4.068,-4.2849,-4.4911,-4.6562,-4.7852,-4.8873,-4.9654,-4.8644,-4.7721,-4.6923,-4.5201,-4.3932,-4.3124,-4.2277,-4.0719,-3.845,-3.7534,-3.5366,-3.1549,-2.6834,0.0,0.0,0.0,0.0,0.0,0.0,0.0,0.0,0.0,-2.0611,-1.5944,0.0,-2.2801,0.0,-2.7044,-3.0706,-3.2364,-3.3118,0.0,0.0,-3.4814,-3.581,-3.8293,-4.0211,-4.1503,-4.1951,-4.4595,-4.6739,-4.7604,-4.8447,-4.9761,-5.1768,-4.9188,-4.6723,-4.5928,-4.7431,-4.8705,-4.8909,-4.9041,-4.948,-5.0021,-4.9991,-5.001,-5.0474,-5.0582,-5.0613,-5.0663,-5.0529,-5.0365,-5.0268,-4.9635,-4.9144,-4.9029,-4.8529,-4.8019,-4.7491,-4.6887,-4.6387,-4.6327,-4.5797,-4.5297,-5.7153,-5.7076,-5.6244,-5.52,-5.4058,-5.3652,-5.3235,-5.2763,-5.2384,-5.1679,-5.079,-5.0403,-4.997,-4.9533,-4.9513,-4.9776,-5.021,-5.0241,-5.048,-5.0898,-5.0898,-5.0898,-5.0917,-5.1293,-5.1738,-5.221,-5.2589,-5.3014,-5.3478,-5.3498,-5.3006,-5.2073,-5.2028,-4.974,-4.5452,-4.5457,-4.583,-4.6373,-4.758,-4.8786,-4.9885,-4.874,-4.7355,-4.5815,-4.3737,-4.1905,-4.0342,-3.9109,-3.78,-3.6433,-3.5605,-3.4148,-3.1771,-2.7701,-2.4789,0.0,0.0,0.0,0.0,0.0,0.0,0.0,0.0,0.0,0.0,0.0,-2.6423,0.0,-3.1652,-3.5082,-3.5645,-3.7149,-3.845,-3.9282,-4.0029,-4.1321,-4.3446,-4.5156,-4.6303,-4.6736,-4.8734,-5.0264,-5.0757,-5.1216,-5.184,-5.2832,-5.128,-4.974,-4.9111,-5.0068,-5.1083,-5.1568,-5.1623,-5.1735,-5.2294,-5.1634,-5.109,-5.1092,-5.0873,-5.0653,-5.0683,-5.0683,-5.0673,-5.0615,-5.0279,-4.9971,-4.9894,-4.9557,-4.9231,-4.9125,-4.8471,-4.7739,-4.7296,-4.6814,-4.6371,-5.8584,-5.8516,-5.7791,-5.6631,-5.5219,-5.4349,-5.3614,-5.2956,-5.221,-5.1939,-5.1989,-5.1467,-5.1149,-5.1061,-5.1061,-5.0995,-5.0898,-5.0898,-5.0898,-5.0898,-5.0898,-5.0898,-5.0937,-5.1679,-5.2152,-5.2384,-5.3138,-5.3614,-5.3807,-5.3807,-5.373,-5.3498,-5.3436,-5.2531,-5.0715,-4.8472,-4.6799,-4.575,-4.7347,-4.893,-5.0317,-4.8566,-4.6536,-4.427,-4.1786,-3.9362,-3.7064,-3.5444,-3.4518,-3.4268,-3.2956,-3.2185,-3.2102,-2.8396,-2.6249,0.0,-2.3311,0.0,0.0,0.0,0.0,0.0,0.0,0.0,0.0,-2.9906,-3.0887,-3.2483,-3.6908,-3.9446,-3.8946,-4.1014,-4.2728,-4.3541,-4.5004,-4.6562,-4.8124,-4.9671,-5.0913,-5.1677,-5.2461,-5.2957,-5.2924,-5.3046,-5.3147,-5.3372,-5.3785,-5.3744,-5.3451,-5.3174,-5.3174,-5.3349,-5.3321,-5.3157,-5.2922,-5.2291,-5.1766,-5.1718,-5.1172,-5.0702,-5.0683,-5.0683,-5.0683,-5.0702,-5.0664,-5.0644,-5.0683,-5.0624,-5.0595,-5.0538,-4.9864,-4.9083,-4.8354,-4.793,-4.7637,-5.8584,-5.8584,-5.8438,-5.8159,-5.7791,-5.696,-5.4233,-5.0422,-5.0248,-5.0538,-5.1227,-5.2472,-5.2627,-5.197,-5.195,-5.1583,-5.0917,-5.0898,-5.0898,-5.0898,-5.0898,-5.0898,-5.0917,-5.1061,-5.1892,-5.3207,-5.3401,-5.4194,-5.5528,-5.5528,-5.4832,-5.3536,-5.3489,-5.229,-5.002,0.0,0.0,0.0,-4.7347,-4.8361,-4.8564,-4.6318,-4.4569,-4.342,-4.0971,0.0,-3.7893,-3.6852,-3.5695,-3.4409,-3.4653,0.0,0.0,0.0,0.0,0.0,0.0,0.0,0.0,0.0,0.0,0.0,-3.366,-3.2673,-3.1367,-3.4263,-3.6907,-3.8527,-4.1379,-4.3617,-4.4763,-4.591,-4.695,-4.781,-4.8766,-4.9748,-5.0799,-5.1754,-5.2403,-5.2556,-5.3301,-5.3861,-5.3948,-5.4496,-5.4891,-5.4905,-5.5135,-5.5209,-5.5105,-5.4468,-5.4361,-5.4924,-5.4583,-5.397,-5.3287,-5.2499,-5.2037,-5.1798,-5.1212,-5.0789,-5.0741,-5.0731,-5.0682,-5.0633,-5.0653,-5.0673,-5.0633,-5.0663,-5.0673,-5.0683,-5.048,-5.0093,-4.9229,-4.8479,-4.7921,-5.9841,0.0,-5.9397,-5.8758,0.0,-5.7018,-5.4735,-5.1602,-5.2028,-5.2202,-5.226,-5.3111,-5.3246,-5.2782,-5.1931,-5.1331,-5.0859,-5.0055,-5.0105,-5.0898,-5.0898,-5.137,-5.2202,-5.2182,-5.2627,-5.3478,-5.3498,-5.3923,-5.4755,-5.52,-5.4967,-5.4155,-5.4542,-5.4089,-5.2837,-5.2312,-5.0598,-4.7601,-4.8002,-4.8584,-4.9316,-4.7756,-4.5885,-4.384,0.0,0.0,0.0,0.0,0.0,0.0,0.0,0.0,0.0,0.0,0.0,-3.4706,-3.3628,-3.3634,-3.5238,-3.5736,-3.6864,-3.8933,-3.9842,-3.905,-3.6117,-3.9731,-4.2489,-4.332,-4.5329,-4.6889,-4.7709,-4.8985,-4.9945,-5.0404,-5.1159,-5.1829,-5.2288,-5.3015,-5.3525,-5.3621,-5.4279,-5.4807,-5.4843,-5.515,-5.548,-5.5539,-5.5551,-5.5573,-5.561,-5.525,-5.5151,-5.5553,-5.5374,-5.4953,-5.4472,-5.3741,-5.3164,-5.3106,-5.2491,-5.1818,-5.1375,-5.1298,-5.1154,-5.0788,-5.0673,-5.0673,-5.0653,-5.0643,-5.0653,-5.0673,-5.0643,-5.0498,-5.0038,-4.9624,-4.9131,-6.1099,-6.1041,-6.0383,-5.93,-5.7898,-5.7056,-5.5818,-5.4426,0.0,0.0,0.0,-5.3788,-5.3865,-5.3633,-5.2221,-5.1497,-5.1265,-4.9939,-5.0035,-5.1323,-5.1343,-5.2124,-5.3478,-5.3489,-5.3567,-5.373,-5.3721,-5.3799,-5.3962,-5.4677,-5.5006,-5.5064,-5.5683,-5.6005,-5.5932,-5.5008,-5.3148,-5.0477,-4.9092,-4.9017,-5.0183,-4.9259,-4.7353,-4.4443,-4.3566,-4.1674,-3.867,-3.786,-3.6993,-3.601,-3.547,-3.5277,-3.5406,-3.54,-3.617,-3.7737,-3.7837,-3.8858,-4.1171,-4.1313,-4.1989,-4.3589,-4.5109,-4.4735,-4.1819,-4.4888,-4.6959,-4.6978,-4.8542,-4.9551,-4.9589,-5.1023,-5.2006,-5.2026,-5.2754,-5.3222,-5.328,-5.3989,-5.4507,-5.4576,-5.5082,-5.5504,-5.5477,-5.5477,-5.552,-5.5615,-5.5618,-5.5649,-5.5682,-5.5602,-5.5572,-5.5673,-5.5607,-5.5645,-5.5549,-5.4914,-5.4549,-5.4337,-5.3683,-5.2953,-5.2327,-5.2,-5.1635,-5.1106,-5.0818,-5.0712,-5.0683,-5.0653,-5.0633,-5.0683,-5.0653,-5.0653,-5.0692,-5.0653,-5.0315,-6.1099,-6.1099,-6.0983,-6.0789,-6.0499,-5.9706,-5.8778,-5.7723,-5.5722,-5.4329,-5.3594,-5.5026,-5.5258,-5.46,-5.4368,-5.3846,-5.313,-5.2879,-5.2917,0.0,-5.313,-5.3265,-5.3498,-5.3436,-5.3851,-5.4581,-5.4577,-5.4925,-5.5597,-5.5752,-5.5829,-5.5838,-5.5945,-5.6005,-5.5913,-5.5017,-5.4275,-5.3755,-5.0846,-4.9065,-4.8526,-4.702,-4.5668,-4.4473,-4.3655,-4.2294,-4.0328,-4.0174,-3.9345,-3.7841,-3.8337,-3.8998,-3.9656,-3.9706,-4.0435,-4.1967,-4.2123,-4.2885,-4.4547,-4.4681,-4.5417,-4.7035,-4.8028,-4.8045,-4.6931,-4.7963,-4.8735,-4.8804,-5.0275,-5.1331,-5.14,-5.223,-5.285,-5.2889,-5.3598,-5.4116,-5.4135,-5.4787,-5.5305,-5.5286,-5.5427,-5.5527,-5.5573,-5.5585,-5.5607,-5.5682,-5.5682,-5.5692,-5.5703,-5.5703,-5.5703,-5.5703,-5.5684,-5.5684,-5.5626,-5.503,-5.4626,-5.4511,-5.3876,-5.3337,-5.3087,-5.2538,-5.2019,-5.1741,-5.1183,-5.0789,-5.0712,-5.0683,-5.0683,-5.0683,-5.0673,-5.0702,-5.0683,-5.0702,-5.0615,-6.1524,-6.1118,-6.1099,-6.1099,-6.1079,-6.0712,-5.9803,-5.8555,-5.7385,-5.6379,-5.5606,-5.5896,-5.5799,-5.5393,-5.4484,-5.3884,-5.3459,-5.2531,-5.2608,-5.3459,-5.3498,-5.3981,-5.4813,-5.4807,-5.5039,-5.5442,-5.5406,-5.5619,-5.5984,-5.6003,-5.6003,-5.6003,-5.6005,-5.5971,-5.5866,-5.5431,-5.4987,-5.4475,-5.2521,-5.1077,-5.0211,-4.946,-4.843,-4.7159,-4.6754,-4.5975,-4.4724,-4.4666,-4.4127,-4.2914,-4.325,-4.3646,-4.3987,-4.3981,-4.4493,-4.561,-4.5688,-4.5965,-4.6711,-4.6717,-4.722,-4.8436,-4.8895,-4.9132,-4.9175,-4.9586,-5.0071,-5.053,-5.1341,-5.1968,-5.2428,-5.3289,-5.3802,-5.3821,-5.4551,-5.505,-5.5089,-5.5338,-5.5607,-5.5607,-5.5607,-5.5618,-5.564,-5.5651,-5.5671,-5.5703,-5.5684,-5.5684,-5.5684,-5.5684,-5.5684,-5.5684,-5.5684,-5.5684,-5.5684,-5.5415,-5.5164,-5.5164,-5.4838,-5.4395,-5.4049,-5.3491,-5.2933,-5.2077,-5.1568,-5.1202,-5.0818,-5.0683,-5.0683,-5.0683,-5.0683,-5.0683,-5.0683,-5.0683,-5.0683,-6.2182,-6.1408,-6.1389,-6.1273,-6.1099,-6.0905,-6.0093,-5.8894,-5.8449,-5.7927,-5.7222,-5.6379,-5.6003,-5.5877,-5.4639,-5.4078,-5.3884,-5.2666,-5.2774,-5.3962,-5.4058,-5.4774,-5.5887,-5.6003,-5.5995,-5.6003,-5.6003,-5.5995,-5.6003,-5.6003,-5.6003,-5.5986,-5.5951,-5.5905,-5.5797,-5.5776,-5.5448,-5.4771,-5.4107,-5.3231,-5.2231,-5.2019,-5.125,-5.0087,-4.976,-4.9298,-4.8452,-4.8394,-4.8029,-4.7231,-4.7164,-4.7145,-4.7164,-4.7089,-4.7348,-4.7894,-4.7928,-4.799,-4.816,-4.8299,-4.8659,-4.9331,-4.9389,-4.9744,-5.0524,-5.0706,-5.1026,-5.1667,-5.2132,-5.2694,-5.3338,-5.4218,-5.4761,-5.4818,-5.5318,-5.5626,-5.5684,-5.5684,-5.5684,-5.5684,-5.5684,-5.5684,-5.5684,-5.5684,-5.5684,-5.5703,-5.5684,-5.5684,-5.5684,-5.5684,-5.5684,-5.5684,-5.5684,-5.5684,-5.5684,-5.5665,-5.5645,-5.5684,-5.5645,-5.5318,-5.4857,-5.4645,-5.3933,-5.2606,-5.2019,-5.1548,-5.0894,-5.0683,-5.0683,-5.0683,-5.0683,-5.0683,-5.0683,-5.0683,-5.0683,-6.3052,-6.2356,-6.224,-6.1814,-6.106,-6.0344,-5.9919,-5.9532,-5.8139,-5.7404,-5.7164,-5.6399,-5.6003,-5.5984,-5.5791,-5.5683,-5.5683,-5.5586,-5.5539,-5.5675,-5.578,-5.5857,-5.5984,-5.6007,-5.6007,-5.5995,-5.6007,-5.5996,-5.6003,-5.6003,-5.6005,-5.598,-5.5895,-5.5807,-5.5787,-5.5745,-5.5656,-5.5588,-5.5511,-5.4684,-5.3164,-5.2308,-5.1827,-5.1673,-5.0952,-5.0173,-4.9317,-4.9279,-4.8894,-4.8096,-4.7962,-4.7924,-4.7914,-4.7923,-4.791,-4.7954,-4.7933,-4.8198,-4.8949,-4.9652,-5.0084,-5.0256,-5.0294,-5.0664,-5.1549,-5.1623,-5.1595,-5.1939,-5.3127,-5.3974,-5.4242,-5.5015,-5.5491,-5.5472,-5.5607,-5.5684,-5.5684,-5.5684,-5.5684,-5.5684,-5.5684,-5.5684,-5.5684,-5.5684,-5.5684,-5.5684,-5.5684,-5.5684,-5.5684,-5.5684,-5.5684,-5.5684,-5.5684,-5.5684,-5.5684,-5.5684,-5.5684,-5.5684,-5.5684,-5.5588,-5.5376,-5.4914,-5.4164,-5.3376,-5.2442,-5.1779,-5.1087,-5.0683,-5.0683,-5.0683,-5.0683,-5.0683,-5.0683,-5.0683,-5.0673,-6.3652,-6.2433,-6.2414,-6.1892,-6.1099,-6.075,-6.0035,-5.9068,-5.8391,-5.7501,-5.6564,-5.6147,-5.6003,-5.6003,-5.6003,-5.6003,-5.6003,-5.6003,-5.6003,-5.6003,-5.6003,-5.6003,-5.6003,-5.6005,-5.6014,-5.6003,-5.6005,-5.6014,-5.6003,-5.6003,-5.6005,-5.5999,-5.5953,-5.5905,-5.5856,-5.5826,-5.5816,-5.5816,-5.5776,-5.5409,-5.4678,-5.3367,-5.2423,-5.1865,-5.1125,-5.0558,-5.0221,-5.0173,-4.999,-4.9663,-4.9606,-4.9567,-4.9547,-4.9486,-4.9433,-4.9398,-4.9335,-4.9446,-4.9786,-5.013,-5.0512,-5.1063,-5.1101,-5.1488,-5.2319,-5.2831,-5.3102,-5.3192,-5.3878,-5.4526,-5.5017,-5.5467,-5.5684,-5.5684,-5.5684,-5.5684,-5.5684,-5.5684,-5.5684,-5.5684,-5.5684,-5.5684,-5.5684,-5.5684,-5.5684,-5.5684,-5.5684,-5.5684,-5.5684,-5.5684,-5.5684,-5.5684,-5.5684,-5.5684,-5.5684,-5.5684,-5.5684,-5.5684,-5.5684,-5.5684,-5.5626,-5.5511,-5.4934,-5.4087,-5.3203,-5.2327,-5.1606,-5.0971,-5.0683,-5.0683,-5.0683,-5.0683,-5.0683,-5.0683,-5.0663,-6.4464,-6.3149,-6.2627,-6.1911,-6.1099,-6.0867,-6.0093,-5.901,-5.87,-5.7753,-5.6437,-5.6351,-5.6225,-5.6023,-5.6003,-5.6003,-5.6003,-5.6003,-5.6003,-5.6003,-5.6003,-5.6003,-5.6003,-5.6003,-5.6003,-5.6003,-5.6003,-5.6003,-5.6003,-5.5995,-5.6007,-5.5999,-5.5981,-5.5933,-5.5924,-5.5914,-5.5914,-5.5895,-5.5836,-5.5787,-5.5575,-5.433,-5.326,-5.2606,-5.1587,-5.1029,-5.1029,-5.0827,-5.0683,-5.0693,-5.0673,-5.0663,-5.0582,-5.0511,-5.0446,-5.039,-5.0344,-5.0302,-5.0302,-5.0531,-5.0932,-5.1544,-5.1804,-5.2306,-5.3102,-5.3783,-5.4242,-5.4489,-5.4653,-5.502,-5.545,-5.566,-5.5703,-5.5684,-5.5684,-5.5684,-5.5684,-5.5684,-5.5684,-5.5684,-5.5684,-5.5684,-5.5684,-5.5684,-5.5684,-5.5684,-5.5684,-5.5684,-5.5684,-5.5684,-5.5684,-5.5684,-5.5684,-5.5684,-5.5684,-5.5684,-5.5684,-5.5684,-5.5684,-5.5684,-5.5684,-5.5684,-5.5434,-5.4395,-5.3722,-5.2885,-5.1904,-5.1241,-5.0693,-5.0693,-5.0693,-5.0712,-5.074,-5.0731,-5.074,-6.5644,-6.4638,-6.3091,-6.1872,-6.1041,-6.0325,-5.9957,-5.9687,-5.8971,-5.8101,-5.7308,-5.7241,-5.6796,-5.6128,-5.6128,-5.6031,-5.6003,-5.6003,-5.6003,-5.6003,-5.6003,-5.6003,-5.6003,-5.6003,-5.6003,-5.6003,-5.6003,-5.6003,-5.6003,-5.6007,-5.5999,-5.599,-5.5962,-5.5905,-5.5905,-5.5924,-5.5914,-5.5895,-5.5836,-5.5797,-5.569,-5.4907,-5.4395,-5.4184,-5.2741,-5.1837,-5.1731,-5.1106,-5.0702,-5.0683,-5.0643,-5.0582,-5.0511,-5.0465,-5.0428,-5.0409,-5.0359,-5.034,-5.0493,-5.1066,-5.1582,-5.1754,-5.2463,-5.323,-5.407,-5.4311,-5.468,-5.5401,-5.5401,-5.5497,-5.552,-5.5649,-5.5684,-5.5684,-5.5684,-5.5684,-5.5684,-5.5684,-5.5684,-5.5684,-5.5684,-5.5684,-5.5684,-5.5684,-5.5684,-5.5684,-5.5684,-5.5684,-5.5684,-5.5684,-5.5684,-5.5684,-5.5684,-5.5684,-5.5684,-5.5684,-5.5684,-5.5684,-5.5684,-5.5705,-5.5695,-5.5607,-5.5194,-5.4636,-5.381,-5.2944,-5.2078,-5.1414,-5.0895,-5.0712,-5.0731,-5.075,-5.0803,-5.0812,-5.0829,-6.5392,-6.4029,-6.2298,-6.1369,-6.1079,-6.0789,-6.0383,-5.9899,-5.9571,-5.8932,-5.8236,-5.8139,-5.7946,-5.7617,-5.7076,-5.6525,-5.6023,-5.6003,-5.6003,-5.6003,-5.6003,-5.6003,-5.6003,-5.6003,-5.6003,-5.6003,-5.6003,-5.6003,-5.6003,-5.6005,-5.5996,-5.6005,-5.5968,-5.5959,-5.5979,-5.5959,-5.596,-5.5943,-5.5905,-5.5836,-5.5797,-5.5446,-5.5261,-5.5184,-5.3606,-5.2462,-5.1923,-5.1606,-5.1241,-5.0731,-5.0673,-5.0653,-5.063,-5.1018,-5.1499,-5.1855,-5.1469,-5.14,-5.1804,-5.1697,-5.2086,-5.311,-5.3496,-5.408,-5.4793,-5.5059,-5.5209,-5.5462,-5.5585,-5.5585,-5.5585,-5.564,-5.5684,-5.5684,-5.5684,-5.5684,-5.5684,-5.5684,-5.5684,-5.5684,-5.5684,-5.5684,-5.5684,-5.5684,-5.5684,-5.5684,-5.5684,-5.5684,-5.5684,-5.5684,-5.5684,-5.5684,-5.5684,-5.5684,-5.5684,-5.5684,-5.5684,-5.5684,-5.5695,-5.5767,-5.5768,-5.5731,-5.5403,-5.4699,-5.386,-5.2858,-5.1962,-5.1326,-5.0864,-5.0776,-5.0785,-5.0821,-5.0869,-5.0893,-5.0933,-6.4996,-6.3565,-6.2124,-6.135,-6.1118,-6.1099,-6.0809,-6.0286,-6.0286,-5.9803,-5.9126,-5.9019,-5.8883,-5.8526,-5.7965,-5.7424,-5.6786,-5.6283,-5.6003,-5.6003,-5.6003,-5.6003,-5.6003,-5.6003,-5.6003,-5.6003,-5.6003,-5.6003,-5.6003,-5.6003,-5.6003,-5.6003,-5.6003,-5.6003,-5.6003,-5.6003,-5.6005,-5.5989,-5.5953,-5.5885,-5.5807,-5.5765,-5.5684,-5.5549,-5.4587,-5.3606,-5.2769,-5.2462,-5.2106,-5.1606,-5.1491,-5.1471,-5.1486,-5.1894,-5.2283,-5.2472,-5.2276,-5.2177,-5.246,-5.2456,-5.2961,-5.4044,-5.4494,-5.4932,-5.5411,-5.5527,-5.5562,-5.5573,-5.5596,-5.5629,-5.5629,-5.5682,-5.5684,-5.5684,-5.5684,-5.5684,-5.5684,-5.5684,-5.5684,-5.5684,-5.5684,-5.5684,-5.5684,-5.5684,-5.5684,-5.5684,-5.5684,-5.5684,-5.5684,-5.5684,-5.5684,-5.5684,-5.5684,-5.5684,-5.5684,-5.5695,-5.5695,-5.5695,-5.5758,-5.5818,-5.571,-5.5698,-5.5326,-5.4658,-5.3763,-5.2762,-5.1925,-5.1269,-5.0988,-5.088,-5.0861,-5.0866,-5.0921,-5.0974,-5.1023,-6.4493,-6.3623,-6.2743,-6.1795,-6.1157,-6.1099,-6.1099,-6.1002,-6.1021,-6.0557,-5.9919,-5.988,-5.9513,-5.8855,-5.87,-5.8574,-5.8255,-5.696,-5.6302,-5.6263,-5.6139,-5.6119,-5.6119,-5.6051,-5.6003,-5.6003,-5.6003,-5.6003,-5.6003,-5.6003,-5.6003,-5.6003,-5.6003,-5.6003,-5.6003,-5.6003,-5.6003,-5.5977,-5.5923,-5.5924,-5.5885,-5.5766,-5.5714,-5.5695,-5.5549,-5.5145,-5.4453,-5.3645,-5.3145,-5.3068,-5.3049,-5.3124,-5.3014,-5.3048,-5.2738,-5.2425,-5.2681,-5.2623,-5.231,-5.339,-5.4047,-5.4488,-5.5082,-5.5477,-5.5535,-5.5629,-5.5673,-5.5662,-5.5673,-5.5684,-5.5684,-5.5703,-5.5684,-5.5684,-5.5684,-5.5684,-5.5684,-5.5684,-5.5684,-5.5684,-5.5684,-5.5684,-5.5684,-5.5684,-5.5684,-5.5684,-5.5684,-5.5684,-5.5684,-5.5684,-5.5684,-5.5684,-5.5714,-5.5714,-5.5695,-5.5695,-5.5705,-5.5726,-5.5808,-5.5835,-5.5565,-5.5428,-5.4827,-5.4137,-5.2968,-5.1989,-5.1595,-5.1014,-5.1029,-5.0959,-5.0952,-5.0959,-5.1016,-5.1076,-5.1105,-6.3952,-6.3526,-6.2104,-6.1369,-6.1099,-6.1099,-6.1099,-6.1099,-6.1099,-6.0963,-6.075,-6.0731,-6.0557,-6.0228,-5.9764,-5.9493,-5.9397,-5.8333,-5.7791,-5.7695,-5.7172,-5.6874,-5.6757,-5.6274,-5.6003,-5.6003,-5.6003,-5.6003,-5.6003,-5.6003,-5.6003,-5.6003,-5.6003,-5.6003,-5.6003,-5.6003,-5.5995,-5.5998,-5.599,-5.5924,-5.5836,-5.5787,-5.5745,-5.5695,-5.5684,-5.5568,-5.5299,-5.453,-5.3818,-5.328,-5.3203,-5.3442,-5.3932,-5.4045,-5.4161,-5.4413,-5.4152,-5.4235,-5.4386,-5.4337,-5.4641,-5.5029,-5.5428,-5.5577,-5.5596,-5.5671,-5.5684,-5.5684,-5.5684,-5.5684,-5.5684,-5.5684,-5.5684,-5.5684,-5.5684,-5.5684,-5.5684,-5.5684,-5.5684,-5.5684,-5.5684,-5.5684,-5.5684,-5.5684,-5.5684,-5.5684,-5.5684,-5.5684,-5.5684,-5.5684,-5.5684,-5.5684,-5.5714,-5.5776,-5.5817,-5.5847,-5.5875,-5.5893,-5.5937,-5.5919,-5.5629,-5.5197,-5.455,-5.3657,-5.2453,-5.1697,-5.1263,-5.103,-5.1063,-5.1089,-5.1076,-5.1094,-5.1144,-5.1159,-5.119,-6.37,-6.3507,-6.1834,-6.1099,-6.1099,-6.1099,-6.1099,-6.1099,-6.1099,-6.1099,-6.1099,-6.1099,-6.1099,-6.1002,-6.0557,-6.0364,-6.0286,-5.9745,-5.9513,-5.9242,-5.7888,-5.7338,-5.7183,-5.6399,-5.6003,-5.6003,-5.6003,-5.6003,-5.6003,-5.6003,-5.6003,-5.6003,-5.6003,-5.6003,-5.6003,-5.6003,-5.5995,-5.6007,-5.5999,-5.5933,-5.5846,-5.5816,-5.5766,-5.5714,-5.5684,-5.5684,-5.5645,-5.5184,-5.4703,-5.4241,-5.4126,-5.4414,-5.4895,-5.4953,-5.507,-5.514,-5.5149,-5.5081,-5.5235,-5.5042,-5.5126,-5.5555,-5.5671,-5.5682,-5.5662,-5.5714,-5.5684,-5.5684,-5.5684,-5.5684,-5.5684,-5.5684,-5.5684,-5.5684,-5.5684,-5.5684,-5.5684,-5.5684,-5.5684,-5.5684,-5.5684,-5.5684,-5.5684,-5.5684,-5.5684,-5.5684,-5.5684,-5.5684,-5.5684,-5.5684,-5.5705,-5.5747,-5.5798,-5.5875,-5.5975,-5.6007,-5.604,-5.6071,-5.6117,-5.6037,-5.5838,-5.5355,-5.4771,-5.3818,-5.2688,-5.2274,-5.1841,-5.1344,-5.1194,-5.1194,-5.1208,-5.1189,-5.118,-5.122,-5.1244,-6.37,-6.3468,-6.1814,-6.1099,-6.1099,-6.1099,-6.1099,-6.1099,-6.1099,-6.1099,-6.1099,-6.1099,-6.1099,-6.1099,-6.1002,-6.0963,-6.106,-6.0944,-6.0828,-6.0267,-5.8797,-5.7617,-5.7222,-5.6545,-5.6177,-5.6003,-5.6003,-5.6003,-5.6003,-5.6003,-5.6003,-5.6003,-5.6003,-5.6003,-5.6003,-5.6003,-5.6003,-5.5995,-5.6007,-5.5961,-5.5895,-5.5855,-5.5766,-5.5695,-5.5695,-5.5695,-5.5665,-5.5607,-5.5607,-5.5645,-5.5472,-5.5472,-5.5645,-5.5695,-5.5371,-5.495,-5.5431,-5.5364,-5.5151,-5.5451,-5.5808,-5.5846,-5.5816,-5.5797,-5.5787,-5.5745,-5.5705,-5.5724,-5.5695,-5.5684,-5.5684,-5.5684,-5.5684,-5.5684,-5.5684,-5.5684,-5.5684,-5.5684,-5.5684,-5.5684,-5.5684,-5.5684,-5.5684,-5.5684,-5.5684,-5.5684,-5.5684,-5.5684,-5.5714,-5.5716,-5.5778,-5.5818,-5.5865,-5.599,-5.6087,-5.6136,-5.6172,-5.6246,-5.6226,-5.6069,-5.58,-5.5283,-5.4786,-5.3851,-5.3286,-5.2862,-5.2375,-5.1866,-5.1424,-5.1283,-5.1259,-5.1235,-5.124,-5.1273,-5.1287,-6.37,-6.3507,-6.1814,-6.1099,-6.1099,-6.1099,-6.1099,-6.1099,-6.1099,-6.1099,-6.1099,-6.1099,-6.1099,-6.1099,-6.1099,-6.1099,-6.1099,-6.1099,-6.1099,-6.0905,-5.988,-5.8449,-5.7512,-5.7067,-5.6583,-5.6081,-5.6003,-5.6003,-5.6003,-5.6003,-5.6003,-5.6003,-5.6003,-5.6003,-5.6003,-5.6003,-5.6003,-5.6003,-5.5995,-5.596,-5.5905,-5.5866,-5.5816,-5.5705,-5.5745,-5.5745,-5.5714,-5.5684,-5.5684,-5.5684,-5.5684,-5.5684,-5.5695,-5.5745,-5.5681,-5.5596,-5.5731,-5.5885,-5.5739,-5.5826,-5.5943,-5.5924,-5.5895,-5.5885,-5.5856,-5.5816,-5.5776,-5.5766,-5.5735,-5.5714,-5.5714,-5.5695,-5.5695,-5.5684,-5.5684,-5.5684,-5.5684,-5.5684,-5.5684,-5.5684,-5.5684,-5.5684,-5.5684,-5.5684,-5.5684,-5.5684,-5.5684,-5.5705,-5.5726,-5.5798,-5.5847,-5.5912,-5.5973,-5.6083,-5.6187,-5.6233,-5.6302,-5.6412,-5.6315,-5.6072,-5.5575,-5.4907,-5.4429,-5.3786,-5.386,-5.3591,-5.2952,-5.2379,-5.1966,-5.1529,-5.1306,-5.1278,-5.1278,-5.1287,-5.1295,-6.4048,-6.3584,-6.222,-6.1427,-6.1118,-6.1099,-6.1099,-6.1099,-6.1099,-6.1099,-6.1099,-6.1099,-6.1099,-6.1099,-6.1099,-6.1099,-6.1099,-6.1099,-6.1099,-6.1021,-6.0596,-5.9261,-5.7763,-5.728,-5.6835,-5.6081,-5.6003,-5.6003,-5.6003,-5.6003,-5.6003,-5.6003,-5.6003,-5.6003,-5.6003,-5.6003,-5.6003,-5.6003,-5.6005,-5.596,-5.5905,-5.5856,-5.5807,-5.5756,-5.5776,-5.5776,-5.5726,-5.5724,-5.5684,-5.5684,-5.5684,-5.5684,-5.5695,-5.5766,-5.5807,-5.5895,-5.5962,-5.5999,-5.6007,-5.6007,-5.5998,-5.5942,-5.5943,-5.5953,-5.5924,-5.5885,-5.5836,-5.5836,-5.5806,-5.5796,-5.5785,-5.5756,-5.5735,-5.5714,-5.5684,-5.5684,-5.5684,-5.5684,-5.5684,-5.5684,-5.5684,-5.5684,-5.5684,-5.5684,-5.5684,-5.5684,-5.5684,-5.5737,-5.5788,-5.5856,-5.5956,-5.6032,-5.6102,-5.6227,-5.6314,-5.6361,-5.6367,-5.647,-5.6448,-5.6195,-5.5805,-5.51,-5.508,-5.4866,-5.4632,-5.4277,-5.3736,-5.3093,-5.2407,-5.199,-5.1615,-5.1323,-5.1304,-5.1327,-5.1316,-6.4416,-6.3623,-6.2646,-6.1814,-6.1157,-6.1099,-6.1099,-6.1099,-6.1099,-6.1099,-6.1099,-6.1099,-6.1099,-6.1099,-6.1099,-6.1099,-6.1099,-6.1099,-6.1099,-6.1079,-6.0847,-5.9841,-5.8062,-5.7675,-5.7106,-5.6351,-5.61,-5.6003,-5.6003,-5.6003,-5.6003,-5.6003,-5.6003,-5.6003,-5.6003,-5.6003,-5.6003,-5.6003,-5.5996,-5.5971,-5.5943,-5.5885,-5.5846,-5.5826,-5.5816,-5.5807,-5.5787,-5.5775,-5.5714,-5.5684,-5.5684,-5.5714,-5.5705,-5.5776,-5.5846,-5.5914,-5.5981,-5.6007,-5.5995,-5.6003,-5.6003,-5.5995,-5.5998,-5.5999,-5.599,-5.5933,-5.5924,-5.5924,-5.5905,-5.5885,-5.5885,-5.5846,-5.5817,-5.5778,-5.5747,-5.5747,-5.5716,-5.5714,-5.5684,-5.5684,-5.5684,-5.5684,-5.5684,-5.5695,-5.5695,-5.5778,-5.5778,-5.5837,-5.5902,-5.5999,-5.6102,-5.622,-5.6296,-5.6361,-5.6427,-5.6474,-5.6455,-5.6492,-5.6492,-5.6379,-5.6375,-5.6063,-5.6253,-5.6152,-5.5606,-5.5178,-5.4807,-5.4048,-5.3073,-5.2298,-5.1811,-5.1519,-5.1304,-5.1331,-5.1339,-6.3874,-6.3565,-6.2027,-6.1273,-6.1118,-6.1099,-6.1099,-6.1099,-6.1099,-6.1099,-6.1099,-6.1099,-6.1099,-6.1099,-6.1099,-6.1099,-6.1099,-6.1099,-6.1099,-6.1099,-6.1099,-6.0499,-5.93,-5.8662,-5.7849,-5.7037,-5.6274,-5.6031,-5.6023,-5.6003,-5.6003,-5.6003,-5.6003,-5.6003,-5.6003,-5.6003,-5.6003,-5.6003,-5.5995,-5.5998,-5.5971,-5.5953,-5.5905,-5.5885,-5.5885,-5.5885,-5.5875,-5.5816,-5.5756,-5.5714,-5.5695,-5.5735,-5.5766,-5.5836,-5.5905,-5.5952,-5.5979,-5.5995,-5.6003,-5.6003,-5.6003,-5.6003,-5.5995,-5.5995,-5.6005,-5.5989,-5.5981,-5.5971,-5.5943,-5.5933,-5.5924,-5.5932,-5.5931,-5.594,-5.5956,-5.5956,-5.5865,-5.5767,-5.5716,-5.5695,-5.5684,-5.5684,-5.5684,-5.5724,-5.5747,-5.5837,-5.5884,-5.5929,-5.6024,-5.6124,-5.6227,-5.6325,-5.6382,-5.6432,-5.6441,-5.6487,-5.6492,-5.6496,-5.648,-5.6488,-5.6488,-5.648,-5.65,-5.6472,-5.637,-5.5961,-5.5513,-5.4473,-5.3389,-5.2707,-5.2044,-5.1599,-5.133,-5.1356,-5.1375,-6.4087,-6.3565,-6.2259,-6.1485,-6.1137,-6.1099,-6.1099,-6.1099,-6.1099,-6.1099,-6.1099,-6.1099,-6.1099,-6.1099,-6.1099,-6.1099,-6.1099,-6.1099,-6.1099,-6.1099,-6.1099,-6.0867,-6.0422,-5.9532,-5.8604,-5.7415,-5.6874,-5.6448,-5.6128,-5.6003,-5.6003,-5.6003,-5.6003,-5.6003,-5.6003,-5.6003,-5.6003,-5.5975,-5.5959,-5.5961,-5.5943,-5.5895,-5.5895,-5.5905,-5.5933,-5.5953,-5.5953,-5.5846,-5.5806,-5.5775,-5.5745,-5.5756,-5.5816,-5.5895,-5.5971,-5.5999,-5.6005,-5.6003,-5.6003,-5.6003,-5.6003,-5.6003,-5.6003,-5.6003,-5.6003,-5.6005,-5.5987,-5.6007,-5.5989,-5.596,-5.5987,-5.6054,-5.6075,-5.6052,-5.6083,-5.604,-5.5917,-5.5827,-5.5757,-5.5716,-5.5684,-5.5684,-5.5695,-5.5747,-5.5817,-5.5893,-5.5999,-5.6048,-5.6158,-5.624,-5.6308,-5.6388,-5.6441,-5.6479,-5.6479,-5.6487,-5.6496,-5.648,-5.6488,-5.65,-5.6487,-5.65,-5.6492,-5.6484,-5.6476,-5.6402,-5.5861,-5.48,-5.3836,-5.3273,-5.261,-5.1834,-5.1369,-5.1369,-5.1388,-6.429,-6.3429,-6.2569,-6.1776,-6.1157,-6.1099,-6.1099,-6.1099,-6.1099,-6.1099,-6.1099,-6.1099,-6.1099,-6.1099,-6.1099,-6.1099,-6.1099,-6.1099,-6.1099,-6.1099,-6.1099,-6.0925,-6.0596,-5.9957,-5.8913,-5.7482,-5.7222,-5.6844,-5.639,-5.6051,-5.6003,-5.6003,-5.6003,-5.6003,-5.6003,-5.6003,-5.6003,-5.5995,-5.595,-5.5933,-5.5914,-5.5837,-5.5837,-5.5924,-5.5961,-5.5999,-5.5971,-5.5895,-5.5816,-5.5797,-5.5816,-5.5826,-5.5846,-5.5924,-5.5999,-5.6008,-5.6005,-5.6003,-5.6003,-5.6003,-5.6003,-5.6003,-5.6003,-5.6003,-5.6003,-5.6003,-5.6003,-5.6012,-5.5993,-5.6046,-5.6086,-5.6185,-5.6187,-5.6181,-5.6168,-5.6109,-5.5994,-5.596,-5.5919,-5.5726,-5.5737,-5.5767,-5.5808,-5.5847,-5.5902,-5.5973,-5.606,-5.6167,-5.6264,-5.6336,-5.6403,-5.6437,-5.6464,-5.6496,-5.6496,-5.648,-5.6484,-5.6484,-5.6487,-5.6494,-5.6485,-5.6482,-5.6494,-5.6496,-5.6473,-5.6418,-5.5996,-5.4895,-5.4144,-5.3738,-5.2827,-5.1698,-5.1386,-5.14,-5.1403,-6.34,-6.253,-6.1679,-6.1234,-6.1118,-6.1099,-6.1099,-6.1099,-6.1099,-6.1099,-6.1099,-6.1099,-6.1099,-6.1099,-6.1099,-6.1099,-6.1021,-6.0886,-6.0886,-6.0905,-6.0867,-6.0673,-6.0093,-5.9841,-5.8894,-5.7733,-5.7299,-5.7144,-5.6796,-5.6418,-5.6023,-5.6003,-5.6003,-5.6003,-5.6003,-5.6003,-5.6003,-5.6003,-5.5977,-5.5979,-5.5969,-5.5941,-5.5913,-5.5979,-5.5996,-5.6007,-5.599,-5.5924,-5.5846,-5.5816,-5.5846,-5.5885,-5.5895,-5.5962,-5.5998,-5.6005,-5.5995,-5.6003,-5.6003,-5.6003,-5.6003,-5.6003,-5.6003,-5.5993,-5.5993,-5.6012,-5.6029,-5.6035,-5.6056,-5.6114,-5.6094,-5.6258,-5.6352,-5.6359,-5.6363,-5.6348,-5.625,-5.6179,-5.6081,-5.5817,-5.5837,-5.5875,-5.5929,-5.5979,-5.6056,-5.6121,-5.6213,-5.6297,-5.6393,-5.642,-5.6461,-5.6465,-5.6484,-5.6484,-5.6488,-5.6492,-5.648,-5.6485,-5.6494,-5.6514,-5.65,-5.6503,-5.6494,-5.6504,-5.6494,-5.6459,-5.5822,-5.4934,-5.4332,-5.3825,-5.2684,-5.1442,-5.1399,-5.1396,-5.1401,-6.2781,-6.2317,-6.1466,-6.1099,-6.1099,-6.1099,-6.1099,-6.1099,-6.1099,-6.1099,-6.1099,-6.1099,-6.1099,-6.1099,-6.1099,-6.0905,-6.048,-5.9957,-5.9841,-5.9803,-5.9783,-5.9667,-5.9242,-5.9223,-5.8797,-5.8023,-5.7579,-5.7028,-5.665,-5.6225,-5.6003,-5.6003,-5.6003,-5.6003,-5.6003,-5.6003,-5.6003,-5.6003,-5.6005,-5.5996,-5.5996,-5.5996,-5.5996,-5.5996,-5.5995,-5.6005,-5.5999,-5.5943,-5.5875,-5.5826,-5.5856,-5.5895,-5.5914,-5.5971,-5.6005,-5.6003,-5.6003,-5.6003,-5.6003,-5.6003,-5.6003,-5.6003,-5.6003,-5.6018,-5.6043,-5.6067,-5.6075,-5.6109,-5.6194,-5.6264,-5.6271,-5.6369,-5.6441,-5.6441,-5.6482,-5.6448,-5.6355,-5.6318,-5.6148,-5.5962,-5.5994,-5.6036,-5.6033,-5.6114,-5.6212,-5.6294,-5.6359,-5.6414,-5.6487,-5.6491,-5.6494,-5.6491,-5.6484,-5.6487,-5.6487,-5.6491,-5.6498,-5.65,-5.6511,-5.6531,-5.6533,-5.6533,-5.6553,-5.655,-5.6545,-5.6497,-5.5954,-5.5182,-5.4557,-5.3816,-5.2594,-5.1644,-5.1468,-5.139,-5.1392,-6.2317,-6.2085,-6.1389,-6.1099,-6.1079,-6.0905,-6.0847,-6.0828,-6.0596,-6.0499,-6.0596,-6.0557,-6.0499,-6.0557,-6.046,-6.019,-5.9571,-5.8894,-5.8778,-5.8787,-5.8758,-5.8604,-5.8352,-5.8294,-5.8101,-5.7579,-5.725,-5.6757,-5.6525,-5.6147,-5.6003,-5.6003,-5.6003,-5.6003,-5.6003,-5.6003,-5.6003,-5.5995,-5.5996,-5.6008,-5.6008,-5.6008,-5.6008,-5.6008,-5.6005,-5.5995,-5.5998,-5.5971,-5.5914,-5.5866,-5.5876,-5.5914,-5.5933,-5.5979,-5.6003,-5.6003,-5.6003,-5.6003,-5.6003,-5.6003,-5.6003,-5.6003,-5.6003,-5.6035,-5.6079,-5.6109,-5.6146,-5.622,-5.6311,-5.6378,-5.6378,-5.6453,-5.6488,-5.65,-5.6503,-5.65,-5.6416,-5.6375,-5.6359,-5.6241,-5.62,-5.6185,-5.6181,-5.6242,-5.6359,-5.6357,-5.643,-5.6445,-5.6488,-5.6488,-5.6488,-5.6485,-5.6485,-5.6488,-5.6488,-5.6488,-5.6517,-5.6531,-5.6536,-5.6558,-5.658,-5.6602,-5.6602,-5.658,-5.6558,-5.6436,-5.5931,-5.5426,-5.4723,-5.3808,-5.2583,-5.1804,-5.1548,-5.1412,-5.1394,-6.195,-6.1253,-6.1157,-6.1099,-6.1002,-6.0422,-6.0074,-5.9996,-5.9397,-5.8894,-5.9106,-5.8971,-5.9029,-5.9048,-5.8971,-5.8855,-5.87,-5.8468,-5.8275,-5.8236,-5.8294,-5.7965,-5.754,-5.7462,-5.7095,-5.6747,-5.6399,-5.6603,-5.6603,-5.6235,-5.6023,-5.6003,-5.6003,-5.6003,-5.6003,-5.6003,-5.6003,-5.6003,-5.6003,-5.5995,-5.5995,-5.5995,-5.5995,-5.5995,-5.6003,-5.6003,-5.5996,-5.598,-5.5971,-5.5971,-5.5971,-5.5981,-5.5999,-5.5996,-5.6003,-5.6003,-5.6003,-5.6003,-5.6012,-5.6003,-5.6003,-5.6012,-5.6001,-5.6024,-5.6109,-5.6187,-5.622,-5.6214,-5.6328,-5.6402,-5.6425,-5.6452,-5.6478,-5.6531,-5.6555,-5.658,-5.655,-5.6475,-5.6459,-5.6439,-5.6391,-5.6342,-5.6339,-5.6422,-5.6475,-5.6482,-5.6491,-5.6497,-5.6503,-5.6506,-5.6523,-5.652,-5.652,-5.6523,-5.6525,-5.6525,-5.6528,-5.656,-5.658,-5.6582,-5.6604,-5.6604,-5.6604,-5.6604,-5.6582,-5.6543,-5.627,-5.5704,-5.4908,-5.3951,-5.2897,-5.2117,-5.1511,-5.1433,-5.1394,-6.1447,-6.1099,-6.1099,-6.1099,-6.106,-6.0712,-6.0306,-5.988,-5.9493,-5.9048,-5.8662,-5.8584,-5.8584,-5.8458,-5.8139,-5.7888,-5.7753,-5.7424,-5.7153,-5.7211,-5.7192,-5.696,-5.667,-5.6573,-5.6255,-5.6139,-5.6023,-5.6167,-5.6351,-5.6274,-5.6003,-5.6003,-5.6003,-5.6003,-5.6003,-5.6003,-5.6003,-5.6003,-5.6003,-5.6003,-5.6003,-5.6003,-5.5984,-5.5984,-5.5984,-5.5995,-5.5987,-5.5989,-5.5981,-5.5971,-5.5971,-5.5999,-5.6008,-5.5996,-5.6003,-5.6012,-5.6043,-5.6043,-5.6001,-5.6012,-5.6001,-5.6029,-5.6043,-5.609,-5.6188,-5.63,-5.6368,-5.6383,-5.642,-5.6449,-5.6461,-5.65,-5.6533,-5.656,-5.6582,-5.6604,-5.6604,-5.6604,-5.6577,-5.658,-5.658,-5.6514,-5.6471,-5.6508,-5.6542,-5.6545,-5.6548,-5.6553,-5.6555,-5.6558,-5.6555,-5.6572,-5.6575,-5.6577,-5.6558,-5.6558,-5.6577,-5.6582,-5.6582,-5.6604,-5.6604,-5.6604,-5.6604,-5.6604,-5.6604,-5.6565,-5.6528,-5.5942,-5.5103,-5.4205,-5.329,-5.2487,-5.1707,-5.1433,-5.1394,-6.1099,-6.1099,-6.1099,-6.1099,-6.1079,-6.0886,-6.046,-5.9919,-5.959,-5.9048,-5.8372,-5.8023,-5.7888,-5.783,-5.7269,-5.6979,-5.6912,-5.6293,-5.6061,-5.6003,-5.6003,-5.6081,-5.61,-5.607,-5.607,-5.6003,-5.6003,-5.607,-5.6051,-5.6003,-5.6003,-5.6003,-5.6003,-5.6003,-5.6003,-5.6003,-5.6003,-5.6003,-5.6003,-5.5877,-5.5741,-5.5896,-5.5838,-5.581,-5.5849,-5.6014,-5.5998,-5.5998,-5.5971,-5.5961,-5.598,-5.5998,-5.6007,-5.6005,-5.6003,-5.6001,-5.604,-5.6083,-5.6059,-5.6059,-5.6032,-5.6064,-5.6124,-5.6213,-5.6314,-5.6435,-5.6484,-5.6473,-5.6471,-5.6491,-5.6506,-5.6558,-5.6582,-5.6584,-5.6604,-5.6604,-5.6604,-5.6604,-5.6604,-5.6604,-5.6604,-5.6604,-5.6575,-5.6599,-5.6604,-5.6604,-5.6604,-5.6604,-5.6604,-5.6584,-5.6584,-5.6599,-5.6602,-5.6582,-5.6584,-5.6604,-5.6604,-5.6604,-5.6604,-5.6604,-5.6604,-5.6604,-5.6604,-5.6604,-5.6604,-5.6604,-5.6567,-5.5962,-5.5298,-5.4361,-5.3444,-5.2605,-5.1941,-5.1609,-5.1394,-6.1099,-6.1099,-6.1099,-6.1099,-6.1041,-6.0286,-5.9977,-5.9841,-5.9106,-5.8333,-5.7482,-5.6728,-5.6515,-5.6283,-5.6388,-5.6233,-5.6128,-5.6031,-5.6012,-5.6012,-5.6003,-5.6003,-5.6003,-5.6003,-5.6003,-5.6003,-5.6003,-5.6003,-5.6003,-5.6003,-5.6003,-5.6003,-5.6003,-5.6003,-5.61,-5.6235,-5.6012,-5.5915,-5.5818,-5.5528,-5.5374,-5.547,-5.5625,-5.5296,-5.5625,-5.6003,-5.6003,-5.5995,-5.5995,-5.5977,-5.6003,-5.6012,-5.602,-5.6026,-5.6035,-5.6051,-5.6102,-5.6132,-5.6132,-5.6153,-5.6187,-5.6226,-5.6275,-5.6334,-5.6401,-5.6457,-5.6498,-5.6482,-5.6494,-5.6503,-5.6531,-5.6558,-5.6604,-5.6604,-5.6604,-5.6604,-5.6604,-5.6604,-5.6604,-5.6604,-5.6604,-5.6604,-5.6604,-5.6604,-5.6604,-5.6604,-5.6604,-5.6604,-5.6604,-5.6604,-5.6604,-5.6604,-5.6604,-5.6604,-5.6604,-5.6604,-5.6604,-5.6604,-5.6604,-5.6604,-5.6604,-5.6604,-5.6606,-5.6604,-5.6604,-5.6604,-5.6584,-5.6235,-5.563,-5.4537,-5.362,-5.2858,-5.2058,-5.1511,-5.1394,-6.1164,-6.1164,-6.1183,-6.1146,-6.1079,-6.077,-6.0364,-5.9899,-5.9532,-5.8584,-5.7299,-5.6932,-5.6504,-5.6181,-5.6054,-5.609,-5.6106,-5.6082,-5.6112,-5.6057,-5.6029,-5.6012,-5.6003,-5.6023,-5.6003,-5.6003,-5.6003,-5.6003,-5.6003,-5.6003,-5.6003,-5.6003,-5.6051,-5.6409,-5.6583,-5.665,-5.6244,-5.5518,-5.5316,-5.5064,-5.5006,-5.5045,-5.5354,-5.5644,-5.5702,-5.5984,-5.6003,-5.6003,-5.6003,-5.6001,-5.6024,-5.6048,-5.6064,-5.6094,-5.6117,-5.6132,-5.6207,-5.6251,-5.6251,-5.6263,-5.6288,-5.6329,-5.6363,-5.6409,-5.6441,-5.6478,-5.6488,-5.6497,-5.6503,-5.6511,-5.658,-5.6602,-5.6604,-5.6604,-5.6604,-5.6604,-5.6604,-5.6604,-5.6604,-5.6604,-5.6604,-5.6604,-5.6604,-5.6604,-5.6604,-5.6604,-5.6604,-5.6604,-5.6604,-5.6545,-5.6526,-5.6411,-5.6372,-5.643,-5.6411,-5.6508,-5.6565,-5.6526,-5.6487,-5.6292,-5.6174,-5.6586,-5.6586,-5.6606,-5.6604,-5.6604,-5.6604,-5.6604,-5.6001,-5.4966,-5.4049,-5.3229,-5.2409,-5.1492,-5.1394,-6.121,-6.1227,-6.1214,-6.1189,-6.1137,-6.1099,-6.0789,-6.0325,-6.0267,-5.929,-5.7673,-5.7228,-5.6673,-5.6241,-5.6133,-5.6381,-5.654,-5.6618,-5.675,-5.6772,-5.6737,-5.6471,-5.6311,-5.6139,-5.6003,-5.6003,-5.6003,-5.6003,-5.6003,-5.6003,-5.6003,-5.6078,-5.6344,-5.6856,-5.7086,-5.723,-5.6687,-5.5869,-5.5274,-5.4967,-5.489,-5.5191,-5.5147,-5.5689,-5.5841,-5.6026,-5.6018,-5.6018,-5.6043,-5.6067,-5.6087,-5.6112,-5.616,-5.6187,-5.6201,-5.6263,-5.6328,-5.6402,-5.6373,-5.6398,-5.6398,-5.6406,-5.6434,-5.6475,-5.6488,-5.6517,-5.6525,-5.6531,-5.6533,-5.6555,-5.6604,-5.6604,-5.6604,-5.6604,-5.6604,-5.6604,-5.6604,-5.6604,-5.6604,-5.6604,-5.6604,-5.6584,-5.6372,-5.6333,-5.6274,-5.6372,-5.6604,-5.6604,-5.6604,-5.6506,-5.6352,-5.6196,-5.604,-5.6098,-5.6177,-5.5786,-5.5474,-5.5806,-5.5728,-5.5532,-5.5552,-5.6059,-5.6294,-5.6079,-5.6157,-5.6489,-5.6604,-5.6586,-5.6098,-5.5396,-5.4342,-5.3132,-5.2234,-5.1394,-5.1394,-6.1245,-6.1306,-6.1313,-6.1256,-6.1208,-6.1137,-6.105,-6.0952,-6.0865,-5.9923,-5.8253,-5.6974,-5.6397,-5.6311,-5.6422,-5.6818,-5.7351,-5.7495,-5.7668,-5.787,-5.7424,-5.7308,-5.6856,-5.6407,-5.6003,-5.6003,-5.6003,-5.6003,-5.6012,-5.6037,-5.6029,-5.6524,-5.7137,-5.7579,-5.7403,-5.7355,-5.7365,-5.7225,-5.6288,-5.5567,-5.5118,-5.5484,-5.5423,-5.5544,-5.5865,-5.6117,-5.6087,-5.6102,-5.6117,-5.6124,-5.6175,-5.6207,-5.6226,-5.6288,-5.6306,-5.6331,-5.6378,-5.639,-5.6394,-5.6461,-5.6482,-5.6494,-5.6497,-5.6525,-5.6577,-5.6602,-5.658,-5.658,-5.6582,-5.6602,-5.6604,-5.6604,-5.6604,-5.6604,-5.6604,-5.6604,-5.6604,-5.6604,-5.6604,-5.6604,-5.6604,-5.6526,-5.6235,-5.6001,-5.5903,-5.6059,-5.6448,-5.6506,-5.6292,-5.6059,-5.5708,-5.5571,-5.5337,-5.5337,-5.522,-5.4615,-5.442,-5.481,-5.5181,-5.524,-5.5318,-5.5728,-5.5767,-5.5571,-5.5981,-5.6545,-5.6586,-5.6547,-5.5806,-5.5005,-5.3932,-5.2839,-5.196,-5.1394,-5.1394,-6.1375,-6.1434,-6.1439,-6.1407,-6.1389,-6.1286,-6.1233,-6.112,-6.0599,-5.9496,-5.8111,-5.7237,-5.7106,-5.7138,-5.7172,-5.7547,-5.8326,-5.8383,-5.8597,-5.7987,-5.7735,-5.7104,-5.6676,-5.6388,-5.6029,-5.6012,-5.6012,-5.601,-5.6012,-5.6075,-5.6548,-5.7128,-5.8221,-5.8817,-5.872,-5.861,-5.8597,-5.6982,-5.6258,-5.5799,-5.5093,-5.5312,-5.5551,-5.5702,-5.6109,-5.6239,-5.6181,-5.6201,-5.6226,-5.6226,-5.6286,-5.6319,-5.6324,-5.6393,-5.6429,-5.6414,-5.6452,-5.6469,-5.6517,-5.655,-5.6572,-5.6558,-5.656,-5.658,-5.6604,-5.6604,-5.6604,-5.6604,-5.6604,-5.6604,-5.6604,-5.6604,-5.6604,-5.6604,-5.6604,-5.6604,-5.6604,-5.6604,-5.6604,-5.6604,-5.6604,-5.6177,-5.5825,-5.5083,-5.4869,-5.4713,-5.4927,-5.5083,-5.4947,-5.481,-5.4556,-5.4537,-5.4439,-5.4439,-5.4264,-5.3756,-5.3951,-5.4556,-5.5123,-5.5552,-5.565,-5.5298,-5.5708,-5.5728,-5.6177,-5.6604,-5.6391,-5.6079,-5.5318,-5.4459,-5.3541,-5.2644,-5.1765,-5.1394,-5.1394,-6.1462,-6.1485,-6.1525,-6.134,-6.1075,-6.0948,-6.0896,-6.0734,-6.0034,-5.9174,-5.8518,-5.7954,-5.7814,-5.7902,-5.7858,-5.8412,-5.9347,-5.9387,-5.9608,-5.8788,-5.824,-5.7883,-5.7282,-5.6437,-5.6165,-5.6102,-5.6102,-5.6097,-5.6132,-5.6187,-5.6906,-5.8101,-5.9429,-5.9898,-5.9913,-5.9839,-5.9399,-5.8028,-5.7478,-5.6609,-5.6075,-5.5882,-5.5809,-5.6105,-5.631,-5.632,-5.6305,-5.6324,-5.6334,-5.6339,-5.6387,-5.6441,-5.6445,-5.6464,-5.6491,-5.6497,-5.6525,-5.6538,-5.6582,-5.6602,-5.6602,-5.6604,-5.6604,-5.6604,-5.6604,-5.6604,-5.6604,-5.6604,-5.6604,-5.6604,-5.6604,-5.6604,-5.6604,-5.6604,-5.6604,-5.6604,-5.6604,-5.6604,-5.6604,-5.6604,-5.6389,-5.5923,-5.524,-5.4322,-5.3639,-5.3463,-5.3307,-5.3502,-5.3756,-5.3756,-5.3639,-5.3541,-5.3541,-5.3541,-5.3385,-5.2995,-5.3385,-5.4246,-5.4578,-5.4791,-5.4576,-5.4068,-5.4986,-5.5901,-5.6155,-5.6274,-5.602,-5.5571,-5.481,-5.4147,-5.3424,-5.2507,-5.159,-5.1394,-5.1394,-6.149,-6.1519,-6.158,-6.1097,-6.037,-6.0311,-6.0153,-6.0011,-5.9282,-5.9362,-5.9947,-5.8277,-5.8256,-5.8756,-5.8226,-5.8869,-6.0105,-6.0309,-6.0387,-6.0462,-5.9406,-5.891,-5.8081,-5.7128,-5.6665,-5.6436,-5.6339,-5.6323,-5.6356,-5.7053,-5.7912,-5.8862,-6.0024,-6.0655,-6.0905,-6.0687,-6.0155,-5.9349,-5.8577,-5.7736,-5.7137,-5.673,-5.6453,-5.6468,-5.6394,-5.6394,-5.6405,-5.6401,-5.6414,-5.6426,-5.6448,-5.6478,-5.6488,-5.6481,-5.6486,-5.6511,-5.658,-5.6582,-5.6584,-5.6604,-5.6604,-5.6604,-5.6604,-5.6604,-5.6604,-5.6604,-5.6604,-5.6604,-5.6604,-5.6604,-5.6604,-5.6604,-5.6604,-5.6604,-5.6604,-5.6604,-5.6604,-5.6604,-5.6604,-5.6487,-5.6216,-5.565,-5.4654,-5.3717,-5.2722,-5.2546,-5.2487,-5.2644,-5.2917,-5.3229,-5.3034,-5.2663,-5.2644,-5.2663,-5.2448,-5.2273,-5.2663,-5.3465,-5.2956,-5.2975,-5.28,-5.3288,-5.4205,-5.5123,-5.5786,-5.5864,-5.5357,-5.4869,-5.4322,-5.3659,-5.2958,-5.237,-5.1433,-5.1394,-5.1394,-6.1591,-6.1634,-6.1666,-6.1523,-6.1199,-6.0571,-5.995,-5.9323,-5.9072,-5.9245,-5.9385,-5.8916,-5.9069,-5.992,-5.968,-6.0253,-6.0841,-6.1098,-6.0418,-6.0077,-5.981,-5.9046,-5.8237,-5.7444,-5.72,-5.6942,-5.6728,-5.6646,-5.7444,-5.8155,-5.9077,-6.0037,-6.074,-6.1359,-6.147,-6.1381,-6.0912,-6.0383,-5.9667,-5.89,-5.8081,-5.7492,-5.7076,-5.6745,-5.653,-5.653,-5.6508,-5.6527,-5.6514,-5.6494,-5.6525,-5.6533,-5.6484,-5.6533,-5.658,-5.656,-5.6604,-5.6604,-5.6604,-5.6604,-5.6604,-5.6604,-5.6604,-5.6604,-5.6604,-5.6604,-5.6604,-5.6604,-5.6604,-5.6604,-5.6604,-5.6604,-5.6604,-5.6604,-5.6604,-5.6604,-5.6604,-5.6604,-5.6584,-5.6196,-5.5923,-5.483,-5.3854,-5.2858,-5.198,-5.1765,-5.1746,-5.1941,-5.2117,-5.2448,-5.2507,-5.2117,-5.1984,-5.2062,-5.1904,-5.1707,-5.2117,-5.2448,-5.2097,-5.2156,-5.2897,-5.3463,-5.3834,-5.4322,-5.4947,-5.4869,-5.4459,-5.399,-5.3583,-5.2997,-5.2333,-5.1863,-5.1472,-5.1433,-5.1396,-6.1666,-6.1698,-6.1698,-6.1522,-6.1056,-6.0256,-5.97,-5.9553,-5.9605,-5.9768,-6.0039,-5.9395,-5.9573,-6.0115,-5.9633,-5.9809,-6.0993,-6.0944,-6.0531,-6.0182,-5.9761,-5.8858,-5.8074,-5.7432,-5.7116,-5.6963,-5.6905,-5.6843,-5.7946,-5.9315,-6.0336,-6.0408,-6.1291,-6.162,-6.1676,-6.1596,-6.1403,-6.0954,-6.0429,-5.9768,-5.9026,-5.8187,-5.7484,-5.7153,-5.6879,-5.6662,-5.6643,-5.6643,-5.658,-5.6555,-5.6584,-5.6563,-5.6536,-5.6582,-5.6604,-5.6604,-5.6604,-5.6604,-5.6604,-5.6604,-5.6604,-5.6604,-5.6604,-5.6604,-5.6604,-5.6604,-5.6604,-5.6604,-5.6604,-5.6604,-5.6604,-5.6604,-5.6604,-5.6604,-5.6604,-5.6604,-5.6604,-5.6604,-5.6294,-5.5884,-5.5044,-5.3912,-5.2897,-5.1921,-5.1394,-5.1472,-5.1494,-5.1574,-5.1652,-5.1767,-5.1863,-5.1668,-5.1574,-5.1538,-5.1398,-5.1396,-5.171,-5.1982,-5.1882,-5.2136,-5.2995,-5.3327,-5.3405,-5.3698,-5.4088,-5.3873,-5.358,-5.3231,-5.2802,-5.2257,-5.1929,-5.1657,-5.1441,-5.1418,-5.14,-6.1581,-6.1562,-6.1522,-6.0959,-6.0237,-5.9475,-5.959,-6.0354,-6.0315,-6.0842,-6.1174,-5.9941,-5.9729,-6.008,-5.9178,-5.9178,-5.9983,-6.0271,-6.0229,-6.0217,-5.9546,-5.8744,-5.8083,-5.7187,-5.7169,-5.687,-5.6775,-5.7069,-5.8158,-5.9471,-6.0444,-6.0529,-6.1271,-6.1698,-6.1698,-6.1698,-6.1581,-6.1425,-6.0978,-6.0393,-5.9924,-5.8968,-5.7953,-5.7777,-5.7289,-5.6779,-5.674,-5.6682,-5.6604,-5.6604,-5.6604,-5.6584,-5.6584,-5.6584,-5.6604,-5.6604,-5.6604,-5.6604,-5.6604,-5.6604,-5.6604,-5.6604,-5.6604,-5.6604,-5.6604,-5.6604,-5.6604,-5.6604,-5.6604,-5.6604,-5.6604,-5.6604,-5.6604,-5.6604,-5.6604,-5.6604,-5.6604,-5.6352,-5.5786,-5.524,-5.4322,-5.3249,-5.247,-5.1591,-5.1402,-5.1398,-5.14,-5.1384,-5.1464,-5.1462,-5.152,-5.1498,-5.1405,-5.1408,-5.1384,-5.1402,-5.1402,-5.1498,-5.1572,-5.1629,-5.2136,-5.2526,-5.2878,-5.2975,-5.3034,-5.2995,-5.2761,-5.2433,-5.2163,-5.1834,-5.1545,-5.1471,-5.1391,-5.1387,-5.1385,-6.0705,-6.0646,-6.0,-5.9592,-5.9417,-5.918,-5.9592,-6.0373,-6.0393,-6.0861,-6.1366,-6.0627,-6.0061,-5.9905,-5.9007,-5.8929,-5.9222,-5.9417,-5.9397,-5.9378,-5.9046,-5.8712,-5.8519,-5.7582,-5.7406,-5.7289,-5.7231,-5.7406,-5.8656,-5.9788,-6.0744,-6.131,-6.1698,-6.1698,-6.1698,-6.1698,-6.1698,-6.1659,-6.1444,-6.0881,-6.0256,-6.008,-5.9553,-5.8773,-5.7992,-5.7426,-5.7231,-5.686,-5.6721,-5.6604,-5.6604,-5.6604,-5.6604,-5.6604,-5.6604,-5.6604,-5.6604,-5.6604,-5.6604,-5.6604,-5.6604,-5.6604,-5.6604,-5.6604,-5.6604,-5.6604,-5.6604,-5.6604,-5.6604,-5.6604,-5.6604,-5.6604,-5.6604,-5.6604,-5.6604,-5.6604,-5.6604,-5.5981,-5.5337,-5.448,-5.3602,-5.2804,-5.2042,-5.1695,-5.1464,-5.1389,-5.1393,-5.1434,-5.161,-5.1688,-5.1865,-5.1805,-5.1473,-5.1415,-5.1409,-5.1465,-5.1483,-5.1556,-5.167,-5.157,-5.1492,-5.1943,-5.2472,-5.2021,-5.1863,-5.2042,-5.2085,-5.1794,-5.1504,-5.1393,-5.1395,-5.1398,-5.1399,-5.1396,-5.1396,-5.9827,-5.9749,-5.9297,-5.9122,-5.9122,-5.9122,-5.9592,-6.0237,-6.0002,-6.0315,-6.092,-6.0256,-5.9651,-5.9222,-5.8363,-5.8343,-5.846,-5.8519,-5.8519,-5.8519,-5.8499,-5.8187,-5.7914,-5.7601,-5.727,-5.7113,-5.7367,-5.7875,-5.9007,-5.9963,-6.0803,-6.1542,-6.1679,-6.1698,-6.1698,-6.1698,-6.1698,-6.1698,-6.1698,-6.1232,-6.0529,-6.0334,-5.9944,-5.9104,-5.8363,-5.7797,-5.7211,-5.6821,-5.6721,-5.6604,-5.6604,-5.6604,-5.6604,-5.6604,-5.6604,-5.6604,-5.6604,-5.6604,-5.6604,-5.6604,-5.6604,-5.6604,-5.6604,-5.6604,-5.6604,-5.6604,-5.6604,-5.6604,-5.6604,-5.6604,-5.6604,-5.6604,-5.6604,-5.6604,-5.6604,-5.6604,-5.6374,-5.5888,-5.5129,-5.4254,-5.3377,-5.2542,-5.2036,-5.2133,-5.1999,-5.2253,-5.2121,-5.2338,-5.2377,-5.2202,-5.2301,-5.2242,-5.2007,-5.1574,-5.1391,-5.1506,-5.1644,-5.1716,-5.1925,-5.2239,-5.2436,-5.2163,-5.2025,-5.1872,-5.1659,-5.1506,-5.1469,-5.1391,-5.1396,-5.1399,-5.1401,-5.1402,-5.1387,-5.1387,-5.1387,-5.8868,-5.879,-5.8753,-5.8751,-5.877,-5.8751,-5.9202,-5.9788,-5.928,-5.9339,-5.9866,-5.9241,-5.848,-5.7777,-5.7035,-5.727,-5.7465,-5.7641,-5.7641,-5.7816,-5.7719,-5.766,-5.7309,-5.6801,-5.6779,-5.6938,-5.7172,-5.7894,-5.8773,-5.9651,-6.0451,-6.1347,-6.1659,-6.1698,-6.1698,-6.1698,-6.1698,-6.1698,-6.1601,-6.1291,-6.0842,-6.0412,-5.9866,-5.9104,-5.8265,-5.7484,-5.6977,-5.6643,-5.6643,-5.6604,-5.6604,-5.6604,-5.6604,-5.6604,-5.6604,-5.6604,-5.6604,-5.6604,-5.6604,-5.6604,-5.6604,-5.6604,-5.6604,-5.6604,-5.6604,-5.6604,-5.6604,-5.6604,-5.6604,-5.6604,-5.6604,-5.6604,-5.6604,-5.6604,-5.6604,-5.6604,-5.6257,-5.5736,-5.4841,-5.3985,-5.313,-5.2276,-5.2121,-5.2238,-5.2454,-5.2748,-5.3139,-5.3532,-5.367,-5.3338,-5.3202,-5.3046,-5.2811,-5.232,-5.1922,-5.1922,-5.2236,-5.2426,-5.2715,-5.3125,-5.3165,-5.2326,-5.1919,-5.2098,-5.1884,-5.1513,-5.1397,-5.1398,-5.1402,-5.1384,-5.1385,-5.1387,-5.1387,-5.1387,-5.1387,-5.768,-5.7074,-5.7094,-5.7111,-5.7111,-5.7113,-5.7543,-5.8207,-5.8168,-5.8168,-5.8324,-5.8246,-5.7894,-5.7758,-5.6957,-5.6821,-5.6938,-5.6977,-5.7367,-5.768,-5.7211,-5.7231,-5.7172,-5.676,-5.6643,-5.674,-5.6918,-5.7328,-5.8324,-5.9085,-5.9827,-6.0705,-6.1522,-6.1679,-6.1679,-6.1659,-6.1601,-6.164,-6.1581,-6.133,-6.1213,-6.0686,-5.9905,-5.9104,-5.8265,-5.7855,-5.7445,-5.6899,-5.6701,-5.6604,-5.6604,-5.6604,-5.6604,-5.6604,-5.6604,-5.6604,-5.6604,-5.6604,-5.6604,-5.6604,-5.6604,-5.6604,-5.6604,-5.6604,-5.6604,-5.6604,-5.6604,-5.6604,-5.6604,-5.6604,-5.6604,-5.6604,-5.6604,-5.6604,-5.6604,-5.6604,-5.643,-5.5425,-5.4397,-5.358,-5.2763,-5.2102,-5.1634,-5.1773,-5.1911,-5.2283,-5.2811,-5.3223,-5.3711,-5.3848,-5.4043,-5.3945,-5.373,-5.3671,-5.3532,-5.3042,-5.314,-5.3312,-5.3289,-5.327,-5.286,-5.1904,-5.1672,-5.2104,-5.1869,-5.1458,-5.14,-5.1402,-5.1384,-5.1386,-5.1386,-5.1387,-5.1387,-5.1387,-5.1387]},{"header":{"parameterUnit":"m.s-1","parameterCategory":1,"la1":31.0,"la2":29.5877,"lo1":-88.7671,"lo2":-86.6584,"dy":0.0162,"dx":0.0185,"nx":115,"ny":88,"refTime":"2024-06-27T18:00:00:Z","depth":0,"parameterNumber":3,"parameterNumberName":"V-component_of_WINDS"},"data":[0.0,0.0,0.0,0.0,0.0,0.0,0.0,0.0,0.0,0.0,0.0,0.0,0.0,0.0,0.0,0.0,0.0,0.0,0.0,0.0,0.0,0.0,0.0,0.0,0.0,0.0,0.0,0.0,0.0,0.0,0.0,0.0,0.0,0.0,0.0,0.0,0.0,0.0,0.0,0.0,0.0,0.0,0.0,0.0,0.0,0.0,0.0,0.0,0.0,0.0,0.0,0.0,0.0,0.0,0.0,0.0,0.0,0.0,0.0,0.0,0.0,0.0,0.0,0.0,0.0,0.0,0.0,0.0,0.0,0.0,0.0,0.0,0.0,0.0,0.0,0.0,0.0,0.0,0.0,0.0,0.0,0.0,0.0,0.0,0.0,0.0,0.0,0.0,0.0,0.0,0.0,0.0,0.0,0.0,0.0,0.0,0.0,0.0,0.0,0.0,0.0,0.0,0.0,0.0,0.0,0.0,0.0,0.0,0.0,0.0,0.0,0.0,0.0,0.0,0.0,0.0,0.0,0.0,0.0,0.0,0.0,0.0,0.0,0.0,0.0,0.0,0.0,0.0,0.0,0.0,0.0,0.0,0.0,0.0,0.0,0.0,0.0,0.0,0.0,0.0,0.0,0.0,0.0,0.0,0.0,0.0,0.0,0.0,0.0,0.0,0.0,0.0,0.0,0.0,0.0,0.0,0.0,0.0,0.0,0.0,0.0,0.0,0.0,0.0,0.0,0.0,0.0,0.0,0.0,0.0,0.0,0.0,0.0,0.0,0.0,0.0,0.0,0.0,0.0,0.0,0.0,0.0,0.0,0.0,0.0,0.0,0.0,0.0,0.0,0.0,0.0,0.0,0.0,0.0,0.0,0.0,0.0,0.0,0.0,0.0,0.0,0.0,0.0,0.0,0.0,0.0,0.0,0.0,0.0,0.0,0.0,0.0,0.0,0.0,0.0,0.0,0.0,0.0,0.0,0.0,0.0,0.0,0.0,0.0,0.0,0.0,0.0,0.0,0.0,0.0,0.0,0.0,0.0,0.0,0.0,0.0,0.0,0.0,0.0,0.0,0.0,0.0,0.0,0.0,0.0,0.0,0.0,0.0,0.0,0.0,0.0,0.0,0.0,0.0,0.0,0.0,0.0,0.0,0.0,0.0,0.0,0.0,0.0,0.0,0.0,0.0,0.0,0.0,0.0,0.0,0.0,0.0,0.0,0.0,0.0,0.0,0.0,0.0,0.0,0.0,0.0,0.0,0.0,0.0,0.0,0.0,0.0,0.0,0.0,0.0,0.0,0.0,0.0,0.0,0.0,0.0,0.0,0.0,0.0,0.0,0.0,0.0,0.0,0.0,0.0,0.0,0.0,0.0,0.0,0.0,0.0,0.0,0.0,0.0,0.0,0.0,0.0,0.0,0.0,0.0,0.0,0.0,0.0,0.0,0.0,0.0,0.0,0.0,0.0,0.0,0.0,0.0,0.0,0.0,0.0,0.0,0.0,0.0,0.0,0.0,0.0,0.0,0.0,0.0,0.0,0.0,0.0,0.0,0.0,0.0,0.0,0.0,0.0,0.0,0.0,0.0,0.0,0.0,0.0,0.0,0.0,0.0,0.0,0.0,0.0,0.0,0.0,0.0,0.0,0.0,0.0,0.0,0.0,0.0,0.0,0.0,0.0,0.0,0.0,0.0,0.0,0.0,0.0,0.0,0.0,0.0,0.0,0.0,0.0,0.0,0.0,0.0,0.0,0.0,0.0,0.0,0.0,0.0,0.0,0.0,0.0,0.0,0.0,0.0,0.0,0.0,0.0,0.0,0.0,0.0,0.0,0.0,0.0,0.0,0.0,0.0,0.0,0.0,0.0,0.0,0.0,0.0,0.0,0.0,0.0,0.0,0.0,0.0,0.0,0.0,0.0,0.0,0.0,0.0,0.0,0.0,0.0,0.0,0.0,0.0,0.0,0.0,0.0,0.0,0.0,0.0,0.0,0.0,0.0,0.0,0.0,0.0,0.0,0.0,0.0,0.0,0.0,0.0,0.0,0.0,0.0,0.0,0.0,0.0,0.0,0.0,0.0,0.0,0.0,0.0,0.0,0.0,0.0,0.0,0.0,0.0,0.0,0.0,0.0,0.0,0.0,0.0,0.0,0.0,0.0,0.0,0.0,0.0,0.0,0.0,0.0,0.0,0.0,0.0,0.0,0.0,0.0,0.0,0.0,0.0,0.0,0.0,0.0,0.0,0.0,0.0,0.0,0.0,0.0,0.0,0.0,0.0,0.0,0.0,0.0,0.0,0.0,0.0,0.0,0.0,0.0,0.0,0.0,0.0,0.0,0.0,0.0,0.0,0.0,0.0,0.0,0.0,0.0,0.0,0.0,0.0,0.0,0.0,0.0,0.0,0.0,0.0,0.0,0.0,0.0,0.0,0.0,0.0,0.0,0.0,0.0,0.0,0.0,0.0,0.0,0.0,0.0,0.0,0.0,0.0,0.0,0.0,0.0,0.0,0.0,0.0,0.0,0.0,0.0,0.0,0.0,0.0,0.0,0.0,0.0,0.0,0.0,0.0,0.0,0.0,0.0,0.0,0.0,0.0,0.0,0.0,0.0,0.0,0.0,0.0,0.0,0.0,0.0,0.0,0.0,0.0,0.0,0.0,0.0,0.0,0.0,0.0,0.0,0.0,0.0,0.0,0.0,0.0,0.0,0.0,0.0,0.0,0.0,0.0,0.0,0.0,0.0,0.0,0.0,0.0,0.0,0.0,0.0,0.0,0.0,0.0,0.0,0.0,0.0,0.0,0.0,0.0,0.0,0.0,0.0,0.0,0.0,0.0,0.0,0.0,0.0,0.0,0.0,0.0,0.0,0.0,0.0,0.0,0.0,0.0,0.0,0.0,0.0,0.0,0.0,0.0,0.0,0.0,0.0,0.0,0.0,0.0,0.0,0.0,0.0,0.0,0.0,0.0,0.0,0.0,0.0,0.0,0.0,0.0,0.0,0.0,0.0,0.0,0.0,0.0,0.0,0.0,0.0,0.0,0.0,0.0,0.0,0.0,0.0,0.0,0.0,0.0,0.0,0.0,0.0,0.0,0.0,0.0,0.0,0.0,0.0,0.0,0.0,0.0,0.0,0.0,0.0,0.0,0.0,0.0,0.0,0.0,0.0,0.0,0.0,0.0,0.0,0.0,0.0,0.0,0.0,0.0,0.0,0.0,0.0,0.0,0.0,0.0,0.0,0.0,0.0,0.0,0.0,0.0,0.0,0.0,0.0,0.0,0.0,0.0,0.0,0.0,0.0,0.0,0.0,0.0,0.0,0.0,0.0,0.0,0.0,0.0,0.0,0.0,0.0,0.0,0.0,0.0,0.0,0.0,0.0,0.0,0.0,0.0,0.0,0.0,0.0,0.0,0.0,0.0,0.0,0.0,0.0,0.0,0.0,0.0,0.0,0.0,0.0,0.0,0.0,0.0,0.0,0.0,0.0,0.0,0.0,0.0,0.0,0.0,0.0,0.0,0.0,0.0,0.0,0.0,0.0,0.0,0.0,0.0,0.0,0.0,0.0,0.0,0.0,0.0,0.0,0.0,0.0,0.0,0.0,0.0,0.0,0.0,0.0,0.0,0.0,0.0,0.0,0.0,0.0,0.0,0.0,0.0,0.0,0.0,0.0,0.0,0.0,0.0,0.0,0.0,0.0,0.0,0.0,0.0,0.0,0.0,0.0,0.0,0.0,0.0,0.0,0.0,0.0,0.0,0.0,0.0,0.0,0.0,0.0,0.0,0.0,0.0,0.0,0.0,0.0,0.0,0.0,0.0,0.0,0.0,0.0,0.0,0.0,0.0,0.0,0.0,0.0,0.0,0.0,0.0,0.0,0.0,0.0,0.0,0.0,0.0,0.0,0.0,0.0,0.0,0.0,0.0,0.0,0.0,0.0,0.0,0.0,0.0,0.0,0.0,0.0,0.0,0.0,0.0,0.0,0.0,0.0,0.0,0.0,0.0,0.0,0.0,0.0,0.0,0.0,0.0,0.0,0.0,0.0,0.0,0.0,0.0,0.0,0.0,0.0,0.0,0.0,0.0,0.0,0.0,0.0,0.0,0.0,0.0,0.0,0.0,0.0,0.0,0.0,0.0,0.0,0.0,0.0,0.0,0.0,0.0,0.0,0.0,0.0,0.0,0.0,0.0,0.0,0.0,0.0,0.0,0.0,0.0,0.0,0.0,0.0,0.0,0.0,0.0,0.0,0.0,0.0,0.0,0.0,0.0,0.0,0.0,0.0,0.0,0.2197,0.0,0.0,0.0,0.0,0.0,0.0,0.0,0.0,0.0,0.0,0.0,0.0,0.0,0.0,0.0,0.0,0.0,0.0,0.0,0.0,0.0,0.0,0.0,0.0,0.0,0.0,0.0,0.0,0.0,0.0,0.0,0.0,0.0,0.0,0.0,0.0,0.0,0.0,0.0,0.0,0.0,0.0,0.0,0.0,0.0,0.0,0.0,0.0,0.0,0.0,0.0,0.0,0.0,0.0,0.0,0.0,0.0,0.0,0.0,0.0,0.0,0.0,0.0,0.0,0.0,0.0,0.0,0.0,0.0,0.0,0.0,0.0,0.0,0.0,0.0,0.0,0.0,0.0,0.0,0.0,0.0,0.0,0.0,0.0,0.0,0.0,0.0,0.0,0.0,0.0,0.0,0.0,0.0,0.0,0.0,0.0,0.0,0.0,0.0,0.0,0.0,0.0,0.0,0.0,0.0,0.0,0.0,0.0,0.0,0.0,0.25,0.2607,0.24,0.2323,0.237,0.0,0.0,0.0,0.0,0.0,0.0,0.0,0.0,0.0,0.0,0.0,0.0,0.0,0.0,0.0,0.0,0.0,0.0,0.0,0.0,0.0,0.0,0.0,0.0,0.0,0.0,0.0,0.0,0.0,0.0,0.0,0.0,0.0,0.0,0.0,0.0,0.0,0.0,0.0,0.0,0.0,0.0,0.0,0.0,0.0,0.0,0.0,0.0,0.0,0.0,0.0,0.0,0.0,0.0,0.0,0.0,0.0,0.0,0.0,0.0,0.0,0.0,0.0,0.0,0.0,0.0,0.0,0.0,0.0,0.0,0.0,0.0,0.0,0.0,0.0,0.0,0.0,0.0,0.0,0.0,0.0,0.0,0.0,0.0,0.0,0.0,0.0,0.0,0.0,0.0,0.0,0.0,0.0,0.0,0.0,0.0,0.0,0.0,0.0,0.0,0.0,0.0,0.0,0.0,0.0,0.0,0.0,0.0,0.0,0.0,0.0,0.0,0.2384,0.2336,0.2494,0.0,0.0,0.0,0.0,0.0,0.0,0.0,0.0,0.0,0.0,0.0,0.0,0.0,0.0,0.0,0.0,0.0,0.0,0.0,0.0,0.0,0.0,0.0,0.0,0.0,0.0,0.0,0.0,0.0,0.0,0.0,0.0,0.0,0.0,0.0,0.0,0.0,0.0,0.0,0.0,0.0,0.0,0.0,0.0,0.0,0.0,0.0,0.0,0.0,0.0,0.0,0.0,0.0,0.0,0.0,0.0,0.0,0.0,0.0,0.0,0.0,0.0,0.0,0.0,0.0,0.0,0.0,0.0,0.0,0.0,0.0,0.0,0.0,0.0,0.0,0.0,0.0,0.0,0.0,0.0,0.0,0.0,0.0,0.0,0.0,0.0,0.0,0.0,0.0,0.0,0.0,0.0,0.0,0.0,0.0,0.0,0.0,0.0,0.0,0.0,0.0,0.0,0.0,0.0,0.0,0.0,0.0,0.0,0.0,0.0,0.2469,0.2417,0.2403,0.0,0.2506,0.0,0.0,0.0,0.0,0.0,0.0,0.0,0.0,0.0,0.0,0.0,0.0,0.0,0.0,0.0,0.0,0.0,0.0,0.0,0.0,0.0,0.0,0.0,0.0,0.0,0.0,0.0,0.0,0.0,0.0,0.0,0.0,0.0,0.0,0.0,0.0,0.0,0.0,0.0,0.0,0.0,0.0,0.0,0.0,0.0,0.0,0.0,0.0,0.0,0.0,0.0,0.0,0.0,0.0,0.0,0.0,0.0,0.0,0.0,0.0,0.0,0.0,0.0,0.0,0.0,0.0,0.0,0.0,0.0,0.0,0.0,0.0,0.0,0.0,0.0,0.0,0.0,0.0,0.0,0.0,0.0,0.0,0.0,0.0,0.0,0.0,0.0,0.0,0.0,0.0,0.0,0.0,0.0,0.0,0.0,0.0,0.0,0.0,0.0,0.0,0.0,0.0,0.0,0.0,0.0,0.0,0.0,0.0,0.0,0.0,0.0,0.2117,0.2284,0.245,0.0,0.0,0.0,0.0,0.0,0.0,0.0,0.0,0.0,0.0,0.0,0.0,0.0,0.0,0.0,0.0,0.0,0.0,0.0,0.0,0.0,0.0,0.0,0.0,0.0,0.0,0.0,0.0,0.0,0.0,0.0,0.0,0.0,0.0,0.0,0.0,0.0,0.0,0.0,0.0,0.0,0.0,0.0,0.0,0.0,0.0,0.0,0.0,0.0,0.0,0.0,0.0,0.0,0.0,0.0,0.0,0.0,0.0,0.0,0.0,0.0,0.0,0.0,0.0,0.0,0.0,0.0,0.0,0.0,0.0,0.0,0.0,0.0,0.0,0.0,0.0,0.0,0.0,0.0,0.0,0.0,0.0,0.0,0.0,0.0,0.0,0.0,0.0,0.0,0.0,0.0,0.0,0.0,0.0,0.0,0.0,0.0,0.0,0.0,0.0,0.0,0.0,0.0,0.0,0.0,0.0,0.0,0.0,0.0,0.0,0.1545,0.0,0.1635,0.2139,0.2391,0.2342,0.0,0.0,0.0,0.0,0.0,0.0,0.0,0.0,0.0,0.0,0.0,0.0,0.0,0.0,0.0,0.0,0.0,0.0,0.0,0.0,0.0,0.0,0.0,0.0,0.0,0.0,0.0,0.0,0.0,0.0,0.0,0.0,0.0,0.0,0.0,0.0,0.0,0.0,0.0,0.0,0.0,0.0,0.0,0.0,0.0,0.0,0.0,0.0,0.0,0.0,0.0,0.0,0.0,0.0,0.0,0.0,0.0,0.0,0.0,0.0,0.0,0.0,0.0,0.0,0.0,0.0,0.0,0.0,0.0,0.0,0.0,0.0,0.0,0.0,0.0,0.0,0.0,0.0,0.0,0.0,0.0,0.0,0.0,0.0,0.0,0.0,0.0,0.0,0.0,0.0,0.0,0.0,0.0,0.0,0.0,0.0,0.0,0.0,0.0,0.0,0.0,0.0,0.0,0.0,0.0,0.0,0.0,0.0,0.0,0.0779,0.0935,0.092,0.1907,0.2226,0.0,0.0,0.0,0.0,0.0,0.0,0.0,0.0,0.0,0.0,0.0,0.0,0.0,0.0,0.0,0.0,0.0,0.0,0.0,0.0,0.0,0.0,0.0,0.0,0.0,0.0,0.0,0.0,0.0,0.0,0.0,0.0,0.0,0.0,0.0,0.0,0.0,0.0,0.0,0.0,0.0,0.0,0.0,0.0,0.0,0.0,0.0,0.0,0.0,0.0,0.0,0.0,0.0,0.0,0.0,0.0,0.0,0.0,0.0,0.0,0.0,0.0,0.0,0.0,0.0,0.0,0.0,0.0,0.0,0.0,0.0,0.0,0.0,0.0,0.0,0.0,0.0,0.0,0.0,0.0,0.0,0.0,0.0,0.0,0.0,0.0,0.0,0.0,0.0,0.0,0.0,0.0,0.0,0.0,0.0,0.0,0.0,0.0,0.0,0.0,0.0,0.0,0.0,0.0,0.0,0.0,0.0,0.0,0.0,0.0158,0.0391,0.0796,0.0,0.1464,0.1392,0.0,0.0,0.0,0.0,0.0,0.0,0.0,0.0,0.0,0.0,0.0,0.0,0.0,0.0,0.0,0.0,0.0,0.0,0.0,0.0,0.0,0.0,0.0,0.0,0.0,0.0,0.0,0.0,0.0,0.0,0.0,0.0,0.0,0.0,0.0,0.0,0.0,0.0,0.0,0.0,0.0,0.0,0.0,0.0,0.0,0.0,0.0,0.0,0.0,0.0,0.0,0.0,0.0,0.0,0.0,0.0,0.0,0.0,0.0,0.0,0.0,0.0,0.0,0.0,0.0,0.0,0.0,0.0,0.0,0.0,0.0,0.0,0.0,0.0,0.0,0.0,0.0,0.0,0.0,0.0,0.0,0.0,0.0,0.0,0.0,0.0,0.0,0.0,0.0,0.0,0.0,0.0,0.0,0.0,0.0,0.0,0.0,0.0,0.0,0.0,0.0,0.0,0.0,0.0,0.0,0.0,0.0,0.0,0.0,-0.0156,0.0,0.024,0.0,0.0838,0.0763,0.0,0.0,0.0,0.0,0.0,0.0,0.0,0.0,0.0,0.0,0.0,0.0,0.0,0.0,0.0,0.0,0.0,0.0,0.0,0.0,0.0,0.0,0.0,0.0,0.0,0.0,0.0,0.0,0.0,0.0,0.0,0.0,0.0,0.0,0.0,0.0,0.0,0.0,0.0,0.0,0.0,0.0,0.0,0.0,0.0,0.0,0.0,0.0,0.0,0.0,0.0,0.0,0.0,0.0,0.0,0.0,0.0,0.0,0.0,0.0,0.0,0.0,0.0,0.0,0.0,0.0,0.0,0.0,0.0,0.0,0.0,0.0,0.0,0.0,0.0,0.0,0.0,0.0,0.0,0.0,0.0,0.0,0.0,0.0,0.0,0.0,0.0,0.0,0.0,0.0,0.0,0.0,0.0,0.0,0.0,0.0,0.0,0.0,0.0,0.0,0.0,0.0,0.0,0.0,0.0,0.0,0.0,0.0,0.0,-0.0499,-0.0748,-0.0806,-0.076,0.0101,0.0433,0.0,0.0,0.0,0.0,0.0,0.0,0.0,0.0,0.0,0.0,0.0,0.0,0.0,0.0,0.0,0.0,0.0,0.0,0.0,0.0,0.0,0.0,0.0,0.0,0.0,0.0,0.0,0.0,0.0,0.0,0.0,0.0,0.0,0.0,0.0,0.0,0.0,0.0,0.0,0.0,0.0,0.0,0.0,0.0,0.0,0.0,0.0,0.0,0.0,0.0,0.0,0.0,0.0,0.0,0.0,0.0,0.0,0.0,0.0,0.0,0.0,0.0,0.0,0.0,0.0,0.0,0.0,0.0,0.0,0.0,0.0,0.0,0.0,0.0,0.0,0.0,0.0,0.0,0.0,0.0,0.0,0.0,0.0,0.0,0.0,0.0,0.0,0.0,0.0,0.0,0.0,0.0,0.0,0.0,0.0,0.0,0.0,0.0,0.0,0.0,0.0,0.0,0.0,0.0,0.0,0.0,0.0,0.0,0.0,-0.0583,-0.0771,-0.0957,-0.1046,-0.0474,-0.0235,0.0,0.0,0.0,0.0,0.0,0.0,0.0,0.0,0.0,0.0,0.0,0.0,0.0,0.0,0.0,0.0,0.0,0.0,0.0,0.0,0.0,0.0,0.0,0.0,0.0,0.0,0.0,0.0,0.0,0.0,0.0,0.0,0.0,0.0,0.0,0.0,0.0,0.0,0.0,0.0,0.0,0.0,0.0,0.0,0.0,0.0,0.0,0.0,0.0,0.0,0.0,0.0,0.0,0.0,0.0,0.0,0.0,0.0,0.0,0.0,0.0,0.0,0.0,0.0,0.0,0.0,0.0,0.0,0.0,0.0,0.0,0.0,0.0,0.0,0.0,0.0,0.0,0.0,0.0,0.0,0.0,0.0,0.0,0.0,0.0,0.0,0.0,0.0,0.0,0.0,0.0,0.0,0.0,0.0,0.0,0.0,0.0,0.0,0.0,0.0,0.0,0.0,0.0,0.0,0.0,0.0,0.0,0.0,0.0,-0.0945,-0.0985,-0.1108,-0.1318,-0.0823,-0.0605,-0.0688,0.0,0.0,0.0,0.0,0.0,0.0,0.0,0.0,0.0,0.0,0.0,0.0,0.0,0.0,0.0,0.0,0.0,0.0,0.0,0.0,0.0,0.0,0.0,0.0,0.0,0.0,0.0,0.0,0.0,0.0,0.0,0.0,0.0,0.0,0.0,0.0,0.0,0.0,0.0,0.0,0.0,0.0,0.0,0.0,0.0,0.0,0.0,0.0,0.0,0.0,0.0,0.0,0.0,0.0,0.0,0.0,0.0,0.0,0.0,0.0,0.0,0.0,0.0,0.0,0.0,0.0,0.0,0.0,0.0,0.0,0.0,0.0,0.0,0.0,0.0,0.0,0.0,0.0,0.0,0.0,0.0,0.0,0.0,0.0,0.0,0.0,0.0,0.0,0.0,0.0,0.0,0.0,0.0,0.0,0.0,0.0,0.0,0.0,0.0,0.0,0.0,0.0,0.0,0.0,0.0,0.0,0.0,0.0,-0.1571,-0.1353,-0.1317,-0.1502,-0.0906,-0.0701,0.0,0.0,0.0,0.0,0.0,0.0,0.0,0.0,0.0,0.0,0.0,0.0,0.0,0.0,0.0,0.0,0.0,0.0,0.0,0.0,0.0,0.0,0.0,0.0,0.0,0.0,0.0,0.0,0.0,0.0,0.0,0.0,0.0,0.0,0.0,0.0,0.0,0.0,0.0,0.0,0.0,0.0,0.0,0.0,0.0,0.0,0.0,0.0,0.0,0.0,0.0,0.0,0.0,0.0,0.0,0.0,0.0,0.0,0.0,0.0,0.0,0.0,0.0,0.0,0.0,0.0,0.0,0.0,0.0,0.0,0.0,0.0,0.0,0.0,0.0,0.0,0.0,0.0,0.0,0.0,0.0,0.0,0.0,0.0,0.0,0.0,0.0,0.0,0.0,0.0,0.0,0.0,0.0,0.0,0.0,0.0,0.0,0.0,0.0,0.0,0.0,0.0,0.0,0.0,0.0,0.0,0.0,0.0,0.0,-0.138,-0.1484,-0.158,-0.158,-0.099,-0.0664,0.0,0.0,0.0,0.0,0.0,0.0,0.0,0.0,0.0,0.0,0.0,0.0,0.0,0.0,0.0,0.0,0.0,0.0,0.0,0.0,0.0,0.0,0.0,0.0,0.0,0.0,0.0,0.0,0.0,0.0,0.0,0.0,0.0,0.0,0.0,0.0,0.0,0.0,0.0,0.0,0.0,0.0,0.0,0.0,0.0,0.0,0.0,0.0,0.0,0.0,0.0,0.0,0.0,0.0,0.0,0.0,0.0,0.0,0.0,0.0,0.0,0.0,0.0,0.0,0.0,0.0,0.0,0.0,0.0,0.0,0.0,0.0,0.0,0.0,0.0,0.0,0.0,0.0,0.0,0.0,0.0,0.0,0.0,0.0,0.0,0.0,0.0,0.0,0.0,0.0,0.0,0.0,0.0,0.0,0.0,0.0,0.0,0.0,0.0,0.0,0.0,0.0,0.0,0.0,0.0,0.0,0.0,0.0,-0.133,-0.1786,-0.1913,-0.1883,-0.17,-0.1122,-0.0797,0.0,0.0,0.0,0.0,0.0,0.0,0.0,0.0,0.0,0.0,0.0,0.0,0.0,0.0,0.0,0.0,0.0,0.0,0.0,0.0,0.0,0.0,0.0,0.0,0.0,0.0,0.0,0.0,0.0,0.0,0.0,0.0,0.0,0.0,0.0,0.0,0.0,0.0,0.0,0.0,0.0,0.0,0.0,0.0,0.0,0.0,0.0,0.0,0.0,0.0,0.0,0.0,0.0,0.0,0.0,0.0,0.0,0.0,0.0,0.0,0.0,0.0,0.0,0.0,0.0,0.0,0.0,0.0,0.0,0.0,0.0,0.0,0.0,0.0,0.0,0.0,0.0,0.0,0.0,0.0,0.0,0.0,0.0,0.0,0.0,0.0,0.0,0.0,0.0,0.0,0.0,0.0,0.0,0.0,0.0,0.0,0.0,0.0,0.0,0.0,0.0,0.0,0.0,0.0,0.0,0.0,0.0,0.0,-0.1763,-0.2594,-0.2569,-0.2388,-0.1978,-0.1379,-0.1043,0.0,0.0,0.0,0.0,0.0,0.0,0.0,0.0,0.0,0.0,0.0,0.0,0.0,0.0,0.0,0.0,0.0,0.0,0.0,0.0,0.0,0.0,0.0,0.0,0.0,0.0,0.0,0.0,0.0,0.0,0.0,0.0,0.0,0.0,0.0,0.0,0.0,0.0,0.0,0.0,0.0,0.0,0.0,0.0,0.0,0.0,0.0,0.0,0.0,0.0,0.0,0.0,0.0,0.0,0.0,0.0,0.0,0.0,0.0,0.0,0.0,0.0,0.0,0.0,0.0,0.0,0.0,0.0,0.0,0.0,0.0,0.0,0.0,0.0,0.0,0.0,0.0,0.0,0.0,0.0,0.0,0.0,0.0,0.0,0.0,0.0,0.0,0.0,0.0,0.0,0.0,0.0,0.0,0.0,0.0,0.0,0.0,0.0,0.0,0.0,0.0,0.0,0.0,0.0,0.0,0.0,0.0,0.0,-0.2734,-0.3436,-0.3914,-0.3809,-0.3075,-0.198,-0.1213,0.0,0.0,0.0,0.0,0.0,0.0,0.0,0.0,0.0,0.0,0.0,0.0,0.0,0.0,0.0,0.0,0.0,0.0,0.0,0.0,0.0,0.0,0.0,0.0,0.0,0.0,0.0,0.0,0.0,0.0,0.0,0.0,0.0,0.0,0.0,0.0,0.0,0.0,0.0,0.0,0.0,0.0,0.0,0.0,0.0,0.0,0.0,0.0,-0.0264,0.0,0.0,0.0,0.0,0.0,0.0,0.0,0.0,0.0,0.0,0.0,0.0,0.0,0.0,0.0,0.0,0.0,0.0,0.0,0.0,0.0,0.0,0.0,0.0,0.0,0.0,0.0,0.0,0.0,0.0,0.0,0.0,0.0,0.0,0.0,0.0,0.0,0.0,0.0,0.0,0.0,0.0,0.0,0.0,0.0,0.0,0.0,0.0,0.0,0.0,0.0,0.0,0.0,0.0,0.0,0.0,0.0,0.0,0.0,-0.3692,-0.4328,-0.4766,-0.4484,-0.3466,-0.2806,-0.1943,0.0,0.0,0.0,0.0,0.0,0.0,0.0,0.0,0.0,0.0,0.0,0.0,0.0,0.0,0.0,0.0,0.0,0.0,0.0,0.0,0.0,0.0,0.0,0.0,0.0,0.0,0.0,0.0,0.0,0.0,0.0,0.0,0.0,0.0,0.0,0.0,0.0,0.0,0.0,0.0,0.0,0.0,0.0,0.0,0.0,0.0,0.0,0.0,0.0,0.0,0.0,0.0,0.0,0.0,0.0,0.0,0.0,0.0,0.0,0.0,0.0,0.0,0.0,0.0,0.0,0.0,0.0,0.0,0.0,0.0,0.0,0.0,0.0,0.0,0.0,0.0,0.0,0.0,0.0,0.0,0.0,0.0,0.0,0.0,0.0,0.0,0.0,0.0,0.0,0.0,0.0,0.0,0.0,0.0,0.0,0.0,0.0,0.0,0.0,0.0,0.0,0.0,0.0,0.0,0.0,0.0,0.0,-0.3616,-0.4467,-0.5312,-0.5438,-0.4999,-0.3957,-0.3831,-0.2995,-0.1349,0.0,0.0,0.0,0.0,0.0,0.0,0.0,0.0,0.0,0.0,0.0,0.0,0.0,0.0,0.0,0.0,0.0,0.0,0.0,0.0,0.0,0.0,0.0,0.0,0.0,0.0,0.0,0.0,0.0,0.0,0.0,0.0,0.0,0.0,0.0,0.0,0.0,0.0,-0.0153,-0.0363,0.0,0.0,0.0,0.0,0.0,0.0,0.0,0.0,-0.0549,0.0,0.0,0.0,0.0,0.0,0.0,0.0,0.0,0.0,0.0,0.0,0.0,0.0,0.0,0.0,0.0,0.0,0.0,0.0,0.0,0.0,0.0,0.0,0.0,0.0,0.0,0.0,0.0,0.0,0.0,0.0,0.0,0.0,0.0,0.0,0.0,0.0,0.0,0.0,0.0,0.0,0.0,0.0,0.0,0.0,0.0,0.0,0.0,0.0,0.0,0.0,0.0,0.0,0.0,0.0,0.0,-0.2692,-0.3565,-0.4809,-0.6381,-0.6723,-0.6522,-0.581,-0.5273,-0.4042,-0.2078,0.0,0.0,0.0,0.0,0.0,0.0,0.0,0.0,0.0,0.0,0.0,0.0,0.0,0.0,0.0,0.0,0.0,0.0,0.0,0.0,0.0,0.0,0.0,0.0,0.0,0.0,0.0,0.0,0.0,0.0,0.0,0.0,0.0,0.0,0.0,0.0,0.0,0.0,0.0,-0.0683,-0.063,0.0,0.0,0.0,0.0,0.0,0.0,0.0,0.0,-0.0634,0.0,0.0,0.0,0.0,0.0,0.0,0.0,0.0,0.0,0.0,0.0,0.0,0.0,0.0,0.0,0.0,0.0,0.0,0.0,0.0,0.0,0.0,0.0,0.0,0.0,0.0,0.0,0.0,0.0,0.0,0.0,0.0,0.0,0.0,0.0,0.0,0.0,0.0,0.0,0.0,0.0,0.0,0.0,0.0,0.0,0.0,0.0,0.0,0.0,0.0,0.0,0.0,0.0,0.0,0.0,-0.3702,-0.5054,-0.621,-0.7125,-0.7278,-0.6936,-0.5997,-0.5542,-0.4318,0.0,0.0,0.0,0.0,0.0,0.0,0.0,0.0,0.0,0.0,0.0,0.0,0.0,0.0,0.0,0.0,0.0,0.0,0.0,0.0,0.0,0.0,0.0,0.0,0.0,0.0,0.0,0.0,0.0,0.0,0.0,0.0,0.0,0.0,0.0,0.0,0.0,0.0,0.0,0.0,-0.1044,-0.1033,-0.1513,0.0,0.0,0.0,0.0,0.0,0.0,-0.0668,-0.0612,0.0,0.0,0.0,0.0,0.0,0.0,0.0,0.0,0.0,0.0,0.0,0.0,0.0,0.0,0.0,0.0,0.0,0.0,0.0,0.0,0.0,0.0,0.0,0.0,0.0,0.0,0.0,0.0,0.0,0.0,0.0,0.0,0.0,0.0,0.0,0.0,0.0,0.0,0.0,0.0,0.0,0.0,0.0,0.0,0.0,0.0,0.0,0.0,0.0,0.0,0.0,0.0,0.0,0.0,0.0,-0.4715,-0.6245,-0.7266,-0.7627,-0.763,-0.7101,-0.6044,-0.5532,-0.4334,0.0,0.0,0.0,0.0,0.0,0.0,0.0,0.0,0.0,0.0,0.0,0.0,0.0,0.0,0.0,0.0,0.0,0.0,0.0,0.0,0.0,0.0,0.0,0.0,0.0,0.0,0.0,0.0,0.0,0.0,0.0,0.0,0.0,0.0,0.0,0.0,0.0,0.0,0.0,0.0,0.0,-0.1366,-0.1777,-0.1482,0.0,0.0,0.0,0.0,-0.0787,-0.085,0.0,0.0,0.0,0.0,0.0,0.0,0.0,0.0,0.0,0.0,0.0,0.0,0.0,0.0,0.0,0.0,0.0,0.0,0.0,0.0,0.0,0.0,0.0,0.0,0.0,0.0,0.0,0.0,0.0,0.0,0.0,0.0,0.0,0.0,0.0,0.0,0.0,0.0,0.0,0.0,0.0,0.0,0.0,0.0,0.0,0.0,0.0,0.0,0.0,0.0,0.0,0.0,0.0,0.0,0.0,0.0,-0.4657,-0.5639,-0.6736,-0.7908,-0.7877,-0.75,-0.6806,-0.5713,-0.4375,0.0,0.0,0.0,0.0,0.0,0.0,0.0,0.0,0.0,0.0,0.0,0.0,0.0,0.0,0.0,0.0,0.0,0.0,0.0,0.0,0.0,0.0,0.0,0.0,0.0,0.0,0.0,0.0,0.0,0.0,0.0,0.0,0.0,0.0,0.0,0.0,0.0,0.0,0.0,0.0,0.0,-0.1228,-0.1294,-0.1225,-0.1201,0.0,0.0,-0.1345,-0.1664,-0.1807,0.0,0.0,0.0,0.0,0.0,0.0,0.0,0.0,0.0,0.0,0.0,0.0,0.0,0.0,0.0,0.0,0.0,0.0,0.0,0.0,0.0,0.0,0.0,0.0,0.0,0.0,0.0,0.0,0.0,0.0,0.0,0.0,0.0,0.0,0.0,0.0,0.0,0.0,0.0,0.0,0.0,0.0,0.0,0.0,0.0,0.0,0.0,0.0,0.0,0.0,0.0,0.0,0.0,0.0,0.0,-0.3927,-0.5156,-0.6479,-0.7462,-0.8157,-0.8059,-0.7769,-0.7254,-0.6175,-0.4891,0.0,0.0,0.0,0.0,0.0,0.0,0.0,0.0,0.0,0.0,0.0,0.0,0.0,0.0,0.0,0.0,0.0,0.0,0.0,0.0,0.0,0.0,0.0,0.0,0.0,0.0,0.0,0.0,0.0,0.0,0.0,0.0,0.0,0.0,0.0,0.0,0.0,0.0,0.0,0.0,0.0,0.0,-0.2211,-0.2147,0.0,0.0,0.0,-0.1815,-0.2177,0.0,0.0,0.0,0.0,0.0,0.0,0.0,0.0,0.0,0.0,0.0,0.0,0.0,0.0,0.0,0.0,0.0,0.0,0.0,0.0,0.0,0.0,0.0,0.0,0.0,0.0,0.0,0.0,0.0,0.0,0.0,0.0,0.0,0.0,0.0,0.0,0.0,0.0,0.0,0.0,0.0,0.0,0.0,0.0,0.0,0.0,0.0,0.0,0.0,0.0,0.0,0.0,0.0,0.0,0.0,0.0,0.0,-0.551,-0.7127,-0.8058,-0.8208,-0.8202,-0.7929,-0.7482,-0.6405,0.0,0.0,0.0,0.0,0.0,0.0,0.0,0.0,0.0,0.0,0.0,0.0,0.0,0.0,0.0,0.0,0.0,0.0,0.0,0.0,0.0,0.0,0.0,0.0,0.0,0.0,0.0,-0.0094,0.0,0.0,0.0,0.0,0.0,0.0,0.0,0.0,0.0,0.0,0.0,0.0,0.0,0.0,-0.2943,-0.3083,-0.321,-0.3457,0.0,0.0,-0.2697,-0.2772,-0.28,-0.256,0.0,0.0,0.0,0.0,0.0,0.0,0.0,0.0,0.0,0.0,0.0,0.0,0.0,0.0,0.0,0.0,0.0,0.0,0.0,0.0,0.0,0.0,0.0,0.0,0.0,0.0,0.0,0.0,0.0,0.0,0.0,0.0,0.0,0.0,0.0,0.0,0.0,0.0,0.0,0.0,0.0,0.0,0.0,0.0,0.0,0.0,0.0,0.0,0.0,0.0,0.0,0.0,0.0,0.0,0.0,-0.5619,-0.7077,-0.7857,-0.8005,-0.8204,-0.8036,-0.7482,-0.6272,-0.4937,0.0,0.0,0.0,0.0,0.0,0.0,0.0,0.0,0.0,0.0,0.0,0.0,0.0,0.0,0.0,0.0,0.0,0.0,0.0,0.0,0.0,0.0,0.0,0.0,0.0,0.0,0.0,0.0,0.0,0.0,0.0,0.0,0.0,0.0,0.0,0.0,0.0,0.0,0.0,0.0,0.0,-0.2985,-0.3389,-0.4051,-0.4533,0.0,0.0,-0.4223,-0.3708,-0.3883,-0.3833,-0.3044,0.0,0.0,0.0,0.0,0.0,0.0,0.0,0.0,0.0,0.0,0.0,0.0,0.0,0.0,0.0,0.0,0.0,0.0,0.0,0.0,0.0,0.0,0.0,0.0,0.0,0.0,0.0,0.0,0.0,0.0,0.0,0.0,0.0,0.0,0.0,0.0,0.0,0.0,0.0,0.0,0.0,0.0,0.0,0.0,0.0,0.0,0.0,0.0,0.0,0.0,0.0,0.0,0.0,-0.5043,-0.5591,-0.7121,-0.8024,-0.8177,-0.8292,-0.817,-0.7812,-0.6831,-0.5769,0.0,0.0,0.0,0.0,0.0,0.0,0.0,0.0,0.0,0.0,0.0,0.0,0.0,0.0,0.0,0.0,0.0,0.0,0.0,0.0,0.0,0.0,0.0,0.0,0.0,0.0,0.0,0.0,-0.0945,-0.098,-0.0724,0.0,0.0,0.0,0.0,0.0,0.0,0.0,0.0,0.0,0.0,-0.4582,-0.4865,-0.5398,0.0,0.0,-0.5871,-0.5464,-0.5595,-0.5097,-0.4544,-0.4073,-0.3493,0.0,0.0,0.0,0.0,0.0,0.0,0.0,0.0,0.0,0.0,0.0,0.0,0.0,0.0,0.0,0.0,0.0,0.0,0.0,0.0,0.0,0.0,0.0,0.0,0.0,0.0,0.0,0.0,0.0,0.0,0.0,0.0,0.0,0.0,0.0,0.0,0.0,0.0,0.0,0.0,0.0,0.0,0.0,0.0,0.0,0.0,0.0,0.0,0.0,0.0,0.0,0.0,-0.5175,-0.5708,-0.722,-0.8136,-0.8381,-0.8344,-0.8167,-0.7995,-0.7234,-0.6369,0.0,0.0,0.0,0.0,0.0,0.0,0.0,0.0,0.0,0.0,0.0,0.0,0.0,0.0,0.0,0.0,0.0,0.0,0.0,0.0,0.0,0.0,0.0,0.0,0.0,0.0,0.0,0.0,-0.102,-0.1042,-0.087,0.0,0.0,0.0,0.0,0.0,0.0,0.0,0.0,0.0,0.0,-0.5876,-0.617,-0.6685,-0.7179,-0.7682,-0.7092,-0.6643,-0.6823,-0.6171,-0.551,-0.5033,0.0,0.0,0.0,0.0,0.0,0.0,0.0,0.0,0.0,0.0,0.0,0.0,0.0,0.0,0.0,0.0,0.0,0.0,0.0,0.0,0.0,0.0,0.0,0.0,0.0,0.0,0.0,0.0,0.0,0.0,0.0171,0.0,0.0,0.0,0.0,0.0,0.0,0.0,0.0,0.0,0.0,0.0,0.0,0.0,0.0,0.0,0.0,0.0,0.0,0.0,0.0,0.0,0.0,0.0,-0.5978,-0.7316,-0.8184,-0.8462,-0.8391,-0.8163,-0.7935,-0.7424,-0.665,-0.5457,0.0,0.0,0.0,0.0,0.0,0.0,0.0,0.0,0.0,0.0,0.0,0.0,0.0,0.0,0.0,0.0,0.0,0.0,0.0,0.0,0.0,0.0,0.0,0.0,0.0,0.0,-0.0116,-0.045,-0.0863,0.0,0.0,0.0,0.0,0.0,0.0,0.0,0.0,0.0,0.0,-0.5535,-0.6596,-0.7078,-0.7739,-0.8115,-0.811,-0.809,-0.7893,-0.7139,-0.7122,-0.6937,0.0,0.0,0.0,0.0,0.0,0.0,0.0,0.0,0.0,0.0,0.0,0.0,0.0,0.0,0.0,0.0,0.0,0.0,0.0,0.0,0.0,0.0,0.0,0.0,0.0,0.0,0.0,-0.1216,-0.1129,0.0,0.0,0.0,0.0,0.0,0.0,0.0,0.0,0.0,0.0,0.0,-0.3589,-0.4232,0.0,0.0,0.0,0.0,0.0,0.0,0.0,0.0,0.0,0.0,0.0,0.0,-0.5457,-0.6049,-0.7469,-0.8286,-0.8472,-0.8343,-0.8272,-0.816,-0.7821,-0.6908,-0.5458,0.0,0.0,0.0,0.0,0.0,0.0,0.0,0.0,0.0,0.0,0.0,0.0,0.0,0.0,0.0,0.0,0.0,0.0,0.0,0.0,0.0,0.0,0.0,0.0,0.0,-0.0718,0.0,0.0,0.0,0.0,0.0,0.0,0.0,0.0,0.0,0.0,0.0,-0.456,-0.561,-0.6437,-0.7267,-0.8139,-0.8355,-0.8483,0.0,0.0,0.0,0.0,0.0,0.0,0.0,0.0,0.0,0.0,0.0,0.0,0.0,0.0,-0.5022,-0.4074,-0.3623,-0.3384,-0.3401,0.0,0.0,0.0,0.0,0.0,0.0,0.0,0.0,0.0,0.0,0.0,0.0,0.0,0.0,-0.238,0.0,-0.2303,0.0,0.0,0.0,0.0,0.0,0.0,0.0,0.0,-0.437,-0.4858,-0.4797,-0.5291,-0.5396,0.0,-0.5125,-0.4644,0.0,0.0,0.0,0.0,0.0,0.0,0.0,0.0,-0.5606,-0.6191,-0.7616,-0.8438,-0.8621,-0.8448,-0.8343,-0.8237,-0.7852,-0.7122,-0.6,-0.5466,-0.4762,0.0,0.0,0.0,0.0,0.0,0.0,0.0,0.0,0.0,0.0,0.0,0.0,0.0,0.0,0.0,0.0,0.0,0.0,0.0,0.0,0.0,0.0,0.0,-0.1413,0.0,0.0,0.0,0.0,0.0,0.0,0.0,0.0,0.0,-0.3797,-0.4934,-0.6071,-0.6822,-0.7377,-0.7935,-0.8497,0.0,0.0,0.0,0.0,0.0,0.0,0.0,-0.7172,-0.7073,-0.6785,-0.6567,-0.6486,-0.6731,-0.691,-0.6765,0.0,0.0,-0.5792,-0.5283,-0.5027,-0.5044,-0.5062,-0.5087,-0.5073,-0.5306,-0.5594,0.0,0.0,0.0,0.0,0.0,0.0,0.0,0.0,-0.3291,-0.3356,0.0,-0.321,0.0,0.0,0.0,0.0,0.0,-0.3802,0.0,0.0,-0.5784,-0.6312,-0.6111,-0.6105,-0.6043,-0.5928,-0.5777,-0.5581,-0.5246,-0.4937,0.0,0.0,0.0,0.0,0.0,0.0,-0.5813,-0.647,-0.7816,-0.8635,-0.8854,-0.8635,-0.8371,-0.8089,-0.7646,-0.7292,-0.7002,-0.6541,-0.6018,-0.5392,-0.4276,0.0,0.0,0.0,0.0,0.0,0.0,0.0,0.0,0.0,0.0,0.0,0.0,0.0,0.0,0.0,0.0,0.0,0.0,0.0,0.0,-0.221,0.0,0.0,0.0,0.0,0.0,0.0,0.0,0.0,0.0,0.0,-0.477,-0.6353,-0.7644,-0.7836,0.0,0.0,0.0,0.0,-0.8068,-0.7971,-0.7934,-0.7994,-0.8113,-0.8605,-0.8878,-0.8672,0.0,0.0,-0.8441,-0.8536,-0.8456,-0.7533,-0.7863,-0.8077,-0.7362,-0.6803,-0.6468,-0.6455,-0.6396,-0.6295,-0.6327,-0.6716,-0.7064,-0.5915,0.0,0.0,0.0,0.0,-0.4651,-0.4763,-0.5147,-0.5032,-0.4909,-0.4836,-0.4735,0.0,0.0,0.0,0.0,0.0,0.0,-0.5186,-0.565,-0.6031,-0.6331,-0.6594,-0.6597,-0.6578,-0.6543,-0.6513,-0.6396,-0.6208,-0.6274,-0.551,-0.3903,0.0,0.0,0.0,0.0,-0.6386,-0.7132,-0.8119,-0.874,-0.8878,-0.8642,-0.8329,-0.8022,-0.7789,-0.7533,-0.7292,-0.7014,-0.6454,-0.5568,-0.516,0.0,0.0,0.0,0.0,0.0,0.0,0.0,0.0,0.0,0.0,0.0,0.0,0.0,0.0,0.0,0.0,0.0,0.0,0.0,-0.2319,-0.309,-0.3379,0.0,0.0,0.0,0.0,0.0,0.0,0.0,0.0,0.0,-0.6646,-0.7003,-0.7351,0.0,0.0,-0.7889,-0.793,-0.8275,-0.8625,-0.8885,0.0,0.0,0.0,-0.8687,-0.849,-0.8563,-0.8751,-0.8717,-0.8185,-0.8336,-0.8536,-0.8449,-0.8499,-0.8538,-0.8532,-0.8135,-0.7825,-0.7975,-0.7986,-0.8045,-0.823,-0.8412,-0.8492,-0.7032,-0.6372,-0.5947,-0.5815,-0.5845,-0.5776,-0.5928,-0.6255,-0.6139,-0.61,-0.6051,-0.5909,-0.5654,-0.5325,-0.5094,0.0,0.0,0.0,-0.5912,-0.6442,-0.6439,-0.6622,-0.6931,-0.6991,-0.6989,-0.6945,-0.6991,-0.695,-0.6831,-0.6845,-0.6211,-0.5038,0.0,0.0,-0.528,-0.6195,-0.6976,-0.7578,-0.8335,-0.8784,-0.8878,-0.8642,-0.837,-0.814,-0.7926,-0.7702,-0.7472,-0.7312,-0.6886,-0.6165,-0.5825,-0.5219,0.0,0.0,0.0,0.0,0.0,0.0,0.0,0.0,0.0,0.0,0.0,-0.1716,0.0,0.0,0.0,0.0,-0.2903,-0.3293,-0.3605,-0.4183,0.0,0.0,0.0,0.0,0.0,0.0,0.0,-0.6165,-0.7015,-0.7686,-0.7863,-0.7801,-0.7845,-0.8146,-0.8135,-0.804,-0.807,0.0,-0.8632,-0.8894,-0.8936,-0.9027,-0.9118,-0.8983,-0.8952,-0.9191,-0.8984,-0.8806,-0.8609,-0.8555,-0.8623,-0.8776,-0.8717,-0.866,-0.8811,-0.8575,-0.8432,-0.8701,-0.8818,-0.8969,-0.9116,-0.9212,-0.9307,-0.7809,-0.7635,-0.6755,-0.6439,-0.646,-0.6412,-0.6599,-0.6839,-0.6842,-0.6896,-0.6964,-0.6747,-0.6524,-0.6333,-0.5804,0.0,-0.621,-0.6274,-0.6615,-0.7051,-0.7054,-0.7054,-0.7213,-0.7266,-0.7269,-0.7226,-0.7282,-0.7285,-0.7224,-0.6853,-0.6573,-0.644,-0.6638,-0.6627,-0.6415,-0.706,-0.7516,-0.7802,-0.8367,-0.871,-0.8858,-0.8632,-0.8414,-0.8323,-0.7974,-0.7746,-0.7604,-0.7451,-0.7231,-0.6869,-0.6301,-0.5758,-0.5309,0.0,0.0,0.0,0.0,0.0,0.0,0.0,0.0,0.0,0.0,0.0,0.0,0.0,0.0,0.0,-0.4546,0.0,-0.5498,-0.5415,0.0,0.0,0.0,-0.5926,-0.6628,-0.7118,-0.754,-0.78,0.0,0.0,-0.8564,0.0,-0.8922,-0.9165,-0.9019,-0.8786,-0.8425,-0.8473,-0.8407,-0.853,-0.8581,-0.8721,-0.9062,-0.9436,-0.9779,-0.9996,-0.9761,-0.9398,-0.9277,-0.8975,-0.8733,-0.878,-0.8658,-0.8555,-0.8552,-0.8573,-0.855,-0.8714,-0.9004,-0.9198,-0.924,-0.9418,-0.9592,-0.7853,-0.7801,-0.7491,-0.7326,-0.7258,-0.7233,-0.7214,-0.7209,-0.7155,-0.7124,-0.6983,-0.6923,-0.6817,-0.6668,-0.6554,-0.6603,-0.6771,-0.6854,-0.6921,-0.7166,-0.7172,-0.7182,-0.721,-0.7184,-0.7233,-0.7293,-0.7323,-0.7369,-0.7426,-0.7347,-0.7296,-0.7283,-0.7372,-0.6968,-0.6216,-0.6882,-0.7465,-0.7896,-0.8115,-0.8398,-0.8699,-0.8577,-0.8414,-0.8327,-0.797,-0.7746,-0.7604,-0.7455,-0.718,-0.678,-0.6576,-0.6157,-0.5421,-0.449,0.0,0.0,0.0,0.0,0.0,0.0,0.0,0.0,0.0,-0.308,-0.233,0.0,-0.3739,0.0,-0.5196,-0.6212,-0.6585,-0.67,0.0,0.0,-0.6885,-0.7082,-0.7617,-0.8181,-0.8491,-0.8345,-0.8972,-0.9403,-0.9361,-0.9527,-0.9729,-0.9946,-0.9505,-0.9082,-0.8875,-0.9327,-0.9633,-0.9507,-0.9644,-0.9842,-0.9723,-0.9774,-0.9778,-0.964,-0.9489,-0.9323,-0.9047,-0.891,-0.8937,-0.9147,-0.8919,-0.8776,-0.8976,-0.8776,-0.8521,-0.8588,-0.8849,-0.9174,-0.9373,-0.9526,-0.9628,-0.8032,-0.8021,-0.7905,-0.7758,-0.7597,-0.754,-0.7422,-0.7415,-0.7304,-0.7263,-0.7138,-0.7084,-0.7078,-0.6961,-0.6959,-0.7051,-0.7056,-0.7117,-0.7095,-0.721,-0.721,-0.721,-0.7213,-0.7209,-0.7271,-0.728,-0.7391,-0.7451,-0.7516,-0.7519,-0.7508,-0.755,-0.7718,-0.7434,-0.6793,-0.7149,-0.7413,-0.7604,-0.7962,-0.8328,-0.874,-0.8594,-0.835,-0.7975,-0.7614,-0.7201,-0.6841,-0.6632,-0.641,-0.6179,-0.6038,-0.5753,-0.5281,-0.4511,-0.3926,0.0,0.0,0.0,0.0,0.0,0.0,0.0,0.0,0.0,0.0,0.0,-0.4689,0.0,-0.626,-0.7138,-0.7212,-0.7558,-0.7823,-0.7947,-0.8098,-0.8407,-0.8938,-0.9444,-0.9684,-0.9615,-1.0081,-1.0398,-1.0327,-1.042,-1.0488,-1.0509,-1.02,-0.9837,-0.9491,-0.9789,-0.9987,-0.9849,-0.9976,-1.0115,-1.0106,-0.992,-0.9642,-0.9527,-0.9314,-0.9103,-0.8937,-0.8937,-0.8992,-0.9096,-0.8979,-0.8811,-0.9022,-0.9017,-0.8847,-0.8773,-0.8984,-0.928,-0.9408,-0.9524,-0.9645,-0.8233,-0.8159,-0.8122,-0.7959,-0.7761,-0.7638,-0.7535,-0.7442,-0.728,-0.7242,-0.7307,-0.7233,-0.7245,-0.7176,-0.7176,-0.7224,-0.721,-0.721,-0.721,-0.721,-0.721,-0.721,-0.7215,-0.7263,-0.7271,-0.7304,-0.7409,-0.7535,-0.7562,-0.7562,-0.7551,-0.7519,-0.7807,-0.7792,-0.7523,-0.7461,-0.7412,-0.7297,-0.7817,-0.8298,-0.8759,-0.8454,-0.8049,-0.7508,-0.7086,-0.6543,-0.5953,-0.5693,-0.5544,-0.5504,-0.5294,-0.517,-0.5192,-0.4497,-0.4069,0.0,-0.351,0.0,0.0,0.0,0.0,0.0,0.0,0.0,0.0,-0.5408,-0.569,-0.6388,-0.7467,-0.8025,-0.7835,-0.8251,-0.8645,-0.8958,-0.931,-0.9685,-1.0229,-1.0558,-1.0822,-1.0984,-1.1151,-1.1256,-1.1129,-1.1215,-1.1115,-1.0798,-1.0821,-1.0629,-1.0088,-0.9975,-0.9975,-0.9888,-0.9822,-0.9852,-1.0048,-0.981,-0.9536,-0.9469,-0.9196,-0.894,-0.8937,-0.8937,-0.8937,-0.894,-0.8933,-0.893,-0.8937,-0.9154,-0.9206,-0.8968,-0.9186,-0.943,-0.929,-0.9425,-0.9692,-0.8233,-0.8233,-0.8148,-0.8174,-0.8122,-0.8005,-0.7622,-0.7086,-0.7062,-0.7103,-0.7256,-0.7375,-0.7396,-0.7304,-0.7301,-0.7249,-0.7213,-0.721,-0.721,-0.721,-0.721,-0.721,-0.7213,-0.7176,-0.7293,-0.7478,-0.7505,-0.7616,-0.7804,-0.7804,-0.7706,-0.7524,-0.7577,-0.7407,-0.7141,0.0,0.0,0.0,-0.7817,-0.8147,-0.8236,-0.7699,-0.7259,-0.7023,-0.6627,0.0,-0.6086,-0.5919,-0.5733,-0.5488,-0.5566,0.0,0.0,0.0,0.0,0.0,0.0,0.0,0.0,0.0,0.0,0.0,-0.6049,-0.6019,-0.5991,-0.6544,-0.7174,-0.7838,-0.8513,-0.9072,-0.9413,-0.9654,-0.9926,-1.0108,-1.031,-1.0574,-1.0798,-1.1001,-1.1139,-1.1171,-1.133,-1.1326,-1.1099,-1.1149,-1.1168,-1.0797,-1.0842,-1.0669,-1.0275,-1.028,-1.0321,-1.018,-0.987,-0.9638,-0.9576,-0.9434,-0.9351,-0.925,-0.9088,-0.8898,-0.8947,-0.8888,-0.9051,-0.9213,-0.9103,-0.8992,-0.9213,-0.9161,-0.8992,-0.8937,-0.9185,-0.9341,-0.918,-0.9259,-0.9369,-0.841,0.0,-0.8348,-0.8258,0.0,-0.8013,-0.7693,-0.7252,-0.7312,-0.7336,-0.7345,-0.7464,-0.7483,-0.7418,-0.7298,-0.7214,-0.7204,-0.7035,-0.7098,-0.721,-0.721,-0.722,-0.7336,-0.7334,-0.7396,-0.7516,-0.7519,-0.7578,-0.7695,-0.7758,-0.7725,-0.7611,-0.7665,-0.7662,-0.772,-0.7935,-0.7901,-0.7593,-0.7925,-0.8239,-0.8474,-0.8099,-0.7679,-0.7238,0.0,0.0,0.0,0.0,0.0,0.0,0.0,0.0,0.0,0.0,0.0,-0.5847,-0.5665,-0.5742,-0.6095,-0.6422,-0.6874,-0.7392,-0.7835,-0.7812,-0.7143,-0.7993,-0.8741,-0.906,-0.9377,-0.9646,-0.9924,-1.0022,-1.0105,-1.0198,-1.0408,-1.0545,-1.0638,-1.0786,-1.0829,-1.0848,-1.1043,-1.1088,-1.0909,-1.097,-1.091,-1.0607,-1.0547,-1.0425,-1.0119,-1.024,-1.0346,-1.0108,-0.9889,-0.969,-0.9605,-0.9476,-0.9374,-0.9364,-0.9256,-0.9137,-0.9059,-0.9045,-0.9077,-0.9127,-0.8992,-0.8992,-0.9103,-0.9158,-0.9103,-0.8992,-0.9158,-0.9302,-0.9105,-0.9197,-0.9383,-0.8587,-0.8579,-0.8486,-0.8334,-0.8202,-0.8019,-0.7845,-0.7649,0.0,0.0,0.0,-0.7559,-0.757,-0.7538,-0.7339,-0.7295,-0.7262,-0.7018,-0.7032,-0.727,-0.7273,-0.7326,-0.7516,-0.7577,-0.7588,-0.7551,-0.761,-0.7621,-0.7584,-0.7684,-0.7731,-0.7739,-0.7826,-0.8058,-0.8421,-0.8897,-0.8775,-0.8164,-0.816,-0.8368,-0.8736,-0.8575,-0.8137,-0.7537,-0.7339,-0.6927,-0.6298,-0.6166,-0.6025,-0.5865,-0.5777,-0.5745,-0.5806,-0.5844,-0.5972,-0.6315,-0.6544,-0.6939,-0.7538,-0.7843,-0.8257,-0.8819,-0.9383,-0.9356,-0.8508,-0.9388,-0.9981,-0.9985,-1.0042,-1.0081,-1.0089,-1.0091,-1.005,-1.0054,-1.0195,-1.0345,-1.0357,-1.0494,-1.0595,-1.0547,-1.0707,-1.0789,-1.0721,-1.0721,-1.0604,-1.0308,-1.0183,-1.0126,-0.9943,-1.0054,-1.0112,-0.9879,-0.9805,-0.9812,-0.9795,-0.9683,-0.9618,-0.9581,-0.9466,-0.9337,-0.9286,-0.9228,-0.9163,-0.9011,-0.896,-0.8885,-0.8937,-0.9103,-0.9213,-0.8937,-0.9103,-0.9217,-0.8995,-0.9103,-0.9325,-0.8587,-0.8587,-0.8571,-0.8543,-0.8503,-0.8391,-0.8261,-0.8048,-0.7831,-0.7635,-0.7532,-0.7733,-0.7766,-0.7674,-0.7641,-0.7568,-0.7467,-0.7432,-0.7437,0.0,-0.7467,-0.7486,-0.7519,-0.7807,-0.7808,-0.7671,-0.7974,-0.8025,-0.7876,-0.7897,-0.7908,-0.7847,-0.7925,-0.8058,-0.8419,-0.8837,-0.9022,-0.8935,-0.8566,-0.8321,-0.8229,-0.7763,-0.7437,-0.7243,-0.7159,-0.6888,-0.6568,-0.6543,-0.6408,-0.6163,-0.6158,-0.6351,-0.6681,-0.6734,-0.6993,-0.7636,-0.776,-0.8045,-0.8609,-0.8938,-0.924,-0.9516,-0.9826,-0.9939,-0.9922,-1.014,-1.0359,-1.0318,-1.0343,-1.0443,-1.0399,-1.033,-1.0213,-1.0221,-1.0358,-1.0458,-1.0462,-1.0588,-1.0688,-1.0684,-1.0774,-1.0668,-1.0425,-1.0365,-1.0243,-0.9943,-0.9943,-0.9883,-0.9822,-0.9822,-0.9822,-0.9822,-0.9819,-0.9819,-0.9808,-0.9703,-0.9632,-0.9612,-0.95,-0.9405,-0.9361,-0.9323,-0.9231,-0.9123,-0.9025,-0.8898,-0.8885,-0.8937,-0.8937,-0.8937,-0.8992,-0.894,-0.8937,-0.894,-0.8982,-0.8647,-0.859,-0.8587,-0.8587,-0.8584,-0.8532,-0.8405,-0.8164,-0.8065,-0.7924,-0.7815,-0.7856,-0.7842,-0.7785,-0.7657,-0.7573,-0.7513,-0.7383,-0.7394,-0.7513,-0.7519,-0.7587,-0.7703,-0.7886,-0.7919,-0.7854,-0.7972,-0.8002,-0.793,-0.7933,-0.7933,-0.7933,-0.8058,-0.8427,-0.8848,-0.909,-0.9263,-0.9361,-0.9084,-0.8834,-0.8684,-0.8443,-0.8213,-0.7997,-0.7929,-0.7848,-0.7635,-0.7625,-0.7533,-0.7326,-0.7335,-0.7451,-0.7657,-0.7804,-0.8046,-0.8453,-0.8777,-0.9091,-0.9344,-0.9611,-0.9876,-1.0075,-1.017,-1.0275,-1.0452,-1.0201,-1.0073,-1.0166,-1.0096,-1.0043,-1.0132,-0.9997,-0.9911,-0.9914,-1.0049,-1.0141,-1.0148,-1.0194,-1.0243,-1.0243,-1.0243,-1.0183,-1.0061,-1.0001,-1.0004,-0.9822,-0.9819,-0.9819,-0.9819,-0.9819,-0.9819,-0.9819,-0.9819,-0.9819,-0.9819,-0.9771,-0.9727,-0.9727,-0.9669,-0.9591,-0.953,-0.9432,-0.9334,-0.9241,-0.9093,-0.9028,-0.896,-0.8937,-0.8937,-0.8937,-0.8937,-0.8937,-0.8937,-0.8937,-0.8937,-0.8739,-0.863,-0.8628,-0.8611,-0.8587,-0.856,-0.8446,-0.8277,-0.8214,-0.8141,-0.8106,-0.7924,-0.7933,-0.7853,-0.7679,-0.76,-0.7573,-0.7402,-0.7476,-0.7584,-0.7597,-0.7698,-0.7917,-0.7933,-0.7994,-0.7933,-0.7933,-0.7994,-0.7933,-0.7933,-0.7933,-0.8055,-0.8424,-0.8854,-0.9275,-0.9396,-0.9465,-0.9596,-0.954,-0.9446,-0.9268,-0.9231,-0.9094,-0.8832,-0.8774,-0.8693,-0.8543,-0.8533,-0.8469,-0.8381,-0.8422,-0.8419,-0.8422,-0.8727,-0.8936,-0.9093,-0.9533,-0.9818,-0.9962,-1.0156,-1.0343,-1.0373,-1.0385,-1.0403,-1.0394,-1.0086,-0.9976,-1.016,-1.0016,-0.9885,-0.9946,-0.9804,-0.9656,-0.9666,-0.9754,-0.9808,-0.9819,-0.9819,-0.9819,-0.9819,-0.9819,-0.9819,-0.9819,-0.9819,-0.9819,-0.9822,-0.9819,-0.9819,-0.9819,-0.9819,-0.9819,-0.9819,-0.9819,-0.9819,-0.9819,-0.9815,-0.9812,-0.9819,-0.9812,-0.9754,-0.9673,-0.9635,-0.951,-0.9276,-0.9231,-0.9089,-0.8974,-0.8937,-0.8937,-0.8937,-0.8937,-0.8937,-0.8937,-0.8937,-0.8937,-0.8861,-0.8764,-0.8747,-0.8687,-0.8581,-0.8481,-0.8421,-0.8367,-0.8171,-0.8068,-0.8097,-0.7926,-0.7933,-0.793,-0.7903,-0.7826,-0.7826,-0.7812,-0.7867,-0.7886,-0.7839,-0.785,-0.793,-0.8183,-0.8183,-0.7994,-0.8183,-0.8119,-0.7933,-0.7933,-0.8058,-0.8366,-0.8915,-0.9214,-0.9335,-0.9579,-0.9751,-0.9802,-0.9788,-0.9642,-0.9374,-0.9282,-0.9197,-0.9169,-0.8984,-0.879,-0.8696,-0.8689,-0.8621,-0.8535,-0.8727,-0.8828,-0.888,-0.9153,-0.9421,-0.9702,-0.9807,-0.997,-1.0293,-1.0554,-1.0589,-1.0339,-1.0347,-1.0193,-0.9845,-0.9976,-1.0321,-1.0685,-1.0628,-1.0369,-1.0421,-1.001,-0.9785,-0.9781,-0.9805,-0.9819,-0.9819,-0.9819,-0.9819,-0.9819,-0.9819,-0.9819,-0.9819,-0.9819,-0.9819,-0.9819,-0.9819,-0.9819,-0.9819,-0.9819,-0.9819,-0.9819,-0.9819,-0.9819,-0.9819,-0.9819,-0.9819,-0.9819,-0.9819,-0.9802,-0.9764,-0.9683,-0.9551,-0.9412,-0.9306,-0.913,-0.9008,-0.8937,-0.8937,-0.8937,-0.8937,-0.8937,-0.8937,-0.8937,-0.8992,-0.8946,-0.8774,-0.8772,-0.8698,-0.8587,-0.8538,-0.8437,-0.8301,-0.8206,-0.8081,-0.8012,-0.7891,-0.7933,-0.7933,-0.7933,-0.7933,-0.7933,-0.7933,-0.7933,-0.7933,-0.7933,-0.7933,-0.7933,-0.8058,-0.7997,-0.7933,-0.8058,-0.7997,-0.7933,-0.7933,-0.8058,-0.8369,-0.8674,-0.8854,-0.9034,-0.9217,-0.9278,-0.9278,-0.9396,-0.9459,-0.9334,-0.935,-0.9303,-0.9204,-0.9015,-0.8858,-0.8855,-0.879,-0.8815,-0.8757,-0.8858,-0.8963,-0.9183,-0.9507,-0.9777,-1.005,-1.0262,-1.0397,-1.0582,-1.0655,-1.0737,-1.0679,-1.0687,-1.0651,-1.0585,-1.0809,-1.1045,-1.1185,-1.0656,-1.029,-1.0321,-1.003,-0.9819,-0.9819,-0.9819,-0.9819,-0.9819,-0.9819,-0.9819,-0.9819,-0.9819,-0.9819,-0.9819,-0.9819,-0.9819,-0.9819,-0.9819,-0.9819,-0.9819,-0.9819,-0.9819,-0.9819,-0.9819,-0.9819,-0.9819,-0.9819,-0.9819,-0.9819,-0.9819,-0.9819,-0.9808,-0.9788,-0.9686,-0.9537,-0.9381,-0.9286,-0.91,-0.8988,-0.8937,-0.8937,-0.8937,-0.8937,-0.8937,-0.8937,-0.9047,-0.906,-0.8875,-0.8802,-0.8701,-0.8587,-0.8554,-0.8446,-0.8293,-0.825,-0.8117,-0.7932,-0.7982,-0.7902,-0.7936,-0.7933,-0.7933,-0.7933,-0.7933,-0.7933,-0.7933,-0.7933,-0.7933,-0.7933,-0.7933,-0.7933,-0.7933,-0.7933,-0.7933,-0.7933,-0.7994,-0.8183,-0.8369,-0.8491,-0.8671,-0.8857,-0.8918,-0.8918,-0.8915,-0.9156,-0.9335,-0.93,-0.9397,-0.9391,-0.9276,-0.9096,-0.8998,-0.8998,-0.8905,-0.8937,-0.8881,-0.8992,-0.9161,-0.9489,-0.9761,-1.0091,-1.0366,-1.0586,-1.0692,-1.0692,-1.0741,-1.0826,-1.0956,-1.0952,-1.0939,-1.1045,-1.1126,-1.1221,-1.1086,-1.0562,-1.0197,-1.034,-1.0065,-0.9822,-0.9819,-0.9819,-0.9819,-0.9819,-0.9819,-0.9819,-0.9819,-0.9819,-0.9819,-0.9819,-0.9819,-0.9819,-0.9819,-0.9819,-0.9819,-0.9819,-0.9819,-0.9819,-0.9819,-0.9819,-0.9819,-0.9819,-0.9819,-0.9819,-0.9819,-0.9819,-0.9819,-0.9819,-0.9819,-0.9774,-0.9591,-0.9473,-0.9384,-0.921,-0.9035,-0.8881,-0.8881,-0.8881,-0.8771,-0.8605,-0.866,-0.8605,-0.9226,-0.9084,-0.8867,-0.8696,-0.8579,-0.8478,-0.8426,-0.8388,-0.8288,-0.8166,-0.8054,-0.8108,-0.8045,-0.7888,-0.7888,-0.7875,-0.7933,-0.7933,-0.7933,-0.7933,-0.7933,-0.7933,-0.7933,-0.7933,-0.7933,-0.7933,-0.7933,-0.7933,-0.7933,-0.8183,-0.8369,-0.843,-0.8613,-0.8854,-0.8854,-0.8857,-0.8918,-0.8915,-0.9156,-0.9275,-0.9319,-0.9496,-0.9591,-0.9554,-0.93,-0.914,-0.918,-0.9011,-0.894,-0.8937,-0.9158,-0.9489,-0.9761,-1.0095,-1.0374,-1.0657,-1.0704,-1.07,-1.0733,-1.0854,-1.0964,-1.1001,-1.0853,-1.0709,-1.0694,-1.068,-1.0629,-1.0393,-1.0393,-1.0411,-1.0604,-1.0126,-0.9819,-0.9819,-0.9819,-0.9819,-0.9819,-0.9819,-0.9819,-0.9819,-0.9819,-0.9819,-0.9819,-0.9819,-0.9819,-0.9819,-0.9819,-0.9819,-0.9819,-0.9819,-0.9819,-0.9819,-0.9819,-0.9819,-0.9819,-0.9819,-0.9819,-0.9819,-0.9819,-0.9697,-0.9758,-0.9805,-0.967,-0.9572,-0.9307,-0.9157,-0.9124,-0.9066,-0.886,-0.8771,-0.866,-0.8549,-0.8103,-0.8048,-0.7937,-0.919,-0.8927,-0.8755,-0.8625,-0.8584,-0.8543,-0.8486,-0.8418,-0.8372,-0.8282,-0.8185,-0.8171,-0.8144,-0.8098,-0.8021,-0.8007,-0.7936,-0.7933,-0.7933,-0.7933,-0.7933,-0.7933,-0.7933,-0.7933,-0.7933,-0.7933,-0.7933,-0.7933,-0.7933,-0.8058,-0.8119,-0.8058,-0.8177,-0.8238,-0.8241,-0.8238,-0.8363,-0.861,-0.8854,-0.9156,-0.9275,-0.959,-0.9744,-0.973,-0.9452,-0.9309,-0.9214,-0.91,-0.9035,-0.8888,-0.8992,-0.9217,-0.9555,-0.9917,-1.0302,-1.0609,-1.0647,-1.0691,-1.0952,-1.0988,-1.1131,-1.1289,-1.1066,-1.0941,-1.0961,-1.0827,-1.0669,-1.0593,-1.0365,-1.0365,-1.0365,-1.0061,-0.9819,-0.9819,-0.9819,-0.9819,-0.9819,-0.9819,-0.9819,-0.9819,-0.9819,-0.9819,-0.9819,-0.9819,-0.9819,-0.9819,-0.9819,-0.9819,-0.9819,-0.9819,-0.9819,-0.9819,-0.9819,-0.9819,-0.9819,-0.9819,-0.9819,-0.9819,-0.9758,-0.9332,-0.9207,-0.8952,-0.8775,-0.8602,-0.8531,-0.8608,-0.8521,-0.8416,-0.8341,-0.8269,-0.8214,-0.7992,-0.7546,-0.7379,-0.7102,-0.9062,-0.8863,-0.8731,-0.8622,-0.859,-0.8587,-0.8546,-0.8473,-0.8473,-0.8405,-0.831,-0.8229,-0.821,-0.8225,-0.8147,-0.807,-0.7981,-0.791,-0.7933,-0.7933,-0.7933,-0.7933,-0.7933,-0.7933,-0.7933,-0.7933,-0.7933,-0.7933,-0.7933,-0.7933,-0.7933,-0.7933,-0.7933,-0.7933,-0.7933,-0.7933,-0.8058,-0.8305,-0.8674,-0.8976,-0.9214,-0.9582,-0.9819,-0.9795,-0.9625,-0.9452,-0.9364,-0.9309,-0.9188,-0.91,-0.9079,-0.9192,-0.9542,-0.9911,-1.0163,-1.0318,-1.0398,-1.0497,-1.0673,-1.0792,-1.0956,-1.1118,-1.0963,-1.0864,-1.0959,-1.0668,-1.0486,-1.0425,-1.0304,-1.0122,-1.0122,-0.9943,-0.9819,-0.9819,-0.9819,-0.9819,-0.9819,-0.9819,-0.9819,-0.9819,-0.9819,-0.9819,-0.9819,-0.9819,-0.9819,-0.9819,-0.9819,-0.9819,-0.9819,-0.9819,-0.9819,-0.9819,-0.9819,-0.9819,-0.9819,-0.9758,-0.9758,-0.9758,-0.9268,-0.8903,-0.845,-0.8138,-0.7837,-0.7682,-0.7735,-0.7827,-0.7876,-0.7777,-0.7677,-0.7604,-0.7601,-0.7432,-0.7043,-0.6654,-0.6265,-0.8992,-0.8871,-0.8818,-0.8685,-0.8595,-0.8587,-0.8587,-0.8573,-0.8576,-0.8511,-0.8421,-0.8416,-0.8364,-0.8272,-0.825,-0.8167,-0.8187,-0.8005,-0.7913,-0.7907,-0.7952,-0.7949,-0.7949,-0.7877,-0.7933,-0.7933,-0.7933,-0.7933,-0.7933,-0.7933,-0.7933,-0.7933,-0.7933,-0.7933,-0.7933,-0.7933,-0.7933,-0.8116,-0.8607,-0.8857,-0.8976,-0.9457,-0.9761,-0.9758,-0.9795,-0.9724,-0.9602,-0.9459,-0.9371,-0.9357,-0.9354,-0.9487,-0.9766,-1.0012,-1.0072,-0.9835,-1.0061,-1.005,-0.9813,-1.0197,-1.0506,-1.0591,-1.0395,-1.0407,-1.0418,-1.0122,-0.9879,-0.994,-0.9879,-0.9819,-0.9819,-0.9822,-0.9819,-0.9819,-0.9819,-0.9819,-0.9819,-0.9819,-0.9819,-0.9819,-0.9819,-0.9819,-0.9819,-0.9819,-0.9819,-0.9819,-0.9819,-0.9819,-0.9819,-0.9819,-0.9819,-0.9819,-0.9761,-0.9761,-0.9758,-0.9758,-0.9697,-0.9576,-0.8964,-0.8407,-0.7686,-0.7236,-0.6853,-0.6707,-0.6915,-0.7018,-0.7022,-0.6943,-0.6831,-0.6765,-0.6821,-0.6765,-0.632,-0.5819,-0.5371,-0.8917,-0.8857,-0.8728,-0.8625,-0.8587,-0.8587,-0.8587,-0.8587,-0.8587,-0.8568,-0.8538,-0.8535,-0.8511,-0.8465,-0.8399,-0.8361,-0.8348,-0.8198,-0.8122,-0.8108,-0.8035,-0.8056,-0.804,-0.7971,-0.7933,-0.7933,-0.7933,-0.7933,-0.7933,-0.7933,-0.7933,-0.7933,-0.7933,-0.7933,-0.7933,-0.7933,-0.7994,-0.8244,-0.843,-0.8732,-0.9156,-0.9335,-0.9579,-0.9758,-0.9819,-0.9798,-0.9751,-0.9615,-0.949,-0.9395,-0.9381,-0.9483,-0.9631,-0.9773,-0.9794,-0.9717,-0.9731,-0.993,-1.008,-1.0132,-1.0312,-1.0572,-1.0461,-1.0301,-1.0304,-1.0004,-0.9819,-0.9819,-0.9819,-0.9819,-0.9819,-0.9819,-0.9819,-0.9819,-0.9819,-0.9819,-0.9819,-0.9819,-0.9819,-0.9819,-0.9819,-0.9819,-0.9819,-0.9819,-0.9819,-0.9819,-0.9819,-0.9819,-0.9819,-0.9819,-0.9819,-0.9819,-0.9761,-0.9396,-0.9028,-0.872,-0.8538,-0.8416,-0.7986,-0.7548,-0.6892,-0.6228,-0.5854,-0.5758,-0.5976,-0.6062,-0.6067,-0.604,-0.5931,-0.5877,-0.5819,-0.5652,-0.5375,-0.5039,-0.4704,-0.8882,-0.8855,-0.869,-0.8587,-0.8587,-0.8587,-0.8587,-0.8587,-0.8587,-0.8587,-0.8587,-0.8587,-0.8587,-0.8573,-0.8511,-0.8484,-0.8473,-0.8397,-0.8364,-0.8326,-0.8136,-0.8122,-0.81,-0.7926,-0.7933,-0.7933,-0.7933,-0.7933,-0.7933,-0.7933,-0.7933,-0.7933,-0.7933,-0.7933,-0.7933,-0.7933,-0.7994,-0.8183,-0.8369,-0.8671,-0.9095,-0.9278,-0.9457,-0.9761,-0.9819,-0.9819,-0.9812,-0.973,-0.9646,-0.9564,-0.9544,-0.9595,-0.968,-0.969,-0.9587,-0.9413,-0.9476,-0.9526,-0.9553,-0.952,-0.972,-0.9983,-1.0004,-0.9943,-0.994,-0.9761,-0.9819,-0.9819,-0.9819,-0.9819,-0.9819,-0.9819,-0.9819,-0.9819,-0.9819,-0.9819,-0.9819,-0.9819,-0.9819,-0.9819,-0.9819,-0.9819,-0.9819,-0.9819,-0.9819,-0.9819,-0.9819,-0.9819,-0.9819,-0.9819,-0.9697,-0.9454,-0.915,-0.8662,-0.7991,-0.7622,-0.7378,-0.7133,-0.6766,-0.6446,-0.593,-0.5269,-0.4792,-0.4708,-0.4841,-0.4861,-0.4878,-0.4944,-0.4873,-0.4873,-0.4931,-0.4929,-0.4815,-0.4594,-0.4314,-0.8882,-0.8849,-0.8687,-0.8587,-0.8587,-0.8587,-0.8587,-0.8587,-0.8587,-0.8587,-0.8587,-0.8587,-0.8587,-0.8587,-0.8573,-0.8568,-0.8581,-0.8565,-0.8549,-0.847,-0.8263,-0.8098,-0.8106,-0.801,-0.7958,-0.7933,-0.7933,-0.7933,-0.7933,-0.7933,-0.7933,-0.7933,-0.7933,-0.7933,-0.7933,-0.7933,-0.7933,-0.7994,-0.8183,-0.8488,-0.8915,-0.9159,-0.9457,-0.9758,-0.9758,-0.9758,-0.9815,-0.9805,-0.9805,-0.9812,-0.9781,-0.9781,-0.9812,-0.9758,-0.9452,-0.8888,-0.909,-0.8893,-0.8489,-0.8721,-0.8964,-0.9095,-0.9278,-0.9275,-0.9335,-0.9579,-0.9697,-0.97,-0.9758,-0.9819,-0.9819,-0.9819,-0.9819,-0.9819,-0.9819,-0.9819,-0.9819,-0.9819,-0.9819,-0.9819,-0.9819,-0.9819,-0.9819,-0.9819,-0.9819,-0.9819,-0.9819,-0.9819,-0.9761,-0.9636,-0.9271,-0.8903,-0.8599,-0.7744,-0.7011,-0.6768,-0.6462,-0.5788,-0.56,-0.5399,-0.5127,-0.4533,-0.4131,-0.4061,-0.4018,-0.3928,-0.3892,-0.4139,-0.4273,-0.4318,-0.4372,-0.4426,-0.437,-0.4204,-0.4036,-0.8882,-0.8855,-0.8687,-0.8587,-0.8587,-0.8587,-0.8587,-0.8587,-0.8587,-0.8587,-0.8587,-0.8587,-0.8587,-0.8587,-0.8587,-0.8587,-0.8587,-0.8587,-0.8587,-0.856,-0.8416,-0.8214,-0.8147,-0.8084,-0.8015,-0.7944,-0.7933,-0.7933,-0.7933,-0.7933,-0.7933,-0.7933,-0.7933,-0.7933,-0.7933,-0.7933,-0.7933,-0.7933,-0.7994,-0.8363,-0.8854,-0.8973,-0.9278,-0.9697,-0.9579,-0.9579,-0.9761,-0.9819,-0.9819,-0.9819,-0.9819,-0.9819,-0.9758,-0.9579,-0.9255,-0.893,-0.8702,-0.8601,-0.8392,-0.8468,-0.861,-0.8857,-0.8915,-0.8976,-0.9034,-0.9278,-0.9396,-0.9457,-0.964,-0.9761,-0.9761,-0.9758,-0.9758,-0.9819,-0.9819,-0.9819,-0.9819,-0.9819,-0.9819,-0.9819,-0.9819,-0.9819,-0.9819,-0.9819,-0.9819,-0.9819,-0.9819,-0.9697,-0.9576,-0.915,-0.872,-0.8294,-0.7867,-0.6886,-0.6154,-0.591,-0.5421,-0.4626,-0.437,-0.4474,-0.4313,-0.408,-0.3925,-0.3879,-0.3943,-0.3865,-0.3761,-0.3835,-0.3862,-0.3942,-0.4038,-0.4148,-0.4148,-0.4036,-0.3924,-0.893,-0.8865,-0.8745,-0.8633,-0.859,-0.8587,-0.8587,-0.8587,-0.8587,-0.8587,-0.8587,-0.8587,-0.8587,-0.8587,-0.8587,-0.8587,-0.8587,-0.8587,-0.8587,-0.8576,-0.8516,-0.8329,-0.8182,-0.8114,-0.8051,-0.7944,-0.7933,-0.7933,-0.7933,-0.7933,-0.7933,-0.7933,-0.7933,-0.7933,-0.7933,-0.7933,-0.7933,-0.7933,-0.8058,-0.8363,-0.8854,-0.9034,-0.9214,-0.9518,-0.9396,-0.9396,-0.9576,-0.97,-0.9819,-0.9819,-0.9819,-0.9819,-0.9758,-0.9457,-0.9214,-0.8915,-0.8613,-0.8369,-0.8183,-0.8183,-0.8244,-0.8485,-0.861,-0.8674,-0.8732,-0.8976,-0.9156,-0.9156,-0.9339,-0.94,-0.946,-0.9518,-0.964,-0.9761,-0.9819,-0.9819,-0.9819,-0.9819,-0.9819,-0.9819,-0.9819,-0.9819,-0.9819,-0.9819,-0.9819,-0.9819,-0.9819,-0.9515,-0.9211,-0.8659,-0.7989,-0.7439,-0.6888,-0.5972,-0.5298,-0.4993,-0.4931,-0.4134,-0.3885,-0.3868,-0.3841,-0.3853,-0.3852,-0.3837,-0.382,-0.3855,-0.3758,-0.3713,-0.3722,-0.3806,-0.3836,-0.3814,-0.3813,-0.3758,-0.3645,-0.8981,-0.8871,-0.8804,-0.8687,-0.8595,-0.8587,-0.8587,-0.8587,-0.8587,-0.8587,-0.8587,-0.8587,-0.8587,-0.8587,-0.8587,-0.8587,-0.8587,-0.8587,-0.8587,-0.8584,-0.8552,-0.841,-0.816,-0.8106,-0.8089,-0.7982,-0.7947,-0.7933,-0.7933,-0.7933,-0.7933,-0.7933,-0.7933,-0.7933,-0.7933,-0.7933,-0.7933,-0.7933,-0.8119,-0.8427,-0.8735,-0.8976,-0.9095,-0.9217,-0.9278,-0.9214,-0.9335,-0.9521,-0.9761,-0.9819,-0.9819,-0.9761,-0.9697,-0.9396,-0.9095,-0.8793,-0.8491,-0.8183,-0.7994,-0.7933,-0.7933,-0.7994,-0.8244,-0.8369,-0.843,-0.8671,-0.8857,-0.8857,-0.8854,-0.8976,-0.8976,-0.9095,-0.9153,-0.9271,-0.9454,-0.9454,-0.9636,-0.9761,-0.9819,-0.9819,-0.9819,-0.9819,-0.9819,-0.9758,-0.9758,-0.9271,-0.9271,-0.8906,-0.8355,-0.7683,-0.6888,-0.6033,-0.5483,-0.4993,-0.4441,-0.4073,-0.4071,-0.3826,-0.3826,-0.3757,-0.3819,-0.3797,-0.3872,-0.3927,-0.3888,-0.3858,-0.3833,-0.3779,-0.3711,-0.36,-0.3566,-0.3546,-0.3531,-0.3421,-0.3309,-0.8906,-0.8863,-0.8717,-0.8611,-0.859,-0.8587,-0.8587,-0.8587,-0.8587,-0.8587,-0.8587,-0.8587,-0.8587,-0.8587,-0.8587,-0.8587,-0.8587,-0.8587,-0.8587,-0.8587,-0.8587,-0.8503,-0.8334,-0.8244,-0.813,-0.8016,-0.7971,-0.7875,-0.7936,-0.7933,-0.7933,-0.7933,-0.7933,-0.7933,-0.7933,-0.7933,-0.7933,-0.7933,-0.7994,-0.8244,-0.8552,-0.8674,-0.8854,-0.8976,-0.8976,-0.8976,-0.9037,-0.9278,-0.9518,-0.9761,-0.9758,-0.964,-0.9457,-0.9156,-0.8854,-0.8549,-0.8241,-0.7994,-0.7933,-0.7933,-0.7933,-0.7933,-0.7994,-0.7994,-0.8058,-0.8305,-0.8491,-0.8552,-0.8735,-0.8796,-0.8732,-0.8421,-0.8297,-0.8236,-0.7989,-0.7989,-0.8599,-0.9332,-0.9636,-0.9758,-0.9819,-0.9819,-0.9819,-0.97,-0.9454,-0.8906,-0.8477,-0.8172,-0.75,-0.6705,-0.5972,-0.5176,-0.4747,-0.4379,-0.4256,-0.3888,-0.3826,-0.3765,-0.3702,-0.3579,-0.3579,-0.3702,-0.3703,-0.3825,-0.388,-0.3852,-0.3821,-0.357,-0.3382,-0.3339,-0.3297,-0.3212,-0.3139,-0.3029,-0.303,-0.8936,-0.8863,-0.875,-0.8641,-0.8592,-0.8587,-0.8587,-0.8587,-0.8587,-0.8587,-0.8587,-0.8587,-0.8587,-0.8587,-0.8587,-0.8587,-0.8587,-0.8587,-0.8587,-0.8587,-0.8587,-0.8554,-0.8492,-0.8367,-0.8236,-0.8133,-0.8056,-0.7996,-0.7888,-0.7933,-0.7933,-0.7933,-0.7933,-0.7933,-0.7933,-0.7933,-0.7933,-0.7991,-0.8238,-0.8488,-0.861,-0.8915,-0.8915,-0.8854,-0.8796,-0.8674,-0.8674,-0.9095,-0.9339,-0.9521,-0.9579,-0.9518,-0.9278,-0.8915,-0.8552,-0.8369,-0.8058,-0.7933,-0.7933,-0.7933,-0.7933,-0.7933,-0.7933,-0.7933,-0.7933,-0.8058,-0.818,-0.8183,-0.8305,-0.8363,-0.818,-0.7566,-0.7258,-0.7131,-0.6886,-0.7067,-0.7983,-0.8717,-0.9393,-0.9636,-0.9819,-0.9819,-0.9758,-0.9454,-0.9028,-0.8416,-0.7683,-0.7317,-0.6585,-0.5849,-0.536,-0.4685,-0.4256,-0.4011,-0.4011,-0.3888,-0.3765,-0.3702,-0.3579,-0.3394,-0.3269,-0.3394,-0.3517,-0.364,-0.3764,-0.3697,-0.36,-0.3352,-0.3116,-0.3025,-0.2987,-0.2887,-0.2805,-0.2805,-0.2806,-0.9035,-0.8844,-0.8793,-0.8682,-0.8595,-0.8587,-0.8587,-0.8587,-0.8587,-0.8587,-0.8587,-0.8587,-0.8587,-0.8587,-0.8587,-0.8587,-0.8587,-0.8587,-0.8587,-0.8587,-0.8587,-0.8562,-0.8516,-0.8426,-0.828,-0.8079,-0.8106,-0.7989,-0.7988,-0.7877,-0.7933,-0.7933,-0.7933,-0.7933,-0.7933,-0.7933,-0.7933,-0.7994,-0.8299,-0.8546,-0.8668,-0.9031,-0.9031,-0.8732,-0.8488,-0.8369,-0.8552,-0.8915,-0.9278,-0.9275,-0.9278,-0.9217,-0.9095,-0.8732,-0.8369,-0.8308,-0.8058,-0.7933,-0.7933,-0.7933,-0.7933,-0.7933,-0.7933,-0.7933,-0.7933,-0.7933,-0.7933,-0.7872,-0.7869,-0.7627,-0.7322,-0.6526,-0.6154,-0.6029,-0.5965,-0.6331,-0.7123,-0.7678,-0.8108,-0.9576,-0.9515,-0.9332,-0.9089,-0.872,-0.8355,-0.7867,-0.707,-0.6337,-0.5604,-0.5053,-0.4501,-0.4318,-0.3948,-0.3765,-0.3765,-0.3702,-0.364,-0.3331,-0.3269,-0.3146,-0.296,-0.3022,-0.3146,-0.3455,-0.3516,-0.3451,-0.3302,-0.3057,-0.2838,-0.2758,-0.2595,-0.2483,-0.2468,-0.2581,-0.2525,-0.891,-0.8788,-0.8668,-0.8606,-0.859,-0.8587,-0.8587,-0.8587,-0.8587,-0.8587,-0.8587,-0.8587,-0.8587,-0.8587,-0.8587,-0.8587,-0.8576,-0.8557,-0.8557,-0.856,-0.8554,-0.8527,-0.8446,-0.841,-0.8277,-0.8114,-0.8117,-0.8095,-0.8045,-0.7929,-0.7936,-0.7933,-0.7933,-0.7933,-0.7933,-0.7933,-0.7933,-0.7933,-0.8116,-0.8241,-0.8302,-0.836,-0.8419,-0.8241,-0.8119,-0.8183,-0.843,-0.8732,-0.9095,-0.9278,-0.9095,-0.8976,-0.8915,-0.8613,-0.8244,-0.8058,-0.7994,-0.7933,-0.7933,-0.7933,-0.7933,-0.7933,-0.7933,-0.7869,-0.7869,-0.7872,-0.775,-0.7564,-0.7255,-0.6952,-0.695,-0.5665,-0.4868,-0.4559,-0.425,-0.4187,-0.4921,-0.5471,-0.6576,-0.8653,-0.8781,-0.8538,-0.8172,-0.7681,-0.6945,-0.6394,-0.5722,-0.5049,-0.4376,-0.4007,-0.3701,-0.3639,-0.364,-0.364,-0.3579,-0.3517,-0.3393,-0.296,-0.2775,-0.2776,-0.2652,-0.259,-0.2775,-0.2961,-0.3146,-0.3082,-0.2925,-0.2699,-0.261,-0.2585,-0.23,-0.2077,-0.2188,-0.2244,-0.2132,-0.8823,-0.8758,-0.8638,-0.8587,-0.8587,-0.8587,-0.8587,-0.8587,-0.8587,-0.8587,-0.8587,-0.8587,-0.8587,-0.8587,-0.8587,-0.856,-0.85,-0.8426,-0.841,-0.8405,-0.8402,-0.8386,-0.8326,-0.8323,-0.8263,-0.8155,-0.8092,-0.8078,-0.7962,-0.7902,-0.7933,-0.7933,-0.7933,-0.7933,-0.7933,-0.7933,-0.7933,-0.7933,-0.8058,-0.8119,-0.8119,-0.8119,-0.8119,-0.8119,-0.7994,-0.8058,-0.8369,-0.8735,-0.9037,-0.9217,-0.9034,-0.8915,-0.8793,-0.8427,-0.8058,-0.7933,-0.7933,-0.7933,-0.7933,-0.7933,-0.7933,-0.7933,-0.7933,-0.7686,-0.7503,-0.7319,-0.7258,-0.6827,-0.6092,-0.5604,-0.5542,-0.4436,-0.3699,-0.339,-0.3022,-0.3267,-0.3817,-0.4062,-0.5592,-0.7368,-0.7123,-0.6942,-0.7128,-0.6455,-0.5536,-0.4863,-0.4312,-0.3821,-0.3269,-0.3208,-0.3146,-0.3208,-0.3331,-0.3269,-0.3269,-0.3208,-0.3085,-0.2652,-0.2406,-0.2406,-0.2345,-0.2345,-0.2346,-0.2407,-0.2531,-0.2714,-0.2626,-0.2409,-0.2382,-0.235,-0.2124,-0.1916,-0.191,-0.1907,-0.1851,-0.8758,-0.8725,-0.8628,-0.8587,-0.8584,-0.856,-0.8552,-0.8549,-0.8516,-0.8503,-0.8516,-0.8511,-0.8503,-0.8511,-0.8497,-0.8459,-0.8372,-0.8277,-0.8261,-0.8197,-0.8258,-0.8236,-0.8201,-0.8193,-0.8166,-0.8092,-0.8046,-0.804,-0.8007,-0.7891,-0.7933,-0.7933,-0.7933,-0.7933,-0.7933,-0.7933,-0.7933,-0.7994,-0.8119,-0.8308,-0.8308,-0.8308,-0.8308,-0.8308,-0.8058,-0.7994,-0.8244,-0.8552,-0.8793,-0.8973,-0.8912,-0.8793,-0.8671,-0.8241,-0.7933,-0.7933,-0.7933,-0.7933,-0.7933,-0.7933,-0.7933,-0.7933,-0.7933,-0.7564,-0.7072,-0.6827,-0.6521,-0.5847,-0.5112,-0.4561,-0.4561,-0.3515,-0.2899,-0.2652,-0.259,-0.2652,-0.3142,-0.351,-0.3756,-0.4797,-0.504,-0.541,-0.5657,-0.523,-0.4312,-0.4064,-0.3575,-0.3329,-0.2899,-0.2899,-0.2899,-0.296,-0.296,-0.2899,-0.2899,-0.2899,-0.2715,-0.2406,-0.2283,-0.2222,-0.2161,-0.21,-0.21,-0.2161,-0.2222,-0.2341,-0.2259,-0.2178,-0.215,-0.2055,-0.1894,-0.1809,-0.1856,-0.1851,-0.1795,-0.8706,-0.8609,-0.8595,-0.8587,-0.8573,-0.8492,-0.8443,-0.8432,-0.8348,-0.8277,-0.8307,-0.8288,-0.8296,-0.8299,-0.8288,-0.8272,-0.825,-0.8217,-0.819,-0.8185,-0.8193,-0.8147,-0.8087,-0.8076,-0.8024,-0.7975,-0.7926,-0.8018,-0.8018,-0.7966,-0.7936,-0.7933,-0.7933,-0.7933,-0.7933,-0.7933,-0.7933,-0.7933,-0.7933,-0.7994,-0.7994,-0.7994,-0.7994,-0.7994,-0.7933,-0.7933,-0.8119,-0.8366,-0.8552,-0.8552,-0.8552,-0.8491,-0.8369,-0.8119,-0.7933,-0.7933,-0.7933,-0.7933,-0.7872,-0.7933,-0.7933,-0.7872,-0.7808,-0.75,-0.6827,-0.6154,-0.5847,-0.5908,-0.4928,-0.4253,-0.3946,-0.3206,-0.2713,-0.2406,-0.2284,-0.2161,-0.2407,-0.2774,-0.3082,-0.3081,-0.3573,-0.4002,-0.431,-0.3698,-0.3145,-0.3022,-0.2837,-0.2714,-0.259,-0.2529,-0.2591,-0.2653,-0.2653,-0.2591,-0.253,-0.253,-0.2468,-0.216,-0.2161,-0.2099,-0.2038,-0.2038,-0.2038,-0.2038,-0.2099,-0.2098,-0.2088,-0.2067,-0.1917,-0.1884,-0.1847,-0.182,-0.1799,-0.1796,-0.1795,-0.8636,-0.8587,-0.8587,-0.8587,-0.8581,-0.8532,-0.8475,-0.8416,-0.8361,-0.8299,-0.8244,-0.8233,-0.8233,-0.8151,-0.8171,-0.8136,-0.8117,-0.807,-0.8032,-0.804,-0.8038,-0.8005,-0.7964,-0.7951,-0.7969,-0.7952,-0.7936,-0.7894,-0.7982,-0.7971,-0.7933,-0.7933,-0.7933,-0.7933,-0.7933,-0.7933,-0.7933,-0.7933,-0.7933,-0.7933,-0.7933,-0.7933,-0.793,-0.793,-0.793,-0.7994,-0.818,-0.8305,-0.8491,-0.8552,-0.8552,-0.8369,-0.8308,-0.8119,-0.7933,-0.7872,-0.7503,-0.7503,-0.7808,-0.7872,-0.7808,-0.775,-0.7503,-0.6825,-0.5968,-0.5235,-0.4684,-0.4499,-0.4007,-0.3576,-0.3391,-0.2652,-0.2345,-0.216,-0.2099,-0.2038,-0.2038,-0.2038,-0.2223,-0.2161,-0.2161,-0.2776,-0.3207,-0.29,-0.2592,-0.2531,-0.2469,-0.2346,-0.2284,-0.2222,-0.2284,-0.2346,-0.2285,-0.2223,-0.2222,-0.2222,-0.2223,-0.2099,-0.2099,-0.2038,-0.2038,-0.2038,-0.2038,-0.2038,-0.2038,-0.2037,-0.1974,-0.1954,-0.1924,-0.1893,-0.1803,-0.1833,-0.1806,-0.1796,-0.1795,-0.8587,-0.8587,-0.8587,-0.8587,-0.8584,-0.8557,-0.8497,-0.8421,-0.8375,-0.8299,-0.8204,-0.8155,-0.8136,-0.8127,-0.8049,-0.8008,-0.8062,-0.7974,-0.7941,-0.7933,-0.7933,-0.7944,-0.7947,-0.788,-0.788,-0.7933,-0.7933,-0.788,-0.7877,-0.7933,-0.7933,-0.7933,-0.7933,-0.7933,-0.7933,-0.7933,-0.7933,-0.7933,-0.7933,-0.7853,-0.7834,-0.7856,-0.7847,-0.7906,-0.7911,-0.7997,-0.8244,-0.8244,-0.8427,-0.8488,-0.8366,-0.8244,-0.8183,-0.8058,-0.7933,-0.7808,-0.7378,-0.7197,-0.738,-0.738,-0.7439,-0.7194,-0.6705,-0.5722,-0.4865,-0.407,-0.364,-0.3516,-0.3207,-0.2837,-0.2529,-0.2222,-0.2099,-0.2038,-0.2038,-0.2038,-0.2038,-0.2038,-0.2038,-0.2038,-0.2038,-0.2038,-0.2285,-0.2162,-0.2038,-0.2038,-0.2038,-0.2038,-0.2038,-0.2038,-0.2038,-0.2162,-0.21,-0.2099,-0.2038,-0.2038,-0.2038,-0.2038,-0.2038,-0.2038,-0.2038,-0.2038,-0.2038,-0.2038,-0.2038,-0.2038,-0.1975,-0.1954,-0.1931,-0.1898,-0.1866,-0.1837,-0.1814,-0.1802,-0.1795,-0.8587,-0.8587,-0.8587,-0.8587,-0.8579,-0.8473,-0.8429,-0.841,-0.8307,-0.8198,-0.8079,-0.7973,-0.7943,-0.791,-0.7862,-0.7841,-0.7888,-0.7875,-0.7872,-0.7872,-0.7933,-0.7933,-0.7933,-0.7933,-0.7933,-0.7933,-0.7933,-0.7933,-0.7933,-0.7933,-0.7933,-0.7933,-0.7933,-0.7933,-0.7947,-0.7966,-0.7872,-0.7858,-0.7845,-0.7804,-0.7782,-0.7796,-0.7818,-0.7771,-0.7818,-0.7933,-0.7933,-0.7994,-0.7994,-0.8116,-0.7933,-0.7872,-0.7811,-0.7625,-0.7564,-0.7441,-0.6888,-0.6644,-0.6644,-0.646,-0.6154,-0.5786,-0.5295,-0.4619,-0.4006,-0.3453,-0.3085,-0.3022,-0.2775,-0.259,-0.2406,-0.2222,-0.2038,-0.2038,-0.2038,-0.2038,-0.2038,-0.2038,-0.2038,-0.2038,-0.2038,-0.2038,-0.2038,-0.2038,-0.2038,-0.2038,-0.2038,-0.2038,-0.2038,-0.2038,-0.2038,-0.2038,-0.2038,-0.2038,-0.2038,-0.2038,-0.2038,-0.2038,-0.2038,-0.2038,-0.2038,-0.2038,-0.1977,-0.2038,-0.2038,-0.2038,-0.2038,-0.1964,-0.1943,-0.1904,-0.1872,-0.1846,-0.1818,-0.1799,-0.1795,-0.8256,-0.8256,-0.8259,-0.839,-0.8584,-0.8541,-0.8484,-0.8418,-0.8367,-0.8233,-0.8117,-0.8065,-0.7878,-0.7646,-0.7566,-0.7447,-0.7324,-0.7508,-0.7574,-0.7691,-0.775,-0.7872,-0.7933,-0.7936,-0.7933,-0.7933,-0.7933,-0.7933,-0.7933,-0.7933,-0.7933,-0.7933,-0.7877,-0.7991,-0.8015,-0.7962,-0.7905,-0.7741,-0.7774,-0.7739,-0.7731,-0.7736,-0.778,-0.782,-0.7828,-0.793,-0.7933,-0.7933,-0.7933,-0.7808,-0.75,-0.7317,-0.7194,-0.695,-0.6766,-0.6644,-0.597,-0.554,-0.554,-0.5418,-0.5358,-0.4681,-0.425,-0.3883,-0.339,-0.3083,-0.2899,-0.2714,-0.259,-0.2406,-0.2161,-0.21,-0.2038,-0.2038,-0.2038,-0.2038,-0.2038,-0.2038,-0.2038,-0.2038,-0.2038,-0.2038,-0.2038,-0.2038,-0.2038,-0.2038,-0.2038,-0.2038,-0.2038,-0.2036,-0.2036,-0.197,-0.1969,-0.1971,-0.197,-0.1973,-0.2037,-0.2036,-0.2034,-0.2027,-0.2023,-0.1976,-0.1976,-0.1977,-0.2038,-0.2038,-0.2038,-0.2038,-0.1956,-0.1919,-0.1887,-0.1859,-0.183,-0.1798,-0.1795,-0.8058,-0.7925,-0.772,-0.792,-0.8456,-0.8587,-0.8543,-0.8478,-0.847,-0.8267,-0.7977,-0.7916,-0.765,-0.7342,-0.7266,-0.7173,-0.7005,-0.7014,-0.7219,-0.7348,-0.747,-0.7685,-0.7851,-0.7952,-0.7933,-0.7933,-0.7933,-0.7933,-0.7933,-0.7933,-0.7933,-0.7819,-0.7606,-0.7611,-0.8086,-0.8043,-0.7841,-0.7479,-0.7645,-0.7725,-0.7714,-0.7389,-0.7566,-0.7641,-0.7538,-0.7625,-0.7686,-0.7686,-0.7503,-0.7319,-0.7011,-0.6641,-0.6399,-0.6154,-0.5845,-0.5418,-0.4928,-0.4253,-0.4375,-0.4315,-0.4315,-0.3635,-0.3513,-0.3145,-0.2899,-0.2715,-0.253,-0.2406,-0.2345,-0.2284,-0.2038,-0.2038,-0.2038,-0.2038,-0.2038,-0.2038,-0.2038,-0.2038,-0.2038,-0.2038,-0.2038,-0.2038,-0.1969,-0.1967,-0.1965,-0.1969,-0.2038,-0.2038,-0.2038,-0.2035,-0.1968,-0.1962,-0.1957,-0.1959,-0.1962,-0.1948,-0.1937,-0.1949,-0.1946,-0.1939,-0.194,-0.1958,-0.1966,-0.1958,-0.1961,-0.1973,-0.2038,-0.1976,-0.1959,-0.1934,-0.1898,-0.1855,-0.1824,-0.1795,-0.1795,-0.7791,-0.7459,-0.6715,-0.7047,-0.7922,-0.8456,-0.8512,-0.8363,-0.8283,-0.7956,-0.7475,-0.7311,-0.705,-0.6789,-0.6678,-0.6662,-0.6471,-0.6233,-0.6443,-0.6913,-0.686,-0.7163,-0.7611,-0.7865,-0.7933,-0.7933,-0.7933,-0.7933,-0.7872,-0.7689,-0.775,-0.7442,-0.6952,-0.6879,-0.794,-0.7997,-0.7489,-0.671,-0.7286,-0.7377,-0.7195,-0.6628,-0.6805,-0.6943,-0.6736,-0.6766,-0.7011,-0.6888,-0.6766,-0.6705,-0.609,-0.5784,-0.5786,-0.5358,-0.5174,-0.5114,-0.4313,-0.3881,-0.382,-0.3391,-0.3022,-0.2775,-0.2714,-0.253,-0.2223,-0.21,-0.2161,-0.2161,-0.2099,-0.21,-0.2038,-0.2038,-0.2038,-0.2038,-0.2038,-0.2038,-0.2038,-0.2038,-0.2038,-0.2038,-0.2038,-0.2036,-0.1964,-0.1956,-0.1952,-0.1958,-0.2033,-0.2035,-0.2027,-0.1958,-0.1945,-0.1941,-0.1932,-0.1932,-0.1928,-0.1907,-0.19,-0.1914,-0.1927,-0.1929,-0.1932,-0.1946,-0.1947,-0.1941,-0.1955,-0.2036,-0.1976,-0.1975,-0.1949,-0.1921,-0.1883,-0.1845,-0.1814,-0.1795,-0.1795,-0.6315,-0.5713,-0.5443,-0.5575,-0.5979,-0.678,-0.7247,-0.7369,-0.6771,-0.6253,-0.598,-0.589,-0.5624,-0.5502,-0.5757,-0.5731,-0.5167,-0.5815,-0.603,-0.5647,-0.6005,-0.6569,-0.7022,-0.7424,-0.775,-0.7872,-0.7872,-0.7747,-0.7872,-0.7258,-0.6943,-0.6698,-0.6055,-0.5793,-0.5977,-0.6095,-0.5836,-0.5487,-0.5665,-0.5742,-0.573,-0.5509,-0.5471,-0.5916,-0.5588,-0.5663,-0.6029,-0.5845,-0.5786,-0.5786,-0.5172,-0.4803,-0.4742,-0.4376,-0.3884,-0.3821,-0.3206,-0.2898,-0.2715,-0.2407,-0.2346,-0.2222,-0.216,-0.2161,-0.2038,-0.2038,-0.2038,-0.2038,-0.2038,-0.2038,-0.2038,-0.2038,-0.2038,-0.2038,-0.2038,-0.2038,-0.2038,-0.2038,-0.2038,-0.2038,-0.2038,-0.1962,-0.1949,-0.1924,-0.1916,-0.1911,-0.1918,-0.1924,-0.1919,-0.1914,-0.1905,-0.1904,-0.1901,-0.1901,-0.1895,-0.1877,-0.1884,-0.1905,-0.1925,-0.194,-0.1943,-0.1931,-0.1945,-0.1946,-0.1962,-0.2038,-0.1969,-0.1958,-0.1932,-0.1902,-0.187,-0.1838,-0.1808,-0.1795,-0.1795,-0.5175,-0.4637,-0.437,-0.4491,-0.4874,-0.5667,-0.6199,-0.6249,-0.5582,-0.5112,-0.4991,-0.4943,-0.474,-0.4621,-0.4681,-0.4854,-0.415,-0.4413,-0.5084,-0.4562,-0.5031,-0.551,-0.6021,-0.6555,-0.6523,-0.6888,-0.6888,-0.6764,-0.6644,-0.6154,-0.5667,-0.5275,-0.4873,-0.4386,-0.4452,-0.4644,-0.5001,-0.4758,-0.4776,-0.5077,-0.4906,-0.4643,-0.4576,-0.4785,-0.4679,-0.4556,-0.474,-0.4742,-0.4619,-0.4558,-0.419,-0.3699,-0.3638,-0.333,-0.2837,-0.2714,-0.253,-0.2221,-0.2099,-0.21,-0.21,-0.2038,-0.2038,-0.2038,-0.2038,-0.2038,-0.2038,-0.2038,-0.2038,-0.2038,-0.2038,-0.2038,-0.2038,-0.2038,-0.2038,-0.2038,-0.2038,-0.2038,-0.2038,-0.2038,-0.2031,-0.1953,-0.1929,-0.1897,-0.1873,-0.1867,-0.1862,-0.1868,-0.1877,-0.1877,-0.1873,-0.187,-0.187,-0.187,-0.1864,-0.1851,-0.1864,-0.1835,-0.1846,-0.1913,-0.1906,-0.1888,-0.192,-0.2013,-0.2022,-0.1965,-0.1956,-0.1941,-0.1914,-0.1891,-0.1866,-0.1834,-0.1802,-0.1795,-0.1795,-0.457,-0.4167,-0.3497,-0.3737,-0.4619,-0.4879,-0.513,-0.5184,-0.4991,-0.4737,-0.4521,-0.4331,-0.4074,-0.3915,-0.3944,-0.3987,-0.394,-0.3491,-0.3826,-0.4162,-0.4154,-0.4507,-0.4826,-0.5187,-0.5519,-0.5248,-0.5239,-0.5609,-0.5054,-0.4929,-0.4494,-0.3794,-0.3671,-0.3245,-0.3325,-0.3712,-0.4075,-0.3825,-0.3968,-0.4227,-0.4121,-0.378,-0.3824,-0.3887,-0.382,-0.382,-0.3944,-0.4006,-0.3821,-0.3637,-0.3267,-0.3083,-0.2899,-0.2651,-0.2528,-0.2406,-0.2161,-0.2099,-0.2038,-0.2038,-0.2038,-0.2038,-0.2038,-0.2038,-0.2038,-0.2038,-0.2038,-0.2038,-0.2038,-0.2038,-0.2038,-0.2038,-0.2038,-0.2038,-0.2038,-0.2038,-0.2038,-0.2038,-0.2038,-0.2034,-0.1963,-0.1943,-0.1909,-0.1876,-0.1841,-0.1835,-0.1833,-0.1838,-0.1848,-0.1859,-0.1852,-0.1839,-0.1838,-0.1839,-0.1832,-0.1825,-0.1839,-0.1809,-0.1849,-0.185,-0.1844,-0.1861,-0.1893,-0.1925,-0.1948,-0.1951,-0.1933,-0.1916,-0.1897,-0.1874,-0.1791,-0.1829,-0.1796,-0.1795,-0.1795,-0.3295,-0.2826,-0.2558,-0.2686,-0.294,-0.2976,-0.3273,-0.3628,-0.3225,-0.2911,-0.2852,-0.283,-0.2902,-0.2682,-0.3193,-0.3092,-0.3055,-0.3002,-0.2902,-0.3083,-0.3331,-0.3676,-0.4072,-0.4458,-0.4816,-0.4857,-0.4838,-0.4645,-0.471,-0.4385,-0.3484,-0.2687,-0.2718,-0.2411,-0.255,-0.2814,-0.2793,-0.2834,-0.3062,-0.3151,-0.3107,-0.2762,-0.2866,-0.285,-0.2839,-0.2839,-0.29,-0.2901,-0.2776,-0.2775,-0.253,-0.2345,-0.259,-0.2345,-0.2161,-0.216,-0.2038,-0.2038,-0.2038,-0.2038,-0.2038,-0.2038,-0.2038,-0.2038,-0.2038,-0.2038,-0.2038,-0.2038,-0.2038,-0.2038,-0.2038,-0.2038,-0.2038,-0.2038,-0.2038,-0.2038,-0.2038,-0.2038,-0.2038,-0.1962,-0.1953,-0.1915,-0.1881,-0.1846,-0.1815,-0.1808,-0.1807,-0.1814,-0.182,-0.1832,-0.1834,-0.182,-0.1702,-0.1704,-0.1756,-0.1806,-0.182,-0.1832,-0.1819,-0.1821,-0.1847,-0.1867,-0.188,-0.1897,-0.1919,-0.1916,-0.1902,-0.1885,-0.1813,-0.1793,-0.177,-0.1811,-0.1797,-0.1796,-0.1739,-0.2558,-0.2222,-0.2222,-0.2216,-0.2132,-0.2104,-0.2346,-0.26,-0.2277,-0.2087,-0.2162,-0.2139,-0.208,-0.2231,-0.2538,-0.2546,-0.2263,-0.2528,-0.2577,-0.2496,-0.274,-0.2827,-0.3234,-0.3513,-0.3556,-0.3796,-0.3792,-0.3539,-0.3735,-0.3433,-0.2568,-0.2241,-0.214,-0.2219,-0.2289,-0.2353,-0.2278,-0.2262,-0.2176,-0.2087,-0.2061,-0.2032,-0.2007,-0.1996,-0.1986,-0.2041,-0.204,-0.204,-0.2161,-0.2284,-0.2038,-0.2099,-0.2283,-0.2099,-0.2038,-0.2038,-0.2038,-0.2038,-0.2038,-0.2038,-0.2038,-0.2038,-0.2038,-0.2038,-0.2038,-0.2038,-0.2038,-0.2038,-0.2038,-0.2038,-0.2038,-0.2038,-0.2038,-0.2038,-0.2038,-0.2038,-0.2038,-0.2038,-0.1966,-0.1952,-0.1922,-0.1883,-0.1847,-0.1813,-0.1795,-0.1797,-0.1742,-0.1688,-0.1691,-0.1751,-0.1811,-0.1804,-0.1688,-0.1575,-0.1683,-0.1739,-0.1693,-0.1758,-0.1812,-0.1821,-0.1851,-0.1862,-0.1865,-0.1875,-0.1889,-0.1881,-0.1871,-0.1801,-0.1786,-0.1711,-0.1587,-0.1522,-0.1572,-0.1683,-0.1627,-0.2218,-0.2217,-0.2216,-0.2129,-0.2104,-0.2077,-0.2146,-0.2108,-0.2106,-0.2125,-0.2136,-0.2159,-0.2086,-0.2098,-0.2196,-0.2196,-0.2095,-0.2236,-0.2301,-0.2103,-0.2275,-0.2308,-0.2219,-0.2122,-0.2559,-0.2234,-0.2169,-0.2616,-0.2285,-0.2207,-0.2309,-0.2114,-0.214,-0.2222,-0.2222,-0.2222,-0.2218,-0.2212,-0.2129,-0.2109,-0.2093,-0.2059,-0.2024,-0.2018,-0.2001,-0.2045,-0.2043,-0.2041,-0.2038,-0.2038,-0.2038,-0.2038,-0.2038,-0.2038,-0.2038,-0.2038,-0.2038,-0.2038,-0.2038,-0.2038,-0.2038,-0.2038,-0.2038,-0.2038,-0.2038,-0.2038,-0.2038,-0.2038,-0.2038,-0.2038,-0.2038,-0.2038,-0.2038,-0.2038,-0.2038,-0.2038,-0.2038,-0.1968,-0.1948,-0.1929,-0.1897,-0.1859,-0.1775,-0.1745,-0.157,-0.1683,-0.1627,-0.1514,-0.146,-0.1516,-0.1518,-0.163,-0.1458,-0.1346,-0.1514,-0.157,-0.157,-0.163,-0.1745,-0.1803,-0.1821,-0.1834,-0.1847,-0.185,-0.1852,-0.1851,-0.1842,-0.1716,-0.1594,-0.1471,-0.135,-0.1179,-0.1234,-0.1402,-0.1458,-0.212,-0.2118,-0.2161,-0.2081,-0.2075,-0.2131,-0.2081,-0.2108,-0.2109,-0.2125,-0.221,-0.2117,-0.2097,-0.2092,-0.2061,-0.2058,-0.2068,-0.2075,-0.2074,-0.2074,-0.2062,-0.2114,-0.2044,-0.2011,-0.2005,-0.2001,-0.1999,-0.2005,-0.2048,-0.2088,-0.2121,-0.2141,-0.2222,-0.2222,-0.2222,-0.2222,-0.2222,-0.2221,-0.2213,-0.2126,-0.2104,-0.2098,-0.208,-0.2052,-0.2025,-0.2005,-0.1999,-0.1986,-0.2043,-0.2038,-0.2038,-0.2038,-0.2038,-0.2038,-0.2038,-0.2038,-0.2038,-0.2038,-0.2038,-0.2038,-0.2038,-0.2038,-0.2038,-0.2038,-0.2038,-0.2038,-0.2038,-0.2038,-0.2038,-0.2038,-0.2038,-0.2038,-0.2038,-0.2038,-0.2038,-0.2038,-0.2038,-0.1955,-0.1932,-0.1843,-0.1813,-0.1729,-0.1704,-0.1579,-0.146,-0.1346,-0.1177,-0.1066,-0.107,-0.1071,-0.1018,-0.1074,-0.1067,-0.1066,-0.129,-0.1404,-0.1461,-0.1631,-0.1748,-0.1801,-0.1798,-0.1757,-0.1718,-0.176,-0.1811,-0.1704,-0.1591,-0.1526,-0.1405,-0.1177,-0.1065,-0.0897,-0.0841,-0.1009,-0.1009,-0.2089,-0.2086,-0.2135,-0.2129,-0.2129,-0.2129,-0.2081,-0.2104,-0.2095,-0.2106,-0.2127,-0.2104,-0.2083,-0.2068,-0.2038,-0.2037,-0.2041,-0.2044,-0.2044,-0.2044,-0.2043,-0.2032,-0.2022,-0.2011,-0.2,-0.1994,-0.2003,-0.2021,-0.2061,-0.2094,-0.2123,-0.2216,-0.2221,-0.2222,-0.2222,-0.2222,-0.2222,-0.2222,-0.2222,-0.2138,-0.2114,-0.2107,-0.2093,-0.2064,-0.2038,-0.2018,-0.1998,-0.1984,-0.2043,-0.2038,-0.2038,-0.2038,-0.2038,-0.2038,-0.2038,-0.2038,-0.2038,-0.2038,-0.2038,-0.2038,-0.2038,-0.2038,-0.2038,-0.2038,-0.2038,-0.2038,-0.2038,-0.2038,-0.2038,-0.2038,-0.2038,-0.2038,-0.2038,-0.2038,-0.2038,-0.2038,-0.1907,-0.183,-0.1745,-0.1598,-0.1514,-0.1319,-0.1249,-0.1251,-0.1135,-0.114,-0.091,-0.0742,-0.0743,-0.0683,-0.0628,-0.0627,-0.0681,-0.09,-0.1234,-0.1349,-0.1296,-0.1524,-0.17,-0.1653,-0.1602,-0.1594,-0.1646,-0.1528,-0.1466,-0.1349,-0.1235,-0.1234,-0.1009,-0.0841,-0.0729,-0.0617,0.0,0.0,0.0,-0.212,-0.2117,-0.2052,-0.2116,-0.2116,-0.2116,-0.2067,-0.2088,-0.207,-0.2072,-0.2091,-0.2069,-0.2042,-0.2018,-0.1992,-0.2,-0.2007,-0.2013,-0.2013,-0.2019,-0.2016,-0.2014,-0.2001,-0.1984,-0.2045,-0.1988,-0.1996,-0.2022,-0.2052,-0.2083,-0.2111,-0.2209,-0.2221,-0.2222,-0.2222,-0.2222,-0.2222,-0.2222,-0.2218,-0.214,-0.2125,-0.211,-0.2091,-0.2064,-0.2035,-0.2007,-0.199,-0.204,-0.204,-0.2038,-0.2038,-0.2038,-0.2038,-0.2038,-0.2038,-0.2038,-0.2038,-0.2038,-0.2038,-0.2038,-0.2038,-0.2038,-0.2038,-0.2038,-0.2038,-0.2038,-0.2038,-0.2038,-0.2038,-0.2038,-0.2038,-0.2038,-0.2038,-0.2038,-0.2038,-0.2038,-0.1903,-0.1703,-0.1556,-0.1414,-0.1217,-0.097,-0.091,-0.0912,-0.0858,-0.0806,-0.0754,-0.0584,-0.0468,-0.0407,-0.0348,-0.0347,-0.0346,-0.0685,-0.1076,-0.1076,-0.1026,-0.1258,-0.1438,-0.1449,-0.1392,-0.137,-0.1246,-0.108,-0.1019,-0.1012,-0.0953,-0.0897,-0.0673,-0.0504,-0.0392,0.0,0.0,0.0,0.0,-0.2014,-0.1993,-0.1994,-0.2057,-0.2057,-0.1994,-0.2009,-0.2033,-0.2031,-0.2031,-0.2037,-0.2034,-0.2022,-0.2017,-0.1989,-0.1984,-0.1988,-0.199,-0.2003,-0.2014,-0.1998,-0.1999,-0.1996,-0.2044,-0.204,-0.2043,-0.1988,-0.2002,-0.2037,-0.2063,-0.2089,-0.212,-0.2216,-0.2221,-0.2221,-0.2221,-0.2218,-0.222,-0.2218,-0.2142,-0.2138,-0.2119,-0.2092,-0.2064,-0.2035,-0.202,-0.2006,-0.1987,-0.2042,-0.2038,-0.2038,-0.2038,-0.2038,-0.2038,-0.2038,-0.2038,-0.2038,-0.2038,-0.2038,-0.2038,-0.2038,-0.2038,-0.2038,-0.2038,-0.2038,-0.2038,-0.2038,-0.2038,-0.2038,-0.2038,-0.2038,-0.2038,-0.2038,-0.2038,-0.2038,-0.2038,-0.1971,-0.1633,-0.1365,-0.1228,-0.1036,-0.0853,-0.0789,-0.0678,-0.051,-0.0456,-0.0346,0.0,0.0,0.0,0.0,0.0,0.0,-0.0234,-0.0526,-0.0694,-0.0696,-0.0931,-0.1105,-0.1104,-0.1096,-0.1019,-0.0902,-0.0739,-0.0792,-0.0842,-0.0785,-0.0617,-0.0504,-0.0336,-0.0168,0.0,0.0,0.0,0.0]}]]